• MPC Preparation (Info)
  • List Of Apollo Minor Planets

    Information on converting absolute magnitudes to diameters is available, as is an explanation of the quantities given in the listings below.

    A list of close approaches to the earth in the next 33 years is available.

    See a plot of the innermost solar system (or the inner solar system)

    This list is updated daily and is also updated as and when new objects are discovered.


    Designation  
    (and name) 
    Prov. Des.    q Q EMoid     Epoch M Peri.  Node   Incl.  e a Opps.    Ref.    Discovery date, site
    0015661949 MA}(1566) Icarus J49M00A1949 MA 0.187 1.97 0.03392 16.58 20240331 344.8 31.437 87.953 22.802 0.827 1.078 40 E2024-A55 1949 06 27 675 Baade, W.
    0016201951 RA}(1620) Geographos J51R00A1951 RA 0.828 1.664 0.0302 15.27 20240331 147.6 276.977 337.163 13.335 0.336 1.246 41 E2024-BE5 1951 09 14 675 Wilson, A. G., Minkowski, R.
    0016851948 OA}(1685) Toro J48O00A1948 OA 0.771 1.964 0.05064 14.28 20240331 73.1 127.259 274.214 9.381 0.436 1.368 40 E2024-K33 1948 07 17 662 Wirtanen, C. A.
    0018621932 HA}(1862) Apollo J32H00A1932 HA 0.647 2.294 0.02586 16.08 20240331 142.3 286.039 35.556 6.352 0.56 1.471 35 E2024-DC4 1932 04 24 024 Reinmuth, K.
    0018631948 EA}(1863) Antinous J48E00A1948 EA 0.891 3.632 0.18477 15.45 20240331 116.0 268.247 346.298 18.37 0.606 2.261 26 E2024-A05 1948 03 07 662 Wirtanen, C. A.
    0018641971 FA}(1864) Daedalus J71F00A1971 FA 0.564 2.358 0.26943 14.86 20240331 282.7 325.662 6.615 22.214 0.614 1.461 36 E2024-K33 1971 03 24 675 Gehrels, T.
    0018651971 UA}(1865) Cerberus J71U00A1971 UA 0.576 1.584 0.15681 16.79 20240331 152.7 325.294 212.888 16.102 0.467 1.08 26 E2023-D55 1971 10 26 029 Kohoutek, L.
    0018661972 XA}(1866) Sisyphus J72X00A1972 XA 0.875 2.913 0.10461 12.52 20240331 273.7 293.112 63.454 41.208 0.538 1.894 37 E2024-K36 1972 12 05 026 Wild, P.
    0019811973 EA}(1981) Midas J73E00A1973 EA 0.621 2.932 0.00388 15.28 20240331 175.5 267.829 356.82 39.819 0.65 1.776 26 MPO775964 1973 03 06 675 Kowal, C. T.
    0020631977 HB}(2063) Bacchus J77H00B1977 HB 0.701 1.455 0.06724 17.22 20240331 66.4 55.342 33.044 9.435 0.349 1.078 22 E2024-K33 1977 04 24 675 Kowal, C. T.
    0021011936 CA}(2101) Adonis J36C00A1936 CA 0.442 3.306 0.01155 18.72 20240331 154.0 43.66 349.456 1.321 0.764 1.874 11 MPO727488 1936 02 12 012 Delporte, E.
    0021021975 YA}(2102) Tantalus J75Y00A1975 YA 0.904 1.676 0.04357 16.00 20240331 303.7 61.51 94.353 64.004 0.299 1.29 23 E2024-C06 1975 12 27 675 Kowal, C. T.
    0021351977 HA}(2135) Aristaeus J77H00A1977 HA 0.795 2.404 0.00985 18.05 20240331 104.9 290.969 191.121 23.071 0.503 1.6 12 MPO691534 1977 04 17 675 Bus, S. J., Helin, E. F.
    0022011947 XC}(2201) Oljato J47X00C1947 XC 0.63 3.727 0.00275 15.36 20240331 273.1 98.397 74.864 2.522 0.711 2.178 34 MPO775968 1947 12 12 690 Giclas, H. L.
    0022121978 SB}(2212) Hephaistos J78S00B1978 SB 0.352 3.976 0.11518 13.51 20240331 123.3 209.582 27.412 11.477 0.837 2.164 37 E2024-JU2 1978 09 27 095 Chernykh, L. I.
    0023291976 WA}(2329) Orthos J76W00A1976 WA 0.835 3.985 0.09295 14.57 20240331 273.3 146.063 169.285 24.466 0.653 2.41 27 E2024-GH2 1976 11 19 809 Schuster, H.-E.
    0031031982 BB}(3103) Eger J82B00B1982 BB 0.907 1.901 0.07962 15.32 20240331 185.7 254.105 129.739 20.929 0.354 1.404 20 E2024-K25 1982 01 20 561 Lovas, M.
    0032001983 TB}(3200) Phaethon J83T00B1983 TB 0.14 2.403 0.01903 14.40 20240331 111.5 322.266 265.132 22.294 0.89 1.271 41 E2024-CB5 1983 10 11 500 IRAS
    0033601981 VA}(3360) Syrinx J81V00A1981 VA 0.628 4.306 0.10695 16.04 20240331 358.7 63.558 242.464 21.144 0.746 2.467 17 MPO745323 1981 11 04 675 Helin, E. F., Dunbar, R. S.
    0033611982 HR}(3361) Orpheus J82H00R1982 HR 0.819 1.601 0.01416 19.56 20240331 236.5 302.351 188.677 2.662 0.323 1.21 18 E2024-D82 1982 04 24 805 Torres, C.
    0037521985 PA}(3752) Camillo J85P00A1985 PA 0.987 1.84 0.07881 15.19 20240331 251.5 312.219 147.957 55.56 0.302 1.414 21 E2023-WD3 1985 08 15 010 Helin, E. F., Barucci, M. A.
    0038381986 WA}(3838) Epona J86W00A1986 WA 0.448 2.562 0.15981 15.69 20240331 119.0 49.718 235.469 29.201 0.702 1.505 28 E2024-F28 1986 11 27 675 Maury, A.
    0040151979 VA}(4015) Wilson-Harrington J79V00A1979 VA 0.968 4.283 0.04287 16.19 20240331 135.4 95.502 266.744 2.799 0.631 2.625 24 E2024-E73 1979 11 15 675 Helin, E. F.
    0040341986 PA}(4034) Vishnu J86P00A1986 PA 0.589 1.53 0.0196 18.52 20240331 79.7 296.695 157.897 11.168 0.444 1.06 22 E2024-JV1 1986 08 02 675 Helin, E. F.
    0041791989 AC}(4179) Toutatis J89A00C1989 AC 0.955 4.133 0.00652 15.31 20240331 291.1 277.869 125.355 0.448 0.625 2.544 29 MPO745323 1989 01 04 010 Pollas, C.
    0041831959 LM}(4183) Cuno J59L00M1959 LM 0.721 3.241 0.02806 14.17 20240331 105.2 237.033 294.35 6.669 0.636 1.981 32 E2024-K25 1959 06 05 074 Hoffmeister, C.
    0041971982 TA}(4197) Morpheus J82T00A1982 TA 0.522 4.067 0.09858 15.03 20240331 300.4 122.56 7.006 12.604 0.772 2.295 24 MPO776003 1982 10 11 675 Helin, E. F., Shoemaker, E. M.
    0042571987 QA}(4257) Ubasti J87Q00A1987 QA 0.876 2.418 0.1702 15.96 20240331 67.7 278.93 169.159 40.72 0.468 1.647 24 E2024-K03 1987 08 23 675 Mueller, J. E.
    0043411987 KF}(4341) Poseidon J87K00F1987 KF 0.587 3.081 0.19374 16.08 20240331 324.7 15.828 108.034 11.837 0.68 1.834 24 MPO776006 1987 05 29 675 Shoemaker, C. S.
    0044501987 SY}(4450) Pan J87S00Y1987 SY 0.596 2.288 0.02856 17.28 20240331 78.4 291.851 311.765 5.52 0.587 1.442 25 E2023-D55 1987 09 25 675 Shoemaker, C. S., Shoemaker, E.
    0044861987 SB}(4486) Mithra J87S00B1987 SB 0.743 3.662 0.04621 15.61 20240331 96.7 168.977 82.198 3.04 0.663 2.203 28 E2024-A34 1987 09 22 071 Elst, E. W., Shkodrov, V. G.
    0045441989 FB}(4544) Xanthus J89F00B1989 FB 0.781 1.303 0.1727 17.38 20240331 169.2 333.828 23.948 14.144 0.25 1.042 16 E2024-K42 1989 03 31 675 Holt, H. E., Thomas, N. G.
    0045811989 FC}(4581) Asclepius J89F00C1989 FC 0.658 1.388 0.00351 20.74 20240331 21.5 255.366 180.204 4.918 0.357 1.023 13 MPO727528 1989 03 31 675 Holt, H. E., Thomas, N. G.
    0046601982 DB}(4660) Nereus J82D00B1982 DB 0.953 2.018 0.00387 18.75 20240331 83.1 159.532 313.117 1.453 0.359 1.485 20 E2024-CC8 1982 02 28 675 Helin, E. F.
    0047691989 PB}(4769) Castalia J89P00B1989 PB 0.549 1.577 0.02055 17.51 20240331 144.3 121.438 325.514 8.884 0.483 1.063 17 E2024-BD6 1989 08 09 675 Helin, E. F.
    0049531990 MU}(4953) J90M00U1990 MU 0.555 2.687 0.02507 14.94 20240331 189.5 77.935 77.534 24.378 0.657 1.621 30 E2024-A48 1990 06 23 413 McNaught, R. H.
    0050116743 P-L}(5011) Ptah 6743 P-L 0.818 2.454 0.02473 16.70 20240331 79.5 105.934 10.641 7.409 0.5 1.636 24 MPO776018 1960 09 24 675 van Houten, C. J., van Houten-G
    0051311990 BG}(5131) J90B00G1990 BG 0.64 2.332 0.27459 14.83 20240331 249.3 135.868 110.337 36.441 0.569 1.486 30 E2024-GH2 1990 01 21 675 Helin, E. F., Roman, B.
    0051431991 VL}(5143) Heracles J91V00L1991 VL 0.42 3.25 0.05771 14.06 20240331 326.2 228.214 309.097 8.977 0.771 1.835 32 E2024-C37 1991 11 07 675 Shoemaker, C. S.
    0051891990 UQ}(5189) J90U00Q1990 UQ 0.81 2.294 0.04466 17.84 20240331 155.6 159.955 135.054 3.579 0.478 1.552 22 E2024-JQ5 1990 10 20 413 McNaught, R. H.
    0054961973 NA}(5496) J73N00A1973 NA 0.888 3.981 0.09231 16.15 20240331 143.5 117.991 101.043 68.0 0.635 2.435 14 MPO691597 1973 07 04 675 Helin, E. F.
    0056451990 SP}(5645) J90S00P1990 SP 0.83 1.879 0.05335 17.24 20240331 39.5 48.258 45.71 13.506 0.387 1.355 18 E2024-K03 1990 09 20 413 McNaught, R. H.
    0056601974 MA}(5660) J74M00A1974 MA 0.425 3.146 0.16243 15.50 20240331 275.5 127.034 302.121 38.139 0.762 1.785 16 E2024-K33 1974 06 26 675 Kowal, C. T.
    0056931993 EA}(5693) J93E00A1993 EA 0.527 2.014 0.00578 16.79 20240331 65.5 258.982 96.981 5.059 0.585 1.271 28 E2024-H78 1993 03 03 691 Spacewatch
    0057311988 VP4}(5731) Zeus J88V04P1988 VP4 0.789 3.744 0.06375 15.46 20240331 108.5 218.437 280.586 11.199 0.652 2.266 26 E2024-A48 1988 11 04 675 Shoemaker, C. S., Shoemaker, E.
    0057861991 RC}(5786) Talos J91R00C1991 RC 0.187 1.976 0.18866 17.19 20240331 102.3 8.388 161.285 23.223 0.827 1.081 26 E2023-XA2 1991 09 03 413 McNaught, R. H.
    0058281991 AM}(5828) J91A00M1991 AM 0.518 2.878 0.39744 15.98 20240331 328.5 152.758 125.423 30.122 0.695 1.698 26 E2024-H80 1991 01 14 691 Spacewatch
    0060371988 EG}(6037) J88E00G1988 EG 0.636 1.907 0.02406 18.87 20240331 112.3 242.311 182.182 3.513 0.5 1.272 19 E2024-JO9 1988 03 12 675 Alu, J.
    0060471991 TB1}(6047) J91T01B1991 TB1 0.943 1.967 0.14045 17.84 20240331 130.0 103.811 6.073 23.474 0.352 1.455 12 MPO745323 1991 10 10 675 Rose, P.
    0060631984 KB}(6063) Jason J84K00B1984 KB 0.528 3.913 0.07624 16.02 20240331 40.3 337.609 169.039 4.958 0.762 2.22 23 E2024-A48 1984 05 27 675 Shoemaker, C. S., Shoemaker, E.
    0062391989 QF}(6239) Minos J89Q00F1989 QF 0.676 1.626 0.02626 18.61 20240331 64.9 239.741 344.551 3.941 0.413 1.151 18 MPO776040 1989 08 31 675 Shoemaker, C. S., Shoemaker, E.
    0064551992 HE}(6455) J92H00E1992 HE 0.957 3.523 0.28875 14.10 20240331 171.2 262.757 26.898 37.34 0.573 2.24 26 E2024-B79 1992 04 25 413 McNaught, R. H.
    0064891991 JX}(6489) Golevka J91J00X1991 JX 0.961 4.011 0.02462 19.22 20240331 101.6 68.634 209.488 2.268 0.613 2.486 7 MPO691616 1991 05 10 675 Helin, E. F.
    0066111993 VW}(6611) J93V00W1993 VW 0.874 2.518 0.06022 16.90 20240331 225.8 281.612 230.767 8.702 0.485 1.696 23 E2023-P22 1993 11 09 675 Helin, E. F., Alu, J.
    0070921992 LC}(7092) Cadmus J92L00C1992 LC 0.78 4.311 0.10157 15.12 20240331 342.0 94.767 56.718 17.789 0.693 2.545 19 E2024-C93 1992 06 04 675 Shoemaker, C. S., Shoemaker, E.
    0073351989 JA}(7335) J89J00A1989 JA 0.913 2.63 0.02187 17.70 20240331 265.6 232.279 61.279 15.174 0.485 1.772 17 E2024-J08 1989 05 01 675 Helin, E. F.
    0073411991 VK}(7341) J91V00K1991 VK 0.909 2.773 0.04762 16.96 20240331 319.0 173.482 294.734 5.409 0.506 1.841 20 E2024-EH9 1991 11 01 675 Helin, E. F., Lawrence, K. J.
    0073501993 VA}(7350) J93V00A1993 VA 0.826 1.886 0.08053 17.18 20240331 58.9 336.694 133.051 7.262 0.391 1.356 22 E2024-K36 1993 11 07 413 McNaught, R. H.
    0074821994 PC1}(7482) J94P01C1994 PC1 0.904 1.793 0.00015 16.66 20240331 120.7 47.506 117.856 33.468 0.329 1.349 17 E2023-R01 1994 08 09 413 McNaught, R. H.
    0077531988 XB}(7753) J88X00B1988 XB 0.761 2.174 0.00663 18.02 20240331 344.9 280.083 73.388 3.125 0.482 1.467 21 E2023-R01 1988 12 05 888 Oshima, Y.
    0078221991 CS}(7822) J91C00S1991 CS 0.938 1.308 0.02279 17.34 20240331 16.6 249.452 156.845 37.122 0.165 1.123 9 E2023-R01 1991 02 13 413 McNaught, R. H.
    0078881993 UC}(7888) J93U00C1993 UC 0.821 4.054 0.08569 15.19 20240331 332.4 323.001 165.899 26.075 0.663 2.438 21 MPO776070 1993 10 20 413 McNaught, R. H.
    0078891994 LX}(7889) J94L00X1994 LX 0.825 1.698 0.15393 15.33 20240331 198.0 349.181 111.262 36.907 0.346 1.262 17 E2024-JU2 1994 06 15 691 Spacewatch
    0080141990 MF}(8014) J90M00F1990 MF 0.95 2.544 0.01693 18.88 20240331 206.1 114.739 209.843 1.868 0.456 1.747 13 E2024-CC8 1990 06 26 675 Helin, E. F.
    0080351992 TB}(8035) J92T00B1992 TB 0.722 1.963 0.27255 17.12 20240331 246.9 6.106 185.621 28.306 0.462 1.342 20 E2024-A48 1992 10 02 691 Spacewatch
    0081761991 WA}(8176) J91W00A1991 WA 0.562 2.588 0.19318 17.02 20240331 161.1 241.89 66.506 39.594 0.643 1.575 30 E2024-A74 1991 11 29 413 McNaught, R. H.
    0082011994 AH2}(8201) J94A02H1994 AH2 0.746 4.332 0.10065 15.95 20240331 150.7 25.132 164.096 9.544 0.706 2.539 20 E2024-E23 1994 01 05 413 Garradd, G. J.
    0085071991 CB1}(8507) J91C01B1991 CB1 0.684 2.69 0.21946 17.21 20240331 279.5 345.773 317.409 14.585 0.594 1.687 18 E2024-J61 1991 02 15 691 Spacewatch
    0085661996 EN}(8566) J96E00N1996 EN 0.858 2.154 0.02109 16.48 20240331 343.5 125.124 164.121 37.975 0.43 1.506 22 E2024-FB1 1996 03 15 566 NEAT
    0090581992 JB}(9058) J92J00B1992 JB 0.997 2.116 0.08457 17.93 20240331 183.4 307.086 218.301 16.088 0.36 1.557 16 E2024-EC3 1992 05 01 675 Alu, J., Lawrence, K. J.
    0091621987 OA}(9162) Kwiila J87O00A1987 OA 0.605 2.388 0.08076 18.02 20240331 329.6 235.824 180.003 9.011 0.596 1.497 20 E2024-JF3 1987 07 29 675 Mueller, J. E.
    0092021993 PB}(9202) J93P00B1993 PB 0.558 2.289 0.37284 16.12 20240331 109.0 212.367 315.89 40.799 0.608 1.424 21 MPO776093 1993 08 13 691 Spacewatch
    0098561991 EE}(9856) J91E00E1991 EE 0.839 3.645 0.02247 17.11 20240331 255.9 116.191 168.106 9.83 0.626 2.242 16 E2024-AE1 1991 03 13 691 Spacewatch
    0101151992 SK}(10115) J92S00K1992 SK 0.843 1.654 0.04581 17.12 20240331 303.2 233.68 8.894 15.319 0.325 1.248 17 E2024-K25 1992 09 24 675 Helin, E. F., Alu, J.
    0101451994 CK1}(10145) J94C01K1994 CK1 0.698 3.104 0.06268 17.01 20240331 273.2 27.44 328.385 4.545 0.633 1.901 21 E2024-JO9 1994 02 10 691 Spacewatch
    0101651995 BL2}(10165) J95B02L1995 BL2 0.613 1.857 0.37527 17.36 20240331 308.0 348.452 312.428 23.895 0.504 1.235 17 E2024-H52 1995 01 31 691 Spacewatch
    0105631993 WD}(10563) Izhdubar J93W00D1993 WD 0.739 1.275 0.14577 16.94 20240331 271.7 132.198 56.558 63.467 0.266 1.007 23 MPO691689 1993 11 19 675 Shoemaker, C. S., Shoemaker, E.
    0106361998 QK56}(10636) J98Q56K1998 QK56 0.918 2.851 0.11088 17.70 20240331 283.0 286.321 172.93 13.576 0.513 1.884 13 E2024-C37 1998 08 28 704 LINEAR
    0110661992 CC1}(11066) Sigurd J92C01C1992 CC1 0.869 1.914 0.11787 15.23 20240331 315.1 22.028 349.225 36.878 0.375 1.392 21 E2023-R01 1992 02 09 675 Shoemaker, C. S., Shoemaker, E.
    0113111993 XN2}(11311) Peleus J93X02N1993 XN2 0.983 3.251 0.096 15.88 20240331 322.5 313.447 59.32 25.495 0.536 2.117 17 E2024-K42 1993 12 10 675 Shoemaker, C. S., Shoemaker, E.
    0114051999 CV3}(11405) J99C03V1999 CV3 0.884 2.035 0.11821 15.27 20240331 42.1 96.377 141.257 22.861 0.394 1.459 19 E2023-R01 1999 02 10 704 LINEAR
    0115001989 UR}(11500) Tomaiyowit J89U00R1989 UR 0.696 1.464 0.03471 18.37 20240331 147.9 289.524 234.391 10.31 0.356 1.08 15 MPO691707 1989 10 28 675 Mueller, J. E., Mendenhall, J.
    0118851990 SS}(11885) Summanus J90S00S1990 SS 0.895 2.512 0.0675 18.52 20240331 330.7 116.192 359.782 19.431 0.474 1.703 7 E2023-R13 1990 09 25 691 Spacewatch
    0125381998 OH}(12538) J98O00H1998 OH 0.916 2.168 0.02898 15.97 20240331 214.1 321.787 220.695 24.539 0.406 1.542 16 E2024-A34 1998 07 19 566 NEAT
    0127111991 BB}(12711) Tukmit J91B00B1991 BB 0.864 1.509 0.11099 16.04 20240331 138.7 322.869 294.967 38.486 0.272 1.186 20 E2023-R01 1991 01 19 675 Mueller, J. E.
    0129231999 GK4}(12923) Zephyr J99G04K1999 GK4 0.997 2.928 0.02189 15.82 20240331 339.9 147.102 168.183 5.305 0.492 1.963 20 E2024-K33 1999 04 11 699 LONEOS
    0136511997 BR}(13651) J97B00R1997 BR 0.927 1.744 0.01418 17.89 20240331 135.0 133.819 116.644 17.247 0.306 1.336 14 MPO727657 1997 01 20 327 Beijing Schmidt CCD Asteroid Pr
    0148271986 JK}(14827) Hypnos J86J00K1986 JK 0.952 4.736 0.01511 18.75 20240331 340.5 238.153 57.938 1.979 0.665 2.844 7 E2024-K36 1986 05 05 675 Shoemaker, C. S., Shoemaker, E.
    0168161997 UF9}(16816) J97U09F1997 UF9 0.571 2.313 0.37997 16.26 20240331 341.7 158.013 37.145 25.921 0.604 1.442 21 E2024-FB1 1997 10 29 704 LINEAR
    0168341997 WU22}(16834) J97W22U1997 WU22 0.819 2.117 0.14571 15.80 20240331 136.7 334.352 260.765 15.993 0.442 1.468 21 E2024-A48 1997 11 30 566 NEAT
    0169601998 QS52}(16960) J98Q52S1998 QS52 0.31 4.091 0.01786 14.42 20240331 248.3 243.252 260.156 17.516 0.859 2.2 25 E2023-W66 1998 08 25 704 LINEAR
    0171811999 UM3}(17181) J99U03M1999 UM3 0.773 3.967 0.07126 16.78 20240331 221.9 36.782 113.562 10.653 0.674 2.37 13 E2024-D82 1999 10 19 704 LINEAR
    0171821999 VU}(17182) J99V00U1999 VU 0.62 2.155 0.14365 17.14 20240331 265.0 203.213 333.491 9.265 0.553 1.387 19 E2024-EC3 1999 11 01 704 LINEAR
    0171881999 WC2}(17188) J99W02C1999 WC2 0.804 3.627 0.06317 16.40 20240331 112.6 287.256 269.769 29.453 0.637 2.216 17 E2024-A55 1999 11 17 704 LINEAR
    0175111992 QN}(17511) J92Q00N1992 QN 0.763 1.617 0.13198 17.32 20240331 219.0 202.426 355.899 9.581 0.359 1.19 16 E2024-A48 1992 08 29 675 Helin, E. F., Alu, J.
    0202361998 BZ7}(20236) J98B07Z1998 BZ7 0.893 3.174 0.04987 17.70 20240331 334.7 104.578 111.234 6.506 0.561 2.034 14 E2024-J61 1998 01 24 566 NEAT
    0204251998 VD35}(20425) J98V35D1998 VD35 0.819 2.31 0.00353 20.51 20240331 292.0 296.311 227.253 6.989 0.476 1.565 4 MPO691875 1998 11 15 691 Spacewatch
    0204291998 YN1}(20429) J98Y01N1998 YN1 0.834 2.278 0.05669 17.73 20240331 300.8 147.722 61.729 6.302 0.464 1.556 18 E2024-DD6 1998 12 16 704 LINEAR
    0208262000 UV13}(20826) K00U13V2000 UV13 0.88 3.957 0.09084 13.89 20240331 40.9 198.711 347.285 31.917 0.636 2.418 21 E2024-K42 2000 10 21 300 BATTeRS
    0220992000 EX106}(22099) K00EA6X2000 EX106 0.799 1.41 0.16785 18.09 20240331 150.3 186.569 136.435 9.845 0.276 1.104 16 E2024-FA5 2000 03 14 703 CSS
    0227531998 WT}(22753) J98W00T1998 WT 0.524 1.914 0.03362 17.69 20240331 18.9 324.765 307.387 3.204 0.57 1.219 21 E2023-Y86 1998 11 16 704 LINEAR
    0227711999 CU3}(22771) J99C03U1999 CU3 0.75 2.402 0.06305 16.96 20240331 157.3 305.819 338.92 11.401 0.524 1.576 26 E2024-A05 1999 02 10 704 LINEAR
    0231872000 PN9}(23187) K00P09N2000 PN9 0.759 2.936 0.01351 16.06 20240331 89.0 293.52 164.305 51.326 0.589 1.847 20 E2024-JR7 2000 08 08 704 LINEAR
    0244432000 OG}(24443) K00O00G2000 OG 0.41 4.212 0.15078 16.42 20240331 251.3 231.204 178.092 25.744 0.822 2.311 13 MPO727802 2000 07 21 704 LINEAR
    0247611993 BW2}(24761) Ahau J93B02W1993 BW2 0.927 1.743 0.10105 17.38 20240331 118.2 287.538 121.048 21.923 0.306 1.335 15 E2024-JU2 1993 01 28 675 Shoemaker, C. S., Shoemaker, E.
    0251431998 SF36}(25143) Itokawa J98S36F1998 SF36 0.953 1.695 0.01307 19.26 20240331 13.2 162.821 69.076 1.621 0.28 1.324 10 MPO691964 1998 09 26 704 LINEAR
    0253301999 KV4}(25330) J99K04V1999 KV4 0.97 2.112 0.17382 16.75 20240331 26.0 86.097 50.523 14.328 0.371 1.541 16 E2024-K27 1999 05 17 703 CSS
    0263791999 HZ1}(26379) J99H01Z1999 HZ1 0.681 2.532 0.13056 18.20 20240331 143.0 200.592 252.1 8.68 0.576 1.606 12 E2024-C82 1999 04 20 704 LINEAR
    0266632000 XK47}(26663) K00X47K2000 XK47 0.817 2.276 0.03438 18.19 20240331 6.2 231.239 303.591 13.528 0.472 1.546 16 E2024-K36 2000 12 15 704 LINEAR
    0270021998 DV9}(27002) J98D09V1998 DV9 0.988 2.5 0.00382 18.31 20240331 118.0 0.822 130.336 8.697 0.433 1.744 14 MPO719467 1998 02 23 568 Tholen, D. J., Whiteley, R. J.
    0290751950 DA}(29075) J50D00A1950 DA 0.836 2.561 0.04011 17.29 20240331 134.3 224.696 356.641 12.166 0.508 1.698 17 E2024-H69 1950 02 22 662 Wirtanen, C. A.
    0308251990 TG1}(30825) J90T01G1990 TG1 0.777 4.096 0.0698 14.75 20240331 348.6 33.674 205.021 8.739 0.681 2.437 24 E2024-K33 1990 10 14 691 Spacewatch
    0309971995 UO5}(30997) J95U05O1995 UO5 0.556 2.563 0.40368 17.30 20240331 105.1 151.172 38.616 36.26 0.643 1.56 15 MPO727882 1995 10 26 691 Spacewatch
    0316621999 HP11}(31662) J99H11P1999 HP11 0.722 2.473 0.12406 19.54 20240331 61.2 312.037 13.943 18.817 0.548 1.598 9 E2023-F72 1999 04 19 691 Spacewatch
    0316691999 JT6}(31669) J99J06T1999 JT6 0.903 3.371 0.00026 16.08 20240331 34.3 39.093 78.768 9.538 0.578 2.137 14 E2024-K33 1999 05 12 704 LINEAR
    0351071991 VH}(35107) J91V00H1991 VH 0.973 1.301 0.02566 16.91 20240331 298.0 206.95 139.341 13.911 0.144 1.137 6 MPO727939 1991 11 09 413 McNaught, R. H.
    0353961997 XF11}(35396) J97X11F1997 XF11 0.744 2.14 0.00049 17.01 20240331 158.3 103.043 213.654 4.1 0.484 1.442 19 E2024-JQ5 1997 12 06 691 Spacewatch
    0356701998 SU27}(35670) J98S27U1998 SU27 0.857 3.388 0.0724 19.57 20240331 66.7 169.838 271.334 7.141 0.596 2.122 3 MPO692163 1998 09 24 704 LINEAR
    0362361999 VV}(36236) J99V00V1999 VV 0.768 1.897 0.2292 15.98 20240331 72.4 19.769 241.07 58.043 0.424 1.332 18 MPO727955 1999 11 01 704 LINEAR
    0362842000 DM8}(36284) K00D08M2000 DM8 0.662 2.307 0.26705 15.05 20240331 19.4 317.953 323.162 46.761 0.554 1.484 20 E2023-Y63 2000 02 27 704 LINEAR
    0376381993 VB}(37638) J93V00B1993 VB 0.919 2.908 0.00053 19.28 20240331 162.1 323.192 145.565 5.077 0.52 1.913 7 E2023-WD3 1993 11 06 413 McNaught, R. H.
    0376551994 PM}(37655) Illapa J94P00M1994 PM 0.366 2.59 0.02492 17.85 20240331 145.3 303.887 139.532 18.029 0.752 1.478 15 MPO692200 1994 08 01 675 Shoemaker, C. S., Shoemaker, E.
    0380861999 JB}(38086) Beowulf J99J00B1999 JB 0.616 2.224 0.38452 17.35 20240331 200.4 178.967 165.325 23.672 0.566 1.42 19 E2024-GF4 1999 05 05 699 LONEOS
    0382391999 OR3}(38239) J99O03R1999 OR3 0.865 3.21 0.05417 18.26 20240331 201.5 28.326 199.885 9.42 0.576 2.038 8 MPO692211 1999 07 27 704 LINEAR
    0402671999 GJ4}(40267) J99G04J1999 GJ4 0.256 2.421 0.15634 15.56 20240331 269.2 211.955 148.212 34.481 0.808 1.339 29 E2024-JU2 1999 04 10 704 LINEAR
    0414292000 GE2}(41429) K00G02E2000 GE2 0.708 2.477 0.01088 20.66 20240331 304.8 297.202 351.917 2.173 0.555 1.593 19 E2024-EA9 2000 04 03 704 LINEAR
    0422862001 TN41}(42286) K01T41N2001 TN41 0.863 1.976 0.11057 16.65 20240331 352.0 150.969 55.821 24.08 0.392 1.419 14 E2024-K42 2001 10 14 704 LINEAR
    0527501998 KK17}(52750) J98K17K1998 KK17 0.678 2.176 0.16211 16.68 20240331 111.3 334.143 141.314 11.171 0.525 1.427 21 E2024-H69 1998 05 29 704 LINEAR
    0527601998 ML14}(52760) J98M14L1998 ML14 0.907 3.911 0.01666 17.50 20240331 294.4 20.352 338.687 2.425 0.623 2.409 10 E2024-JQ5 1998 06 24 704 LINEAR
    0527621998 MT24}(52762) J98M24T1998 MT24 0.838 3.994 0.13869 14.81 20240331 336.7 254.531 308.942 33.862 0.653 2.416 18 E2024-J18 1998 06 29 704 LINEAR
    0533191999 JM8}(53319) J99J08M1999 JM8 0.977 4.47 0.02482 15.36 20240331 184.9 166.808 133.624 13.839 0.641 2.723 16 E2024-C46 1999 05 13 704 LINEAR
    0534091999 LU7}(53409) J99L07U1999 LU7 0.781 3.421 0.08676 18.73 20240331 19.9 147.776 206.688 10.878 0.628 2.101 8 MPO692497 1999 06 10 703 CSS
    0534261999 SL5}(53426) J99S05L1999 SL5 0.888 2.96 0.0246 17.19 20240331 94.1 43.367 239.062 22.772 0.538 1.924 11 E2024-AE1 1999 09 28 704 LINEAR
    0534291999 TF5}(53429) J99T05F1999 TF5 0.726 3.318 0.04913 18.94 20240331 213.0 64.06 199.183 26.781 0.641 2.022 4 E2023-R01 1999 10 03 704 LINEAR
    0535502000 BF19}(53550) K00B19F2000 BF19 0.868 2.123 0.04588 19.06 20240331 319.4 324.904 313.196 7.175 0.42 1.495 13 E2024-JA9 2000 01 28 691 Spacewatch
    0545092000 PH5}(54509) YORP K00P05H2000 PH5 0.775 1.237 0.00059 22.66 20240331 264.0 278.996 278.191 1.599 0.23 1.006 6 MPO692518 2000 08 03 704 LINEAR
    0554082001 TC2}(55408) K01T02C2001 TC2 0.853 1.347 0.14609 18.82 20240331 35.5 353.57 193.828 30.392 0.225 1.1 9 E2023-P11 2001 10 11 704 LINEAR
    0555322001 WG2}(55532) K01W02G2001 WG2 0.546 3.042 0.33822 16.14 20240331 52.2 132.391 81.408 38.546 0.696 1.794 15 MPO728181 2001 11 18 704 LINEAR
    0656901991 DG}(65690) J91D00G1991 DG 0.909 1.946 0.03884 19.06 20240331 96.8 63.316 180.118 11.144 0.363 1.428 15 MPO728307 1991 02 20 413 McNaught, R. H.
    0657331993 PC}(65733) J93P00C1993 PC 0.607 1.702 0.06595 18.43 20240331 77.0 168.726 336.901 4.145 0.474 1.154 18 E2024-JM0 1993 08 15 691 Spacewatch
    0659091998 FH12}(65909) J98F12H1998 FH12 0.502 1.68 0.0128 19.30 20240331 24.0 284.507 108.596 3.56 0.54 1.091 16 MPO745323 1998 03 25 704 LINEAR
    0660081998 QH2}(66008) J98Q02H1998 QH2 0.909 1.943 0.07642 15.99 20240331 154.5 14.014 168.93 61.007 0.363 1.426 18 MPO776932 1998 08 20 699 LONEOS
    0662531999 GT3}(66253) J99G03T1999 GT3 0.216 2.452 0.19385 18.40 20240331 115.5 261.111 157.354 19.499 0.838 1.334 18 E2023-N20 1999 04 09 704 LINEAR
    0673812000 OL8}(67381) K00O08L2000 OL8 0.604 2.038 0.01789 19.80 20240331 268.1 266.946 294.847 10.668 0.543 1.321 8 MPO776947 2000 07 30 704 LINEAR
    0673992000 PJ6}(67399) K00P06J2000 PJ6 0.851 1.752 0.05134 18.40 20240331 73.5 225.325 332.861 14.689 0.346 1.301 14 MPO692761 2000 08 03 704 LINEAR
    0682162001 CV26}(68216) K01C26V2001 CV26 0.889 1.751 0.02342 16.62 20240331 171.8 48.733 18.136 17.994 0.327 1.32 12 E2024-K27 2001 02 01 704 LINEAR
    0682672001 EA16}(68267) K01E16A2001 EA16 0.865 2.155 0.05805 17.04 20240331 56.9 317.446 8.005 38.827 0.427 1.51 13 MPO745323 2001 03 04 608 NEAT
    0683462001 KZ66}(68346) K01K66Z2001 KZ66 0.879 2.136 0.03803 16.93 20240331 27.3 140.298 219.37 16.697 0.417 1.507 18 MPO745323 2001 05 29 608 NEAT
    0683482001 LO7}(68348) K01L07O2001 LO7 0.343 3.967 0.38536 14.26 20240331 350.5 181.652 236.223 25.365 0.841 2.155 28 E2023-RF8 2001 06 15 704 LINEAR
    0683722001 PM9}(68372) K01P09M2001 PM9 0.945 2.291 0.00489 18.97 20240331 62.2 322.32 252.964 8.106 0.416 1.618 12 MPO720056 2001 08 11 644 NEAT
    0685482001 XR31}(68548) K01X31R2001 XR31 0.962 2.453 0.02515 16.57 20240331 98.1 24.728 302.024 22.714 0.437 1.707 13 E2024-EF2 2001 12 13 704 LINEAR
    0689502002 QF15}(68950) K02Q15F2002 QF15 0.693 1.421 0.00598 16.39 20240331 233.2 255.571 236.207 25.153 0.344 1.057 18 MPO728345 2002 08 27 704 LINEAR
    0692301937 UB}(69230) Hermes J37U00B1937 UB 0.623 2.687 0.00461 17.68 20240331 186.8 92.899 34.056 6.068 0.624 1.655 15 E2024-A55 1937 10 28 024 Reinmuth, K.
    0851821991 AQ}(85182) J91A00Q1991 AQ 0.493 3.947 0.01603 17.13 20240331 359.7 243.227 339.403 3.12 0.778 2.22 15 E2024-J08 1991 01 14 675 Helin, E. F.
    0852361993 KH}(85236) J93K00H1993 KH 0.85 1.618 0.00118 18.75 20240331 108.8 293.829 54.363 12.807 0.311 1.234 15 E2024-BD1 1993 05 24 413 McNaught, R. H.
    0855851998 FG2}(85585) Mjolnir J98F02G1998 FG2 0.835 1.76 0.0214 21.64 20240331 264.2 95.423 2.307 4.083 0.356 1.298 4 MPO693104 1998 03 21 683 Tucker, R. A.
    0856401998 OX4}(85640) J98O04X1998 OX4 0.812 2.348 0.00091 21.14 20240331 276.0 117.296 299.57 4.516 0.486 1.58 11 MPO693105 1998 07 26 691 Spacewatch
    0857131998 SS49}(85713) J98S49S1998 SS49 0.695 3.152 0.00444 15.78 20240331 165.7 103.132 40.958 10.785 0.639 1.923 21 E2024-A26 1998 09 29 704 LINEAR
    0857741998 UT18}(85774) J98U18T1998 UT18 0.942 1.864 0.03669 19.11 20240331 60.0 50.154 64.621 13.588 0.329 1.403 9 E2024-K42 1998 10 27 703 CSS
    0858181998 XM4}(85818) J98X04M1998 XM4 0.967 2.346 0.10926 15.46 20240331 214.1 301.228 235.643 62.72 0.416 1.657 18 MPO777178 1998 12 10 704 LINEAR
    0859381999 DJ4}(85938) J99D04J1999 DJ4 0.955 2.75 0.02429 18.73 20240331 323.8 197.797 19.869 9.141 0.485 1.853 13 E2024-JM0 1999 02 24 704 LINEAR
    0859901999 JV6}(85990) J99J06V1999 JV6 0.695 1.322 0.03156 20.27 20240331 117.5 235.573 124.308 5.359 0.311 1.008 25 E2024-BE9 1999 05 13 704 LINEAR
    0860391999 NC43}(86039) J99N43C1999 NC43 0.741 2.779 0.02457 15.97 20240331 132.9 120.788 311.634 7.132 0.579 1.76 16 E2024-CB5 1999 07 14 704 LINEAR
    0866662000 FL10}(86666) K00F10L2000 FL10 0.838 2.088 0.08206 16.92 20240331 249.8 258.87 186.909 29.013 0.427 1.463 19 E2023-R01 2000 03 30 703 CSS
    0868192000 GK137}(86819) K00GD7K2000 GK137 0.986 3.005 0.01697 17.47 20240331 142.5 150.307 164.879 10.063 0.506 1.995 15 MPO693128 2000 04 13 704 LINEAR
    0868292000 GR146}(86829) K00GE6R2000 GR146 0.622 2.304 0.20274 15.83 20240331 242.0 31.415 78.462 14.373 0.575 1.463 18 E2024-A55 2000 04 12 704 LINEAR
    0868782000 HD24}(86878) K00H24D2000 HD24 0.512 2.172 0.10285 17.68 20240331 187.3 214.915 230.987 9.473 0.619 1.342 13 E2024-C40 2000 04 30 608 NEAT
    0870242000 JS66}(87024) K00J66S2000 JS66 0.97 1.424 0.09662 18.73 20240331 7.0 84.926 230.504 14.435 0.19 1.197 7 E2024-CG3 2000 05 05 704 LINEAR
    0870252000 JT66}(87025) K00J66T2000 JT66 0.633 1.819 0.35002 18.14 20240331 261.2 359.613 120.493 25.319 0.484 1.226 12 E2023-XA2 2000 05 07 699 LONEOS
    0873112000 QJ1}(87311) K00Q01J2000 QJ1 0.776 2.405 0.10853 16.52 20240331 34.3 343.533 191.42 7.697 0.512 1.59 26 E2024-A55 2000 08 21 699 LONEOS
    0882542001 FM129}(88254) K01FC9M2001 FM129 0.438 1.927 0.01004 17.77 20240331 13.3 140.22 272.117 1.523 0.63 1.182 19 E2024-J40 2001 03 31 704 LINEAR
    0887102001 SL9}(88710) K01S09L2001 SL9 0.775 1.348 0.19753 17.67 20240331 63.0 329.377 202.832 21.903 0.27 1.061 11 E2024-A55 2001 09 18 644 NEAT
    0889592001 TZ44}(88959) K01T44Z2001 TZ44 0.752 2.695 0.05091 17.45 20240331 291.0 114.923 38.956 53.836 0.564 1.724 8 MPO728549 2001 10 14 704 LINEAR
    0899582002 LY45}(89958) K02L45Y2002 LY45 0.186 3.097 0.00041 17.21 20240331 92.4 222.921 188.17 9.908 0.886 1.642 20 E2024-JF3 2002 06 14 704 LINEAR
    0899592002 NT7}(89959) K02N07T2002 NT7 0.818 2.652 0.00023 16.58 20240331 120.4 300.697 132.012 42.353 0.528 1.735 18 E2024-JT6 2002 07 09 704 LINEAR
    0900752002 VU94}(90075) K02V94U2002 VU94 0.906 3.364 0.03 15.37 20240331 65.3 30.68 226.738 8.911 0.576 2.135 21 E2023-YA3 2002 11 13 644 NEAT
    0901472002 YK14}(90147) K02Y14K2002 YK14 0.985 1.963 0.18814 18.31 20240331 330.5 105.081 282.687 27.995 0.332 1.474 9 E2024-EC3 2002 12 31 704 LINEAR
    0903672003 LC5}(90367) K03L05C2003 LC5 0.663 1.648 0.15188 17.95 20240331 173.5 313.855 86.821 16.882 0.426 1.156 17 E2024-K27 2003 06 06 704 LINEAR
    0904032003 YE45}(90403) K03Y45E2003 YE45 0.889 1.58 0.03647 17.78 20240331 197.4 306.83 286.228 19.006 0.28 1.234 14 E2024-A48 2003 12 21 703 CSS
    0904162003 YK118}(90416) K03YB8K2003 YK118 0.86 2.53 0.00176 18.86 20240331 27.8 233.295 326.763 7.827 0.492 1.695 15 E2023-WC7 2003 12 28 704 LINEAR
    0963151997 AP10}(96315) J97A10P1997 AP10 0.515 2.371 0.11044 17.05 20240331 97.0 356.286 293.034 6.651 0.643 1.443 22 E2024-AE1 1997 01 09 691 Spacewatch
    0965361998 SO10}(96536) J98S10O1998 SO10 0.513 4.095 0.4517 15.45 20240331 160.2 22.615 199.493 41.222 0.777 2.304 20 E2023-XQ1 1998 09 19 699 LONEOS
    0967441999 OW3}(96744) J99O03W1999 OW3 0.461 3.727 0.36407 14.78 20240331 121.5 35.759 196.09 34.874 0.78 2.094 22 E2024-A34 1999 07 18 568 Tholen, D. J., Whiteley, R. J.
    0989432001 CC21}(98943) K01C21C2001 CC21 0.806 1.259 0.08304 18.74 20240331 296.8 179.431 75.455 4.808 0.219 1.032 11 E2024-DC9 2001 02 03 704 LINEAR
    0992482001 KY66}(99248) K01K66Y2001 KY66 0.92 2.814 0.04759 16.56 20240331 282.5 61.571 284.114 10.61 0.507 1.867 18 E2024-K33 2001 05 29 644 NEAT
    0999352002 AV4}(99935) K02A04V2002 AV4 0.588 2.721 0.16789 16.14 20240331 258.4 322.992 16.339 12.771 0.645 1.654 24 E2024-J99 2002 01 08 704 LINEAR
    1000041983 VA}(100004) J83V00A1983 VA 0.771 4.411 0.17327 16.49 20240331 206.1 13.717 76.297 15.703 0.703 2.591 8 E2023-R01 1983 11 01 500 IRAS
    1018691999 MM}(101869) J99M00M1999 MM 0.632 2.616 0.00143 19.47 20240331 317.5 268.837 110.924 4.765 0.611 1.624 8 MPO693412 1999 06 20 699 LONEOS
    1019551999 RQ36}(101955) Bennu J99R36Q1999 RQ36 0.897 1.355 0.00253 20.69 20240331 132.5 66.37 1.988 6.033 0.204 1.126 7 MPO777369 1999 09 11 704 LINEAR
    1030671999 XA143}(103067) J99XE3A1999 XA143 0.772 2.916 0.04169 16.83 20240331 210.6 104.064 116.551 38.545 0.581 1.844 14 MPO777380 1999 12 14 704 LINEAR
    1065382000 WK63}(106538) K00W63K2000 WK63 0.567 4.272 0.12544 16.28 20240331 20.1 41.768 163.376 10.334 0.766 2.42 16 E2023-XA2 2000 11 26 704 LINEAR
    1065892000 WN107}(106589) K00WA7N2000 WN107 0.821 3.471 0.13842 16.02 20240331 90.4 11.835 163.36 14.369 0.618 2.146 19 E2024-A34 2000 11 29 608 NEAT
    1089062001 PL9}(108906) K01P09L2001 PL9 0.79 1.681 0.19231 17.90 20240331 319.8 344.021 172.054 20.926 0.36 1.235 14 E2024-A34 2001 08 11 644 NEAT
    1112532001 XU10}(111253) K01X10U2001 XU10 0.983 2.524 0.02917 15.28 20240331 337.4 6.959 310.15 42.017 0.439 1.754 15 E2024-JO9 2001 12 09 704 LINEAR
    1366171994 CC}(136617) J94C00C1994 CC 0.955 2.32 0.01589 17.97 20240331 9.6 24.891 268.512 4.68 0.417 1.638 17 MPO729051 1994 02 03 691 Spacewatch
    1366181994 CN2}(136618) J94C02N1994 CN2 0.952 2.194 0.0126 16.87 20240331 240.2 248.28 99.336 1.439 0.395 1.573 18 E2024-K27 1994 02 15 691 Spacewatch
    1367931997 AQ18}(136793) J97A18Q1997 AQ18 0.613 1.681 0.18662 18.35 20240331 152.0 37.039 296.247 17.373 0.465 1.147 17 E2024-DC2 1997 01 15 595 Farra d'Isonzo
    1367951997 BQ}(136795) Tatsunokingo J97B00Q1997 BQ 0.912 2.583 0.03534 18.11 20240331 255.4 147.537 50.136 10.993 0.478 1.748 14 MPO777754 1997 01 16 381 Hasegawa, T.
    1368491998 CS1}(136849) J98C01S1998 CS1 0.628 2.354 0.01959 17.72 20240331 96.4 97.782 110.696 7.79 0.579 1.491 16 E2023-D63 1998 02 09 327 Beijing Schmidt CCD Asteroid Pr
    1368741998 FH74}(136874) J98F74H1998 FH74 0.255 4.149 0.23558 15.75 20240331 34.4 193.393 197.539 21.165 0.884 2.202 23 E2024-J99 1998 03 31 704 LINEAR
    1369001998 HL49}(136900) J98H49L1998 HL49 0.635 2.86 0.0837 17.39 20240331 162.9 239.235 205.953 10.98 0.637 1.748 14 MPO745323 1998 04 30 691 Spacewatch
    1369931998 ST49}(136993) J98S49T1998 ST49 0.934 3.684 0.05528 17.85 20240331 84.8 48.063 18.214 24.486 0.596 2.309 5 E2023-D63 1998 09 29 704 LINEAR
    1370321998 UO1}(137032) J98U01O1998 UO1 0.377 2.814 0.05899 16.67 20240331 272.6 252.531 358.379 25.487 0.764 1.595 19 MPO777756 1998 10 19 704 LINEAR
    1370521998 VO33}(137052) Tjelvar J98V33O1998 VO33 0.238 2.258 0.06856 17.06 20240331 111.8 209.91 64.275 14.908 0.81 1.248 24 E2024-F14 1998 11 15 809 Lagerkvist, C.-I.
    1370621998 WM}(137062) J98W00M1998 WM 0.838 1.611 0.16874 16.77 20240331 125.4 172.565 45.624 22.518 0.315 1.225 14 E2024-C37 1998 11 16 704 LINEAR
    1370781998 XZ4}(137078) J98X04Z1998 XZ4 0.701 3.175 0.29969 16.42 20240331 170.1 9.649 324.442 23.153 0.638 1.938 21 E2024-D82 1998 12 11 704 LINEAR
    1370841998 XS16}(137084) J98X16S1998 XS16 0.61 1.814 0.40603 16.48 20240331 170.9 358.315 272.978 26.558 0.497 1.212 24 E2024-BE9 1998 12 15 704 LINEAR
    1370991998 YW3}(137099) J98Y03W1998 YW3 0.591 1.609 0.38829 18.29 20240331 118.3 194.84 94.265 28.792 0.463 1.1 16 E2023-D63 1998 12 17 704 LINEAR
    1371081999 AN10}(137108) J99A10N1999 AN10 0.638 2.279 0.00018 18.05 20240331 65.1 268.328 314.349 39.929 0.562 1.459 10 E2023-Q13 1999 01 13 704 LINEAR
    1371201999 BJ8}(137120) J99B08J1999 BJ8 0.856 2.945 0.02309 18.30 20240331 197.7 221.924 339.542 8.978 0.55 1.9 12 MPO694077 1999 01 20 703 CSS
    1371261999 CF9}(137126) J99C09F1999 CF9 0.708 2.839 0.0185 18.14 20240331 197.4 90.439 156.934 5.544 0.601 1.773 17 E2023-W66 1999 02 12 704 LINEAR
    1371581999 FB}(137158) J99F00B1999 FB 0.464 1.896 0.19754 17.92 20240331 259.9 3.056 37.091 12.897 0.607 1.18 17 MPO694077 1999 03 16 704 LINEAR
    1371751999 JA11}(137175) J99J11A1999 JA11 0.831 1.692 0.106 18.34 20240331 316.5 328.342 116.223 16.431 0.341 1.262 13 E2023-N24 1999 05 14 704 LINEAR
    1374271999 TF211}(137427) J99TL1F1999 TF211 0.948 3.932 0.02692 15.29 20240331 80.8 162.38 347.913 39.484 0.611 2.44 13 E2024-A55 1999 10 15 704 LINEAR
    1379252000 BJ19}(137925) K00B19J2000 BJ19 0.305 2.278 0.38986 16.07 20240331 12.1 175.519 131.226 31.103 0.764 1.292 23 E2024-C37 2000 01 30 703 CSS
    1380132000 CN101}(138013) K00CA1N2000 CN101 0.584 2.612 0.1082 14.72 20240331 208.2 118.697 183.352 15.977 0.635 1.598 20 E2024-G77 2000 02 08 704 LINEAR
    1381752000 EE104}(138175) K00EA4E2000 EE104 0.71 1.298 0.0088 20.47 20240331 216.7 280.879 25.503 5.237 0.293 1.004 26 E2024-BH3 2000 03 11 703 CSS
    1383252000 GO82}(138325) K00G82O2000 GO82 0.422 3.902 0.37172 16.68 20240331 160.3 164.455 173.33 25.741 0.805 2.162 15 E2023-BL1 2000 04 03 704 LINEAR
    1383592000 GX127}(138359) K00GC7X2000 GX127 0.729 1.554 0.26071 17.98 20240331 23.9 4.742 43.984 20.24 0.361 1.141 13 MPO777770 2000 04 10 691 Spacewatch
    1384042000 HA24}(138404) K00H24A2000 HA24 0.776 1.501 0.02736 19.40 20240331 337.6 142.196 309.358 2.164 0.319 1.139 12 MPO745323 2000 04 28 704 LINEAR
    1387272000 SU180}(138727) K00SI0U2000 SU180 0.831 3.379 0.034 19.34 20240331 224.7 136.305 327.895 11.918 0.605 2.105 8 MPO694107 2000 09 27 704 LINEAR
    1388462000 VJ61}(138846) K00V61J2000 VJ61 0.951 3.415 0.1786 16.11 20240331 58.0 280.739 270.318 18.686 0.565 2.183 17 E2023-D63 2000 11 02 704 LINEAR
    1388522000 WN10}(138852) K00W10N2000 WN10 0.703 1.3 0.12576 20.31 20240331 221.2 225.372 60.858 21.515 0.298 1.002 18 E2024-A34 2000 11 20 704 LINEAR
    1388592000 WN63}(138859) K00W63N2000 WN63 0.737 2.41 0.14099 18.98 20240331 205.6 144.426 55.865 13.157 0.532 1.573 19 E2023-R58 2000 11 27 691 Spacewatch
    1388772000 XG47}(138877) K00X47G2000 XG47 0.978 3.301 0.10143 16.78 20240331 125.5 127.655 43.793 25.319 0.543 2.14 6 E2023-P06 2000 12 15 704 LINEAR
    1388932000 YH66}(138893) K00Y66H2000 YH66 0.301 2.045 0.16459 18.17 20240331 31.8 341.369 265.25 18.352 0.744 1.173 19 E2024-A48 2000 12 30 704 LINEAR
    1389372001 BK16}(138937) K01B16K2001 BK16 0.668 3.478 0.06047 17.84 20240331 301.0 252.454 98.832 31.81 0.678 2.073 17 E2024-JU2 2001 01 19 704 LINEAR
    1389472001 BA40}(138947) K01B40A2001 BA40 0.835 1.403 0.18122 18.82 20240331 91.2 0.059 270.865 12.845 0.254 1.119 10 MPO694111 2001 01 23 608 NEAT
    1389712001 CB21}(138971) K01C21B2001 CB21 0.689 1.378 0.02378 18.52 20240331 288.3 271.929 353.67 7.919 0.333 1.034 16 E2024-H69 2001 02 02 704 LINEAR
    1392892001 KR1}(139289) K01K01R2001 KR1 0.2 2.319 0.17814 17.75 20240331 8.7 291.477 102.714 23.263 0.841 1.26 17 MPO745323 2001 05 18 699 LONEOS
    1393452001 KA67}(139345) K01K67A2001 KA67 0.538 3.072 0.26255 16.75 20240331 171.9 38.005 108.341 22.278 0.702 1.805 13 E2024-A34 2001 05 30 699 LONEOS
    1393592001 ME1}(139359) K01M01E2001 ME1 0.342 4.925 0.01319 16.53 20240331 92.7 302.379 84.582 5.955 0.87 2.634 11 E2024-GI3 2001 06 16 704 LINEAR
    1396222001 QQ142}(139622) K01QE2Q2001 QQ142 0.98 1.861 0.0119 18.46 20240331 74.4 337.938 83.166 9.339 0.31 1.421 10 E2024-J40 2001 08 25 608 NEAT
    1400392001 SO73}(140039) K01S73O2001 SO73 0.786 2.856 0.04581 18.08 20240331 142.8 30.946 197.184 4.856 0.568 1.821 15 E2023-XF2 2001 09 19 691 Spacewatch
    1401582001 SX169}(140158) K01SG9X2001 SX169 0.726 1.968 0.02599 18.48 20240331 328.3 42.731 126.785 2.517 0.461 1.347 15 E2024-K25 2001 09 19 704 LINEAR
    1402882001 SN289}(140288) K01SS9N2001 SN289 0.878 2.691 0.0175 16.74 20240331 261.7 225.639 357.062 53.191 0.508 1.784 14 MPO694136 2001 09 29 644 NEAT
    1410522001 XR1}(141052) K01X01R2001 XR1 0.56 1.931 0.10294 17.49 20240331 281.0 304.207 291.471 17.666 0.55 1.245 19 E2024-BE9 2001 12 09 704 LINEAR
    1410532001 XT1}(141053) K01X01T2001 XT1 0.643 2.414 0.04127 18.86 20240331 323.6 31.392 316.215 2.73 0.579 1.528 16 E2023-R01 2001 12 09 704 LINEAR
    1410792001 XS30}(141079) K01X30S2001 XS30 0.2 2.129 0.30294 17.76 20240331 148.9 0.888 251.443 28.545 0.828 1.165 21 E2024-A48 2001 12 11 704 LINEAR
    1414952002 EZ11}(141495) K02E11Z2002 EZ11 0.22 2.008 0.00093 18.47 20240331 27.1 317.778 51.88 2.355 0.802 1.114 18 E2024-G95 2002 03 15 644 NEAT
    1415252002 FV5}(141525) K02F05V2002 FV5 0.299 1.875 0.03531 18.07 20240331 77.2 308.115 38.837 34.039 0.725 1.087 14 E2023-G18 2002 03 21 704 LINEAR
    1415262002 FA6}(141526) K02F06A2002 FA6 0.687 1.34 0.31486 20.20 20240331 67.9 173.397 174.668 30.102 0.322 1.014 7 MPO694160 2002 03 21 699 LONEOS
    1415272002 FG7}(141527) K02F07G2002 FG7 0.565 2.462 0.0413 18.94 20240331 336.7 247.685 187.483 9.204 0.627 1.513 13 MPO694160 2002 03 28 608 NEAT
    1415932002 HK12}(141593) K02H12K2002 HK12 0.943 3.06 0.0239 18.32 20240331 231.6 2.258 306.988 2.349 0.529 2.001 12 E2023-D63 2002 04 30 644 NEAT
    1416142002 JV15}(141614) K02J15V2002 JV15 0.753 2.494 0.03936 19.52 20240331 173.7 127.402 200.617 7.186 0.536 1.624 8 MPO694161 2002 05 08 704 LINEAR
    1418512002 PM6}(141851) K02P06M2002 PM6 0.18 2.216 0.03854 17.81 20240331 220.7 224.528 304.007 19.136 0.85 1.198 20 E2024-BD6 2002 08 06 704 LINEAR
    1434042003 BD44}(143404) K03B44D2003 BD44 0.774 3.163 0.01777 16.95 20240331 170.9 89.314 181.217 2.663 0.607 1.968 18 E2024-A65 2003 01 30 699 LONEOS
    1434872003 CR20}(143487) K03C20R2003 CR20 0.574 3.674 0.00043 18.94 20240331 266.3 88.816 177.07 4.99 0.73 2.124 7 MPO694197 2003 02 11 608 NEAT
    1436242003 HM16}(143624) K03H16M2003 HM16 0.832 3.103 0.05098 15.96 20240331 191.1 47.119 195.889 35.552 0.577 1.967 15 E2024-A65 2003 04 27 704 LINEAR
    1436372003 LP6}(143637) K03L06P2003 LP6 0.203 3.29 0.34048 16.58 20240331 342.1 260.69 144.482 43.569 0.884 1.746 16 E2023-XA2 2003 06 12 704 LINEAR
    1436492003 QQ47}(143649) K03Q47Q2003 QQ47 0.882 1.288 0.00294 17.39 20240331 359.8 104.96 0.988 62.101 0.187 1.085 8 E2023-R01 2003 08 24 704 LINEAR
    1439472003 YQ117}(143947) K03YB7Q2003 YQ117 0.753 3.61 0.10303 15.37 20240331 164.7 135.735 217.484 21.035 0.655 2.181 17 E2024-JM0 2003 12 26 608 NEAT
    1439922004 AF}(143992) K04A00F2004 AF 0.879 3.063 0.03326 16.16 20240331 134.1 57.969 315.631 27.132 0.554 1.971 13 E2024-J18 2004 01 05 704 LINEAR
    1444112004 EW9}(144411) K04E09W2004 EW9 0.894 2.94 0.09031 16.55 20240331 145.5 8.198 288.788 8.792 0.534 1.917 18 E2024-A34 2004 03 15 644 NEAT
    1448612004 LA12}(144861) K04L12A2004 LA12 0.63 4.389 0.35568 15.43 20240331 297.3 199.485 159.2 39.405 0.749 2.51 19 E2024-JU2 2004 06 14 644 NEAT
    1448982004 VD17}(144898) K04V17D2004 VD17 0.62 2.395 0.00162 18.89 20240331 199.8 90.987 223.978 4.224 0.589 1.508 14 E2024-CB5 2004 11 07 704 LINEAR
    1449012004 WG1}(144901) K04W01G2004 WG1 0.784 2.496 0.0553 17.53 20240331 177.2 232.472 41.986 13.038 0.522 1.64 14 E2024-A34 2004 11 19 704 LINEAR
    1525601991 BN}(152560) J91B00N1991 BN 0.869 2.018 0.02078 19.23 20240331 142.8 80.986 268.81 3.445 0.398 1.443 14 E2024-E73 1991 01 19 691 Spacewatch
    1525611991 RB}(152561) J91R00B1991 RB 0.748 2.161 0.03801 19.10 20240331 167.4 68.948 359.297 19.576 0.486 1.455 7 MPO694368 1991 09 04 413 McNaught, R. H.
    1525641992 HF}(152564) J92H00F1992 HF 0.609 2.172 0.12025 19.63 20240331 108.0 128.345 213.368 13.321 0.562 1.391 11 E2024-A55 1992 04 24 691 Spacewatch
    1526641998 FW4}(152664) J98F04W1998 FW4 0.722 4.329 0.01518 19.68 20240331 214.9 85.442 353.62 3.422 0.714 2.525 12 MPO694370 1998 03 20 704 LINEAR
    1526671998 FR11}(152667) J98F11R1998 FR11 0.824 4.793 0.06403 16.42 20240331 166.8 158.564 129.856 6.668 0.706 2.809 13 MPO729198 1998 03 24 704 LINEAR
    1526711998 HL3}(152671) J98H03L1998 HL3 0.716 1.542 0.04535 20.24 20240331 121.9 188.158 163.636 2.68 0.366 1.129 13 E2024-AG5 1998 04 21 704 LINEAR
    1526801998 KJ9}(152680) J98K09J1998 KJ9 0.522 2.374 0.00571 19.51 20240331 263.5 260.116 98.543 10.929 0.64 1.448 8 E2024-JA9 1998 05 27 704 LINEAR
    1526851998 MZ}(152685) J98M00Z1998 MZ 0.575 2.117 0.0016 19.34 20240331 222.9 39.322 122.213 0.148 0.573 1.346 13 MPO745323 1998 06 18 691 Spacewatch
    1527541999 GS6}(152754) J99G06S1999 GS6 0.599 1.784 0.01891 19.29 20240331 131.8 134.963 314.423 2.02 0.497 1.191 12 MPO745323 1999 04 15 704 LINEAR
    1527561999 JV3}(152756) J99J03V1999 JV3 0.849 2.052 0.06698 18.99 20240331 35.6 101.609 229.017 15.225 0.415 1.451 11 MPO694372 1999 05 10 704 LINEAR
    1527701999 RR28}(152770) J99R28R1999 RR28 0.65 3.108 0.01634 18.41 20240331 155.4 284.562 178.174 7.14 0.654 1.879 13 MPO745323 1999 09 07 704 LINEAR
    1528281999 VT25}(152828) J99V25T1999 VT25 0.554 1.77 0.04838 21.28 20240331 96.3 319.243 221.94 5.152 0.523 1.162 9 MPO694373 1999 11 12 704 LINEAR
    1528892000 CF59}(152889) K00C59F2000 CF59 0.603 2.755 0.31574 16.53 20240331 82.4 222.465 141.757 41.555 0.641 1.679 20 E2024-J08 2000 02 05 703 CSS
    1529412000 FM10}(152941) K00F10M2000 FM10 0.473 2.49 0.12704 17.62 20240331 332.5 343.981 18.522 8.734 0.681 1.481 19 E2023-R01 2000 03 30 691 Spacewatch
    1529642000 GP82}(152964) K00G82P2000 GP82 0.847 1.946 0.09081 17.80 20240331 262.9 333.087 114.858 13.229 0.393 1.397 15 E2023-N68 2000 04 04 704 LINEAR
    1529782000 GJ147}(152978) K00GE7J2000 GJ147 0.887 1.437 0.02558 19.57 20240331 336.7 240.786 57.85 25.008 0.237 1.162 10 MPO729202 2000 04 13 699 LONEOS
    1530022000 JG5}(153002) K00J05G2000 JG5 0.273 2.408 0.02902 18.28 20240331 180.5 233.443 213.047 31.427 0.796 1.341 13 MPO694376 2000 05 02 704 LINEAR
    1531952000 WB1}(153195) K00W01B2000 WB1 0.496 2.107 0.09036 17.51 20240331 326.8 262.893 21.383 41.109 0.619 1.301 13 E2024-G02 2000 11 16 704 LINEAR
    1532202000 YN29}(153220) K00Y29N2000 YN29 0.839 4.245 0.03299 17.41 20240331 240.0 142.61 64.213 6.235 0.67 2.542 10 MPO694380 2000 12 28 691 Spacewatch
    1532432001 AU47}(153243) K01A47U2001 AU47 0.61 1.988 0.40049 17.50 20240331 316.7 9.382 311.9 35.971 0.531 1.299 15 MPO729205 2001 01 15 704 LINEAR
    1532492001 BW15}(153249) K01B15W2001 BW15 0.868 3.369 0.05843 15.57 20240331 110.9 297.977 328.864 41.23 0.59 2.118 16 MPO777936 2001 01 17 704 LINEAR
    1532672001 CB32}(153267) K01C32B2001 CB32 0.688 2.876 0.11909 17.90 20240331 284.8 330.509 75.542 9.676 0.614 1.782 10 MPO694381 2001 02 06 704 LINEAR
    1532712001 CL42}(153271) K01C42L2001 CL42 0.93 2.184 0.19196 17.41 20240331 237.9 270.835 12.038 21.653 0.403 1.557 13 E2024-FB1 2001 02 15 704 LINEAR
    1533112001 MG1}(153311) K01M01G2001 MG1 0.886 4.117 0.03883 17.40 20240331 254.3 218.511 142.343 28.405 0.646 2.502 9 MPO694382 2001 06 18 644 NEAT
    1533152001 NH6}(153315) K01N06H2001 NH6 0.681 1.794 0.09891 19.55 20240331 105.4 288.399 112.532 34.701 0.45 1.237 10 E2024-E34 2001 07 10 644 NEAT
    1533492001 PJ9}(153349) K01P09J2001 PJ9 0.65 2.95 0.05151 18.65 20240331 176.0 291.329 283.696 10.54 0.639 1.8 9 MPO777937 2001 08 10 644 NEAT
    1534602001 RN}(153460) K01R00N2001 RN 0.592 2.236 0.1398 19.71 20240331 190.1 30.407 211.456 10.091 0.581 1.414 9 MPO777938 2001 09 07 704 LINEAR
    1537922001 VH75}(153792) K01V75H2001 VH75 0.54 3.657 0.05705 18.16 20240331 88.4 246.12 274.538 10.483 0.743 2.099 12 MPO694391 2001 11 12 704 LINEAR
    1538142001 WN5}(153814) K01W05N2001 WN5 0.913 2.511 0.00159 18.29 20240331 22.5 44.679 277.354 1.919 0.467 1.712 14 E2023-CB0 2001 11 20 699 LONEOS
    1539532002 AD9}(153953) K02A09D2002 AD9 0.339 3.208 0.40951 16.84 20240331 179.2 9.798 2.579 31.022 0.809 1.773 18 E2024-G51 2002 01 09 704 LINEAR
    1539572002 AB29}(153957) K02A29B2002 AB29 0.611 4.453 0.08002 17.76 20240331 172.1 73.169 89.712 46.536 0.759 2.532 10 E2023-R01 2002 01 13 704 LINEAR
    1539582002 AM31}(153958) K02A31M2002 AM31 0.934 2.472 0.03157 18.36 20240331 78.2 197.968 144.367 4.645 0.452 1.703 14 E2024-E23 2002 01 14 704 LINEAR
    1540192002 CZ9}(154019) K02C09Z2002 CZ9 0.848 1.803 0.02556 22.07 20240331 135.4 80.833 142.864 4.971 0.36 1.325 3 MPO694396 2002 02 06 644 NEAT
    1540202002 CA10}(154020) K02C10A2002 CA10 0.632 2.45 0.15309 19.08 20240331 264.0 222.215 145.33 12.123 0.59 1.541 13 E2024-K25 2002 02 06 644 NEAT
    1540352002 CV59}(154035) K02C59V2002 CV59 0.566 1.854 0.42507 17.38 20240331 76.3 347.146 13.093 49.059 0.532 1.21 13 MPO745323 2002 02 12 291 Spacewatch
    1542292002 JN97}(154229) K02J97N2002 JN97 0.521 3.182 0.15778 16.63 20240331 281.2 341.653 67.628 10.092 0.719 1.851 18 MPO745323 2002 05 13 704 LINEAR
    1542682002 RM129}(154268) K02RC9M2002 RM129 0.809 2.214 0.17596 18.09 20240331 115.7 357.566 132.655 14.573 0.465 1.511 12 E2024-EE4 2002 09 09 644 NEAT
    1542692002 SM}(154269) K02S00M2002 SM 0.962 2.783 0.02405 17.87 20240331 223.1 217.418 10.819 14.4 0.486 1.872 13 E2023-X62 2002 09 16 644 NEAT
    1542752002 SR41}(154275) K02S41R2002 SR41 0.552 1.615 0.03606 20.13 20240331 305.0 258.197 247.769 11.575 0.491 1.084 11 E2023-N26 2002 09 30 704 LINEAR
    1542762002 SY50}(154276) K02S50Y2002 SY50 0.531 2.878 0.00404 17.64 20240331 199.5 99.672 34.039 8.746 0.689 1.705 11 MPO777946 2002 09 30 704 LINEAR
    1542782002 TB9}(154278) K02T09B2002 TB9 0.737 2.871 0.18404 16.57 20240331 225.1 322.687 196.232 29.767 0.592 1.804 16 MPO777946 2002 10 02 704 LINEAR
    1543002002 UO}(154300) K02U00O2002 UO 0.638 1.781 0.14156 19.37 20240331 104.7 184.234 90.658 8.294 0.472 1.209 12 MPO777946 2002 10 22 644 NEAT
    1543022002 UQ3}(154302) K02U03Q2002 UQ3 0.754 2.685 0.03923 17.69 20240331 143.0 280.977 222.707 28.83 0.561 1.72 13 E2023-N24 2002 10 29 678 Juels, C. W., Holvorcem, P. R.
    1543302002 VX94}(154330) K02V94X2002 VX94 0.873 2.08 0.03234 18.19 20240331 243.6 215.209 320.075 7.157 0.409 1.477 15 MPO777947 2002 11 14 644 NEAT
    1543472002 XK4}(154347) K02X04K2002 XK4 0.57 3.13 0.27008 16.08 20240331 196.1 24.987 331.648 17.746 0.692 1.85 18 E2024-J18 2002 12 04 704 LINEAR
    1544532003 CJ11}(154453) K03C11J2003 CJ11 0.425 4.74 0.34425 15.35 20240331 47.4 356.404 61.696 20.829 0.835 2.582 15 E2024-JF3 2003 02 03 699 LONEOS
    1545552003 HA}(154555) K03H00A2003 HA 0.497 1.872 0.11585 16.70 20240331 355.8 277.144 53.481 36.826 0.58 1.184 16 E2023-D35 2003 04 21 704 LINEAR
    1545902003 MA3}(154590) K03M03A2003 MA3 0.661 1.55 0.01311 21.71 20240331 247.3 228.87 152.672 1.416 0.402 1.105 8 MPO694406 2003 06 26 608 NEAT
    1546312003 WO25}(154631) K03W25O2003 WO25 0.792 2.323 0.20277 18.22 20240331 100.3 176.098 357.842 15.9 0.492 1.557 11 MPO720994 2003 11 21 644 NEAT
    1546522004 EP20}(154652) K04E20P2004 EP20 0.582 1.535 0.23574 18.92 20240331 0.3 191.357 159.574 16.176 0.451 1.058 10 MPO729219 2004 03 15 704 LINEAR
    1546562004 FE3}(154656) K04F03E2004 FE3 0.816 3.804 0.15249 16.41 20240331 202.6 338.248 339.106 22.952 0.647 2.31 14 E2024-CE5 2004 03 17 704 LINEAR
    1546582004 FA18}(154658) K04F18A2004 FA18 0.598 1.595 0.15362 19.42 20240331 29.6 318.659 29.582 19.285 0.455 1.097 10 MPO694408 2004 03 27 699 LONEOS
    1547152004 LB6}(154715) K04L06B2004 LB6 0.824 2.413 0.05792 18.54 20240331 183.0 190.626 182.762 4.099 0.491 1.619 16 MPO694409 2004 06 13 704 LINEAR
    1549882004 XN35}(154988) K04X35N2004 XN35 0.482 2.529 0.15235 18.39 20240331 191.2 189.99 132.976 9.815 0.68 1.506 16 E2024-C93 2004 12 12 703 CSS
    1549932005 EA94}(154993) K05E94A2005 EA94 0.51 2.523 0.075 17.99 20240331 99.0 309.017 104.067 10.324 0.664 1.517 16 E2024-JF3 2005 03 08 704 LINEAR
    1551102005 TB}(155110) K05T00B2005 TB 0.822 1.701 0.11153 17.49 20240331 61.2 44.765 226.176 30.384 0.348 1.261 13 MPO729223 2005 10 01 703 CSS
    1551402005 UD}(155140) K05U00D2005 UD 0.162 2.387 0.07699 17.47 20240331 329.4 207.633 19.69 28.646 0.873 1.275 18 E2024-CB5 2005 10 22 703 CSS
    1553362006 GA1}(155336) K06G01A2006 GA1 0.556 3.684 0.0722 18.41 20240331 341.6 355.3 64.337 4.194 0.738 2.12 7 MPO694420 2006 04 02 691 Spacewatch
    1553382006 MZ1}(155338) K06M01Z2006 MZ1 0.812 2.326 0.01291 20.40 20240331 340.9 138.705 226.584 2.082 0.483 1.569 4 MPO694420 2006 06 20 703 CSS
    1594592000 KB}(159459) K00K00B2000 KB 0.47 4.204 0.53036 16.33 20240331 222.2 185.38 185.366 56.179 0.799 2.337 14 E2023-F72 2000 05 22 699 LONEOS
    1595042000 WO67}(159504) K00W67O2000 WO67 0.931 3.935 0.0493 16.97 20240331 87.0 237.818 107.572 9.691 0.617 2.433 13 E2024-CG3 2000 11 27 704 LINEAR
    1596772002 HQ11}(159677) K02H11Q2002 HQ11 0.749 2.952 0.05584 19.45 20240331 286.2 322.392 153.176 6.065 0.595 1.851 6 MPO694502 2002 04 22 644 NEAT
    1596862002 LB6}(159686) K02L06B2002 LB6 0.562 3.045 0.28284 16.36 20240331 322.6 141.055 244.721 24.733 0.688 1.804 16 E2024-JF3 2002 06 07 704 LINEAR
    1596992002 PQ142}(159699) K02PE2Q2002 PQ142 0.482 2.911 0.21521 17.70 20240331 239.3 332.191 151.26 16.81 0.716 1.697 13 MPO745323 2002 08 12 704 LINEAR
    1598572004 LJ1}(159857) K04L01J2004 LJ1 0.92 3.606 0.0164 15.46 20240331 261.5 140.013 235.538 23.152 0.594 2.263 16 E2024-JU2 2004 06 10 704 LINEAR
    1599282005 CV69}(159928) K05C69V2005 CV69 0.96 2.348 0.21888 18.00 20240331 302.6 95.659 157.451 27.75 0.42 1.654 8 E2024-K25 2005 02 03 644 NEAT
    1619891978 CA}(161989) Cacus J78C00A1978 CA 0.883 1.363 0.01557 17.31 20240331 173.1 102.09 161.214 26.064 0.214 1.123 11 E2023-X02 1978 02 08 809 Schuster, H.-E.
    1620001990 OS}(162000) J90O00S1990 OS 0.902 2.455 0.00898 19.64 20240331 149.0 21.585 346.519 1.092 0.463 1.678 10 E2024-CG3 1990 07 21 675 Helin, E. F.
    1620391996 JG}(162039) J96J00G1996 JG 0.612 2.991 0.01215 19.06 20240331 164.8 280.264 52.825 5.282 0.66 1.801 7 MPO694547 1996 05 08 413 McNaught, R. H.
    1620631997 EH29}(162063) J97E29H1997 EH29 0.405 2.023 0.15101 18.94 20240331 194.1 198.664 175.114 13.013 0.667 1.214 15 E2024-H80 1997 03 07 691 Spacewatch
    1621161998 SA15}(162116) J98S15A1998 SA15 0.846 2.986 0.04671 19.54 20240331 193.4 331.432 114.175 7.111 0.558 1.916 8 MPO745323 1998 09 21 704 LINEAR
    1621201998 SH36}(162120) J98S36H1998 SH36 0.467 1.709 0.01195 20.65 20240331 105.8 278.849 217.821 2.133 0.571 1.088 8 MPO778017 1998 09 27 704 LINEAR
    1621571999 CV8}(162157) J99C08V1999 CV8 0.841 1.753 0.05708 19.95 20240331 59.7 279.334 131.971 15.266 0.352 1.297 8 MPO745323 1999 02 11 704 LINEAR
    1621621999 DB7}(162162) J99D07B1999 DB7 0.971 1.441 0.00229 19.99 20240331 321.4 29.931 157.589 10.84 0.195 1.206 7 E2023-XA2 1999 02 26 704 LINEAR
    1621731999 JU3}(162173) Ryugu J99J03U1999 JU3 0.963 1.419 0.00156 19.55 20240331 175.7 211.616 251.295 5.867 0.191 1.191 7 E2024-CG3 1999 05 10 704 LINEAR
    1621831999 NB5}(162183) J99N05B1999 NB5 0.963 3.182 0.01302 21.25 20240331 77.0 123.19 235.314 1.432 0.535 2.072 5 MPO694550 1999 07 13 704 LINEAR
    1621951999 RK45}(162195) J99R45K1999 RK45 0.363 2.833 0.08786 19.50 20240331 21.2 4.166 119.995 5.892 0.773 1.598 12 MPO694550 1999 09 13 704 LINEAR
    1622101999 SM5}(162210) J99S05M1999 SM5 0.704 3.906 0.04929 19.30 20240331 26.2 319.165 327.744 5.189 0.695 2.305 7 MPO694550 1999 09 28 704 LINEAR
    1622141999 TC10}(162214) J99T10C1999 TC10 0.962 3.684 0.11903 18.90 20240331 310.2 58.783 27.676 19.162 0.586 2.323 4 MPO694550 1999 10 08 703 CSS
    1622151999 TL12}(162215) J99T12L1999 TL12 0.609 1.554 0.25659 19.21 20240331 105.9 346.794 202.314 17.34 0.437 1.082 13 MPO694550 1999 10 10 704 LINEAR
    1622691999 VO6}(162269) J99V06O1999 VO6 0.298 1.973 0.07635 16.98 20240331 10.3 302.533 206.829 40.129 0.738 1.135 22 E2024-K36 1999 11 05 704 LINEAR
    1624162000 EH26}(162416) K00E26H2000 EH26 0.968 2.742 0.001 21.67 20240331 166.0 19.252 215.147 0.401 0.478 1.855 3 MPO694554 2000 03 04 704 LINEAR
    1624222000 EV70}(162422) K00E70V2000 EV70 0.566 1.848 0.01192 20.60 20240331 92.3 314.49 108.935 1.4 0.531 1.207 9 E2024-J18 2000 03 08 704 LINEAR
    1624332000 FK10}(162433) K00F10K2000 FK10 0.705 2.013 0.06639 19.37 20240331 2.3 247.002 41.659 13.941 0.481 1.359 13 E2023-R01 2000 03 26 704 LINEAR
    1624632000 JH5}(162463) K00J05H2000 JH5 0.873 1.419 0.10977 17.97 20240331 311.2 353.552 80.177 22.214 0.238 1.146 8 E2023-R01 2000 05 02 704 LINEAR
    1624702000 KX43}(162470) K00K43X2000 KX43 0.497 1.728 0.26925 19.24 20240331 175.1 31.783 83.737 35.266 0.553 1.113 5 MPO694555 2000 05 29 699 LONEOS
    1624742000 LB16}(162474) K00L16B2000 LB16 0.797 1.684 0.00502 18.62 20240331 20.7 285.256 80.847 50.714 0.357 1.241 10 E2023-R01 2000 06 07 704 LINEAR
    1625102000 QW69}(162510) K00Q69W2000 QW69 0.96 1.792 0.02475 17.60 20240331 329.3 220.734 344.332 38.145 0.302 1.376 9 E2024-H84 2000 08 28 704 LINEAR
    1625672000 RW37}(162567) K00R37W2000 RW37 0.935 1.559 0.008 19.97 20240331 230.7 133.292 333.29 13.747 0.25 1.247 6 MPO694557 2000 09 03 704 LINEAR
    1626792000 TK1}(162679) K00T01K2000 TK1 0.514 1.885 0.41107 18.01 20240331 179.8 167.401 13.011 29.237 0.572 1.199 12 E2024-AC4 2000 10 01 704 LINEAR
    1626872000 UH1}(162687) K00U01H2000 UH1 0.856 2.894 0.0336 18.76 20240331 16.0 40.964 76.128 14.773 0.544 1.875 7 E2024-JV1 2000 10 18 704 LINEAR
    1626952000 UL11}(162695) K00U11L2000 UL11 0.774 3.471 0.023 20.20 20240331 182.7 152.11 333.188 2.187 0.635 2.123 3 MPO694559 2000 10 25 704 LINEAR
    1627232000 VM2}(162723) K00V02M2000 VM2 0.565 2.983 0.10934 17.73 20240331 279.3 187.375 329.802 6.386 0.681 1.774 17 E2023-R58 2000 11 01 704 LINEAR
    1628252001 BO61}(162825) K01B61O2001 BO61 0.454 3.094 0.01591 17.97 20240331 255.3 79.098 159.558 9.067 0.744 1.774 13 E2023-R01 2001 01 26 704 LINEAR
    1628822001 FD58}(162882) K01F58D2001 FD58 0.464 1.721 0.03269 18.80 20240331 175.8 46.013 341.155 6.497 0.575 1.092 14 E2024-J61 2001 03 24 704 LINEAR
    1629032001 JV2}(162903) K01J02V2001 JV2 0.995 1.614 0.08707 18.63 20240331 184.3 301.228 216.895 47.494 0.237 1.304 4 MPO694563 2001 05 15 704 LINEAR
    1629112001 LL5}(162911) K01L05L2001 LL5 0.795 1.613 0.1001 19.33 20240331 169.8 205.171 281.826 7.951 0.339 1.204 9 MPO694563 2001 06 06 644 NEAT
    1629132001 MT18}(162913) K01M18T2001 MT18 0.611 1.931 0.14607 18.48 20240331 25.4 356.169 170.487 8.649 0.519 1.271 13 E2024-A34 2001 06 28 699 LONEOS
    1629222001 OY13}(162922) K01O13Y2001 OY13 0.815 1.822 0.01364 20.91 20240331 44.0 291.3 284.183 10.301 0.382 1.318 4 MPO694564 2001 07 19 699 LONEOS
    1629792001 RA12}(162979) K01R12A2001 RA12 0.929 3.144 0.02104 18.29 20240331 292.1 326.05 311.581 17.087 0.544 2.036 6 E2024-E73 2001 09 10 704 LINEAR
    1629802001 RR17}(162980) K01R17R2001 RR17 0.794 2.312 0.19757 16.77 20240331 64.9 351.502 177.606 30.398 0.489 1.553 20 MPO729299 2001 09 11 704 LINEAR
    1630142001 UA5}(163014) K01U05A2001 UA5 0.991 2.584 0.03258 17.75 20240331 125.4 27.673 58.623 9.938 0.446 1.787 9 MPO745323 2001 10 17 704 LINEAR
    1630152001 UX16}(163015) K01U16X2001 UX16 0.895 1.939 0.06382 22.07 20240331 65.7 254.57 213.372 10.618 0.368 1.417 3 MPO694565 2001 10 21 644 NEAT
    1630262001 XR30}(163026) K01X30R2001 XR30 0.823 1.771 0.02191 21.23 20240331 332.6 294.501 247.849 11.863 0.365 1.297 5 MPO778025 2001 12 11 704 LINEAR
    1630512001 YJ4}(163051) K01Y04J2001 YJ4 0.981 3.565 0.02878 16.40 20240331 151.2 322.433 247.783 9.285 0.568 2.273 15 MPO778025 2001 12 22 608 NEAT
    1630672002 AP3}(163067) K02A03P2002 AP3 0.845 3.246 0.01141 19.99 20240331 187.5 117.799 87.334 7.602 0.587 2.045 3 MPO694566 2002 01 06 644 NEAT
    1630812002 AG29}(163081) K02A29G2002 AG29 0.866 1.308 0.07694 18.57 20240331 105.1 43.924 212.838 11.501 0.203 1.087 8 MPO694567 2002 01 13 644 NEAT
    1631322002 CU11}(163132) K02C11U2002 CU11 0.86 1.58 2.0e-05 18.61 20240331 82.8 110.526 157.748 48.778 0.295 1.22 10 MPO694567 2002 02 07 704 LINEAR
    1631912002 EQ9}(163191) K02E09Q2002 EQ9 0.981 2.688 0.06238 19.43 20240331 291.6 44.385 179.097 16.288 0.465 1.835 7 E2023-XG7 2002 03 15 644 NEAT
    1632492002 GT}(163249) K02G00T2002 GT 0.894 1.794 0.01535 18.71 20240331 293.4 135.132 201.737 6.97 0.335 1.344 11 E2024-K03 2002 04 03 291 Spacewatch
    1632952002 HW}(163295) K02H00W2002 HW 0.874 4.05 0.05272 19.49 20240331 249.5 77.653 32.33 5.815 0.645 2.462 4 MPO694571 2002 04 16 704 LINEAR
    1633352002 LJ}(163335) K02L00J2002 LJ 0.442 2.213 0.50144 17.21 20240331 40.1 155.651 247.04 56.323 0.667 1.328 12 E2024-EC3 2002 06 01 704 LINEAR
    1633642002 OD20}(163364) K02O20D2002 OD20 0.862 1.869 0.02624 18.91 20240331 320.5 275.353 259.847 4.193 0.369 1.365 13 MPO778028 2002 07 21 644 NEAT
    1633732002 PZ39}(163373) K02P39Z2002 PZ39 0.666 2.272 0.00272 19.03 20240331 85.5 260.05 328.833 1.667 0.547 1.469 15 MPO745323 2002 08 10 704 LINEAR
    1634542002 RN129}(163454) K02RC9N2002 RN129 0.732 1.591 0.23605 19.11 20240331 259.9 198.656 332.11 23.121 0.37 1.162 9 MPO778029 2002 09 11 644 NEAT
    1636792002 XG84}(163679) K02X84G2002 XG84 0.79 2.2 0.07177 19.31 20240331 260.6 349.727 29.773 5.059 0.472 1.495 13 E2023-D28 2002 12 14 704 LINEAR
    1636832002 YP2}(163683) K02Y02P2002 YP2 0.492 2.662 0.02004 19.09 20240331 292.0 281.415 52.456 20.626 0.688 1.577 16 E2024-J18 2002 12 28 704 LINEAR
    1636922003 CY18}(163692) K03C18Y2003 CY18 0.9 2.153 0.09196 18.26 20240331 331.6 180.934 114.336 7.205 0.41 1.526 14 E2024-EA9 2003 02 09 608 NEAT
    1636962003 EB50}(163696) K03E50B2003 EB50 0.755 2.386 0.05373 16.54 20240331 109.0 278.966 65.608 29.505 0.519 1.571 22 E2024-H40 2003 03 10 699 LONEOS
    1636972003 EF54}(163697) K03E54F2003 EF54 0.848 2.37 0.04191 20.08 20240331 79.9 353.732 268.469 2.951 0.473 1.609 11 MPO694578 2003 03 12 704 LINEAR
    1637322003 KP2}(163732) K03K02P2003 KP2 0.835 4.669 0.1571 15.48 20240331 174.8 190.651 193.423 44.642 0.697 2.752 17 E2024-J18 2003 05 22 704 LINEAR
    1637582003 OS13}(163758) K03O13S2003 OS13 0.335 2.257 0.09008 17.42 20240331 42.7 244.281 272.14 41.527 0.741 1.296 9 MPO694579 2003 07 29 704 LINEAR
    1638182003 RX7}(163818) K03R07X2003 RX7 0.794 1.665 0.02611 18.46 20240331 284.1 245.895 241.014 10.389 0.354 1.229 12 E2024-A34 2003 09 06 699 LONEOS
    1641202003 YK}(164120) K03Y00K2003 YK 0.895 2.129 0.08337 19.16 20240331 270.0 189.649 345.614 11.028 0.408 1.512 10 MPO778035 2003 12 17 704 LINEAR
    1641212003 YT1}(164121) K03Y01T2003 YT1 0.786 1.434 0.00283 16.18 20240331 66.5 91.009 38.315 44.06 0.292 1.11 12 E2024-K33 2003 12 18 703 CSS
    1641842004 BF68}(164184) K04B68F2004 BF68 0.89 2.365 0.05439 19.48 20240331 231.9 2.612 202.203 4.604 0.453 1.628 9 MPO778035 2004 01 27 704 LINEAR
    1642012004 EC}(164201) K04E00C2004 EC 0.279 3.714 0.41252 15.72 20240331 53.1 10.325 28.831 34.612 0.86 1.996 15 E2024-J99 2004 03 10 704 LINEAR
    1642072004 GU9}(164207) K04G09U2004 GU9 0.865 1.137 0.00141 21.18 20240331 226.8 279.528 38.425 13.652 0.136 1.001 19 E2024-J08 2004 04 13 704 LINEAR
    1642112004 JA27}(164211) K04J27A2004 JA27 0.961 2.372 0.03277 19.50 20240331 37.2 270.243 67.761 2.258 0.423 1.666 7 MPO694588 2004 05 15 704 LINEAR
    1642162004 OT11}(164216) K04O11T2004 OT11 0.937 3.369 0.01617 17.29 20240331 104.9 326.425 295.029 19.943 0.565 2.153 9 E2023-XR9 2004 07 27 704 LINEAR
    1642222004 RN9}(164222) K04R09N2004 RN9 0.982 1.626 0.09463 20.85 20240331 352.7 67.2 0.946 16.11 0.247 1.304 8 MPO745323 2004 09 07 704 LINEAR
    1644002005 GN59}(164400) K05G59N2005 GN59 0.881 2.432 0.04947 17.34 20240331 77.3 203.044 218.961 6.627 0.468 1.657 14 E2024-JF3 2005 04 07 691 Spacewatch
    1683181989 DA}(168318) J89D00A1989 DA 0.991 3.333 0.04556 18.91 20240331 21.0 139.809 349.078 6.491 0.542 2.162 5 E2024-JQ5 1989 02 27 675 Phinney, J.
    1700132002 UO3}(170013) K02U03O2002 UO3 0.59 5.303 0.30761 17.77 20240331 51.0 330.171 184.168 25.395 0.8 2.947 5 MPO694697 2002 10 28 704 LINEAR
    1700862002 XR14}(170086) K02X14R2002 XR14 0.713 3.098 0.01148 18.17 20240331 354.3 120.499 75.481 2.133 0.626 1.905 10 E2024-DD6 2002 12 05 704 LINEAR
    1705022003 WM7}(170502) K03W07M2003 WM7 0.292 4.648 0.07317 17.36 20240331 46.9 144.166 48.262 10.514 0.882 2.47 6 MPO694707 2003 11 18 644 NEAT
    1709032004 WS2}(170903) K04W02S2004 WS2 0.53 2.142 0.03012 18.23 20240331 140.4 115.45 87.677 8.266 0.603 1.336 14 MPO745323 2004 11 18 704 LINEAR
    1714861996 MO}(171486) J96M00O1996 MO 0.875 2.714 0.06733 18.42 20240331 262.7 4.734 165.099 6.087 0.512 1.794 10 MPO694725 1996 06 23 691 Spacewatch
    1715761999 VP11}(171576) J99V11P1999 VP11 0.452 1.719 0.00193 18.68 20240331 297.0 61.733 208.08 17.28 0.584 1.086 15 E2024-DA5 1999 11 07 704 LINEAR
    1726782003 YM137}(172678) K03YD7M2003 YM137 0.761 4.364 0.01547 18.95 20240331 278.1 130.966 73.981 2.825 0.703 2.563 3 MPO694748 2003 12 27 704 LINEAR
    1727222004 BV102}(172722) K04BA2V2004 BV102 0.464 2.623 0.10294 17.67 20240331 211.4 17.222 341.287 7.217 0.699 1.544 17 E2024-G95 2004 01 31 704 LINEAR
    1735612000 YV137}(173561) K00YD7V2000 YV137 0.998 1.898 0.01959 18.36 20240331 217.2 211.381 137.227 27.998 0.311 1.448 11 E2024-JT6 2000 12 31 608 NEAT
    1748812004 BU58}(174881) K04B58U2004 BU58 0.556 1.952 0.45748 18.10 20240331 10.2 171.803 120.175 57.224 0.557 1.254 13 MPO694789 2004 01 23 704 LINEAR
    1751142004 QQ}(175114) K04Q00Q2004 QQ 0.757 3.742 0.05999 16.66 20240331 303.8 31.487 288.085 5.719 0.663 2.25 17 E2024-JF3 2004 08 17 704 LINEAR
    1757061996 FG3}(175706) J96F03G1996 FG3 0.686 1.424 0.02813 18.32 20240331 210.8 24.061 299.505 1.972 0.35 1.055 18 E2024-GB3 1996 03 24 413 McNaught, R. H.
    1757291998 BB10}(175729) J98B10B1998 BB10 0.732 1.811 0.02298 20.44 20240331 143.1 259.241 124.28 11.536 0.425 1.271 14 E2024-G02 1998 01 25 566 NEAT
    1759212000 DM1}(175921) K00D01M2000 DM1 0.707 2.031 0.14131 18.32 20240331 300.5 306.696 342.769 20.701 0.484 1.369 13 E2024-H52 2000 02 16 703 CSS
    1770162003 BM47}(177016) K03B47M2003 BM47 0.485 1.835 0.15739 20.04 20240331 232.3 155.345 137.578 13.807 0.582 1.16 12 E2023-XG7 2003 01 31 291 Spacewatch
    1770492003 EE16}(177049) K03E16E2003 EE16 0.547 2.289 0.00011 19.83 20240331 248.4 259.497 127.227 0.652 0.614 1.418 10 E2024-K33 2003 03 08 291 Spacewatch
    1776142004 HK33}(177614) K04H33K2004 HK33 0.906 2.872 0.00865 17.59 20240331 218.4 221.542 104.706 5.438 0.52 1.889 14 E2024-E73 2004 04 21 704 LINEAR
    1776512004 XM14}(177651) K04X14M2004 XM14 0.348 1.961 0.49591 17.52 20240331 288.1 186.364 89.417 42.403 0.699 1.154 19 E2024-B43 2004 12 10 703 CSS
    1798062002 TD66}(179806) K02T66D2002 TD66 0.865 2.851 0.00565 20.46 20240331 142.6 125.867 335.538 4.925 0.535 1.858 4 MPO694882 2002 10 05 704 LINEAR
    1801862003 QZ30}(180186) K03Q30Z2003 QZ30 0.892 3.951 0.04566 17.58 20240331 146.5 243.079 178.056 8.566 0.632 2.422 8 MPO745323 2003 08 25 704 LINEAR
    1842662004 VW14}(184266) K04V14W2004 VW14 0.854 3.389 0.0075 19.49 20240331 76.4 42.788 100.831 3.834 0.598 2.121 5 MPO694966 2004 11 03 699 LONEOS
    1849902006 KE89}(184990) K06K89E2006 KE89 0.212 1.895 0.22936 16.43 20240331 134.2 299.226 88.594 45.113 0.799 1.053 17 E2024-K36 2006 05 28 699 LONEOS
    1858512000 DP107}(185851) K00DA7P2000 DP107 0.851 1.879 0.01508 18.32 20240331 298.6 289.773 358.665 8.671 0.377 1.365 16 E2024-K25 2000 02 29 704 LINEAR
    1868222004 FE31}(186822) K04F31E2004 FE31 0.862 2.286 0.07276 17.86 20240331 274.5 150.37 200.735 13.057 0.453 1.574 18 E2024-K33 2004 03 29 691 Spacewatch
    1868232004 FN32}(186823) K04F32N2004 FN32 0.389 2.021 0.23758 19.12 20240331 317.7 161.151 190.063 21.964 0.677 1.205 13 MPO695014 2004 03 31 691 Spacewatch
    1868442004 GA1}(186844) K04G01A2004 GA1 0.796 4.065 0.01755 17.43 20240331 62.8 54.665 261.472 7.773 0.672 2.431 10 E2024-A48 2004 04 11 428 Broughton, J.
    1870402005 JS108}(187040) K05JA8S2005 JS108 0.919 1.794 0.01927 19.23 20240331 263.6 243.919 110.849 6.04 0.322 1.356 11 MPO695019 2005 05 14 704 LINEAR
    1890081996 FR3}(189008) J96F03R1996 FR3 0.448 3.889 0.08794 16.41 20240331 311.9 36.718 27.15 8.043 0.794 2.168 11 MPO695056 1996 03 26 566 NEAT
    1890402000 MU1}(189040) K00M01U2000 MU1 0.848 1.897 0.01074 19.87 20240331 322.1 63.781 130.036 13.093 0.382 1.372 10 MPO778269 2000 06 24 704 LINEAR
    1891732002 XY4}(189173) K02X04Y2002 XY4 0.792 2.895 0.14026 18.93 20240331 151.6 273.744 268.902 43.076 0.57 1.844 10 E2023-O91 2002 12 05 704 LINEAR
    1896302001 LE6}(189630) K01L06E2001 LE6 0.37 2.042 0.12622 17.83 20240331 140.8 201.567 290.524 12.62 0.693 1.206 12 MPO695067 2001 06 15 644 NEAT
    1898652003 NC}(189865) K03N00C2003 NC 0.273 2.538 0.03768 19.46 20240331 197.0 224.328 288.391 21.57 0.805 1.406 8 E2024-A34 2003 07 01 704 LINEAR
    1901192004 VA64}(190119) K04V64A2004 VA64 0.27 4.663 0.29869 17.05 20240331 20.4 19.963 225.505 29.889 0.89 2.467 10 E2024-A55 2004 11 10 704 LINEAR
    1901352005 QE30}(190135) K05Q30E2005 QE30 0.63 3.408 0.07786 17.33 20240331 114.3 217.07 259.694 6.217 0.688 2.019 8 MPO721278 2005 08 26 644 NEAT
    1907882001 RT17}(190788) K01R17T2001 RT17 0.264 2.273 0.16179 18.35 20240331 12.6 199.655 349.972 20.088 0.792 1.268 17 E2023-X62 2001 09 11 704 LINEAR
    1910942002 EA3}(191094) K02E03A2002 EA3 0.759 3.471 0.08115 20.16 20240331 45.6 259.372 349.401 32.162 0.641 2.115 4 MPO695095 2002 03 09 704 LINEAR
    1925591998 VO}(192559) J98V00O1998 VO 0.831 1.318 0.02649 20.43 20240331 5.2 75.961 228.12 10.061 0.227 1.075 7 MPO695123 1998 11 10 704 LINEAR
    1925631998 WZ6}(192563) J98W06Z1998 WZ6 0.86 2.044 0.03443 17.34 20240331 113.6 110.756 68.682 24.761 0.408 1.452 16 MPO745323 1998 11 23 411 Kobayashi, T.
    1926421999 RD32}(192642) J99R32D1999 RD32 0.608 4.677 0.05022 16.48 20240331 279.4 300.05 309.88 6.806 0.77 2.642 10 MPO695124 1999 09 08 704 LINEAR
    1931782000 PK5}(193178) K00P05K2000 PK5 0.578 3.292 0.22045 17.74 20240331 253.8 191.823 227.199 13.131 0.701 1.935 12 MPO695134 2000 08 04 704 LINEAR
    1940062001 SG10}(194006) K01S10G2001 SG10 0.834 2.063 0.01738 20.46 20240331 1.8 101.592 184.935 4.257 0.424 1.449 10 E2023-R01 2001 09 19 699 LONEOS
    1942682001 UY4}(194268) K01U04Y2001 UY4 0.309 2.597 0.02605 18.34 20240331 321.9 107.789 160.703 5.437 0.787 1.453 15 E2024-AF8 2001 10 16 704 LINEAR
    1943862001 VG5}(194386) K01V05G2001 VG5 0.89 3.713 0.11517 16.96 20240331 106.1 280.407 248.249 13.685 0.613 2.302 18 E2024-EA9 2001 11 10 704 LINEAR
    1960682002 TW55}(196068) K02T55W2002 TW55 0.711 3.525 0.0275 18.13 20240331 21.3 251.114 33.551 59.365 0.664 2.118 5 MPO695189 2002 10 02 704 LINEAR
    1966252003 RM10}(196625) K03R10M2003 RM10 0.755 2.941 0.00599 20.29 20240331 88.5 287.301 341.297 13.724 0.591 1.848 6 MPO778336 2003 09 13 699 LONEOS
    1975882004 HE12}(197588) K04H12E2004 HE12 0.986 2.705 0.01085 17.14 20240331 350.8 162.217 338.036 42.709 0.466 1.845 12 E2024-K03 2004 04 20 291 Spacewatch
    000000J79X00B J79X00B1979 XB 0.644 3.788 0.01917 18.6 20240331 130.8 77.083 84.361 24.553 0.709 2.216 ( 4d) MPO 70208 1979 12 11 413 K. S. Russell
    000000J89A00Z J89A00Z1989 AZ 0.876 2.419 0.05533 19.68 20240331 260.4 112.018 295.467 11.79 0.468 1.648 5 MPO750185 1989 01 08 675 C. S. Shoemaker, E. M. Shoemaker
    000000J90U00N J90U00N1990 UN 0.807 2.612 0.02098 23.5 20240331 313.5 97.91 7.618 3.691 0.528 1.709 ( 15d) MPO 77350 1990 10 22 691 Spacewatch
    1991452005 YY128}(199145) K05YC8Y2005 YY128 0.442 2.857 0.02957 18.28 20240331 168.5 315.056 300.049 3.763 0.732 1.65 9 E2023-X62 2005 12 30 691 Spacewatch
    000000J91B00A J91B00A1991 BA 0.709 3.604 0.00122 28.6 20240331 162.9 74.049 117.351 2.126 0.671 2.156 ( 0d) MPO242993 1991 01 18 691 Spacewatch
    000000J91G00O J91G00O1991 GO 0.667 3.186 0.02573 20.10 20240331 141.2 89.734 23.966 9.554 0.654 1.926 6 E2023-XA2 1991 04 11 400 K. Endate, K. Watanabe
    000000J91T00U J91T00U1991 TU 0.942 1.859 0.00514 28.4 20240331 185.1 222.312 193.262 7.543 0.327 1.401 ( 0d) MPO242993 1991 10 07 691 Spacewatch
    000000J91V00A J91V00A1991 VA 0.926 1.931 0.00694 26.5 20240331 15.1 313.77 37.402 6.528 0.352 1.429 ( 8d) MPC 19516 1991 11 01 691 Steward Observatory, Kitt Peak-Spacewatch
    000000J91V00G J91V00G1991 VG 0.978 1.087 0.00118 28.3 20240331 342.3 26.923 71.27 1.43 0.052 1.032 3 MPO409946 1991 11 06 691 Spacewatch
    000000J91X00A J91X00A1991 XA 0.978 3.601 0.04556 23.7 20240331 130.5 309.981 76.231 5.334 0.573 2.289 ( 12d) MPO164143 1991 12 03 691 Spacewatch
    000000J92D00U J92D00U1992 DU 0.957 1.36 0.03767 25.3 20240331 295.2 121.746 337.839 25.104 0.174 1.158 ( 3d) MPO164143 1992 02 26 691 Spacewatch
    000000J93H00C J93H00C1993 HC 0.98 3.0 0.06981 20.77 20240331 31.0 306.892 201.025 9.429 0.508 1.99 2 E2024-DD1 1993 04 20 691 Spacewatch
    000000J93H01P J93H01P1993 HP1 0.976 2.982 0.00518 27.1 20240331 45.5 152.529 36.747 7.976 0.507 1.979 ( 0d) MPO242994 1993 04 27 691 Spacewatch
    000000J93K02A J93K02A1993 KA2 0.516 3.945 0.00459 29.00 20240331 111.8 271.054 230.234 3.148 0.769 2.231 ( 1d) MPO713652 1993 05 21 691 Spacewatch
    000000J93T00Z J93T00Z1993 TZ 0.876 3.159 0.0048 26.0 20240331 203.9 231.954 203.252 4.152 0.566 2.018 2 MPO388831 1993 10 15 691 Spacewatch
    000000J93U00A J93U00A1993 UA 0.959 3.091 0.00327 25.4 20240331 217.0 330.488 26.866 4.596 0.527 2.025 ( 3d) MPO164143 1993 10 21 691 Spacewatch
    000000J94E00K J94E00K1994 EK 0.778 3.525 0.03122 20.3 20240331 217.0 99.415 332.844 6.04 0.639 2.151 3 MPO254715 1994 03 07 691 Spacewatch
    000000J94E00U J94E00U1994 EU 0.995 1.763 0.03019 25.9 20240331 229.9 145.896 351.473 6.472 0.279 1.379 ( 12d) MPO164143 1994 03 10 691 Spacewatch
    000000J94E01S J94E01S1994 ES1 0.574 2.224 0.00084 28.5 20240331 20.6 280.603 352.423 1.062 0.59 1.399 ( 1d) MPC 23345 1994 03 14 691 Steward Observatory, Kitt Peak-Spacewatch
    000000J94G00K J94G00K1994 GK 0.775 3.216 0.00183 24.2 20240331 242.5 112.985 14.247 5.762 0.612 1.996 ( 3d) MPO164143 1994 04 07 691 Spacewatch
    000000J94G00V J94G00V1994 GV 0.96 3.046 0.00044 27.4 20240331 209.5 153.887 20.236 0.453 0.521 2.003 ( 2d) MPO164143 1994 04 13 691 Spacewatch
    000000J94N00E J94N00E1994 NE 0.805 3.279 0.01947 19.83 20240331 53.3 246.762 104.432 27.479 0.606 2.042 ( 26d) E2023-Y56 1994 07 04 675 E. F. Helin, K. J. Lawrence
    000000J94R00B J94R00B1994 RB 0.889 4.05 0.03205 23.4 20240331 213.9 52.533 339.421 26.534 0.64 2.469 ( 2d) MPO164143 1994 09 01 691 Spacewatch
    000000J94V08H J94V08H1994 VH8 0.911 2.336 0.00254 27.7 20240331 95.2 314.212 38.201 3.347 0.439 1.623 ( 0d) MPO242994 1994 11 01 691 Spacewatch
    000000J94X00G J94X00G1994 XG 0.792 2.367 0.06686 18.68 20240331 17.5 46.593 231.701 11.464 0.498 1.58 9 MPO732386 1994 12 02 691 Spacewatch
    000000J94X01M J94X01M1994 XM1 0.883 3.23 0.00239 28.2 20240331 315.5 42.345 76.537 4.607 0.57 2.056 ( 0d) MPO242994 1994 12 09 691 Spacewatch
    000000J95C00S J95C00S1995 CS 0.438 3.437 0.00089 25.5 20240331 309.2 252.981 134.996 2.597 0.774 1.938 ( 3d) MPO164144 1995 02 04 691 Spacewatch
    000000J95F00F J95F00F1995 FF 0.679 3.964 0.00252 26.5 20240331 87.9 297.354 171.405 0.599 0.707 2.322 ( 5d) MPC 28318 1995 03 28 691 Steward Observatory, Kitt Peak-Spacewatch
    000000J95F00O J95F00O1995 FO 0.946 2.031 0.13318 20.78 20240331 48.6 272.639 180.722 11.238 0.364 1.489 3 E2024-GH2 1995 03 28 691 Spacewatch
    000000J95U00B J95U00B1995 UB 0.823 1.977 0.0031 27.3 20240331 90.0 112.594 204.01 8.978 0.412 1.4 ( 8d) MPO294786 1995 10 18 691 Spacewatch
    000000J96A01P J96A01P1996 AP1 0.968 2.859 0.02372 24.7 20240331 243.6 324.246 117.755 5.473 0.494 1.914 ( 10d) MPO166082 1996 01 14 691 Spacewatch
    000000J96B00T J96B00T1996 BT 0.202 2.201 0.03382 22.79 20240331 107.1 328.157 296.839 12.023 0.832 1.202 ( 10d) MPO713653 1996 01 19 691 Spacewatch
    000000J96F01T J96F01T1996 FT1 0.875 2.038 0.02468 24.4 20240331 13.7 94.053 12.227 2.701 0.399 1.457 ( 9d) MPO 47702 1996 03 19 691 Spacewatch
    000000J96J01A J96J01A1996 JA1 0.769 4.357 0.01681 21.0 20240331 277.7 248.57 55.774 21.589 0.7 2.563 ( 5d) MPO 66057 1996 05 14 693 T. B. Spahr
    000000J96T01C J96T01C1996 TC1 0.52 3.209 0.00721 23.9 20240331 296.2 259.8 3.987 14.531 0.721 1.865 ( 7d) MPO166083 1996 10 04 691 Spacewatch
    000000J96T06P J96T06P1996 TP6 0.955 4.316 0.09542 20.0 20240331 177.5 251.978 38.232 9.273 0.638 2.636 2 MPO273862 1996 10 09 691 Spacewatch
    000000J96T09D J96T09D1996 TD9 0.795 1.873 0.02259 23.7 20240331 342.2 89.831 206.149 5.028 0.404 1.334 2 MPO388832 1996 10 12 566 NEAT
    000000J96V03B J96V03B1996 VB3 0.74 2.523 0.02236 22.11 20240331 84.5 133.601 179.814 2.79 0.547 1.631 4 E2024-DC2 1996 11 09 691 Spacewatch
    000000J96X14X J96X14X1996 XX14 0.894 4.206 0.09675 19.33 20240331 267.5 185.065 195.507 10.558 0.649 2.55 2 E2024-GB3 1996 12 10 413 R. H. McNaught
    000000J97C17D J97C17D1997 CD17 0.964 1.281 0.00802 27.5 20240331 259.8 221.622 320.382 15.109 0.141 1.122 ( 2d) MPC 29128 1997 02 09 691 Steward Observatory, Kitt Peak-Spacewatch
    000000J97G32D J97G32D1997 GD32 0.842 3.346 0.01462 21.5 20240331 306.7 226.66 55.23 5.253 0.598 2.094 ( 22d) MPC 29935 1997 04 14 691 Steward Observatory, Kitt Peak-Spacewatch
    000000J97M00S J97M00S1997 MS 0.526 3.342 0.17399 19.41 20240331 8.6 65.788 86.188 54.905 0.728 1.934 2 E2024-JQ5 1997 06 25 704 LINEAR
    000000J97Q01K J97Q01K1997 QK1 0.983 4.581 0.01721 20.08 20240331 255.2 3.003 306.767 2.886 0.647 2.782 3 MPO598750 1997 08 27 568 R. J. Whiteley
    000000J97T16Z J97T16Z1997 TZ16 0.813 3.221 0.01001 24.5 20240331 61.2 68.498 12.887 3.751 0.597 2.017 ( 3d) MPC 30908 1997 10 09 691 Spacewatch
    000000J97T25C J97T25C1997 TC25 0.991 4.203 0.00206 24.6 20240331 120.6 301.982 38.631 0.171 0.618 2.597 ( 23d) MPO124286 1997 10 10 691 Spacewatch
    000000J97U11A J97U11A1997 UA11 0.894 3.912 0.00086 25.2 20240331 48.8 138.728 212.23 3.336 0.628 2.403 ( 13d) MPO 77363 1997 10 29 704 LINEAR
    000000J97V06G J97V06G1997 VG6 0.702 2.519 0.04675 19.6 20240331 9.0 250.913 51.653 18.501 0.564 1.611 ( 15d) MPO166084 1997 11 07 704 LINEAR
    000000J97W23Q J97W23Q1997 WQ23 0.878 2.597 0.01029 20.8 20240331 209.0 296.632 55.819 2.448 0.495 1.737 4 MPO598751 1997 11 29 704 LINEAR
    000000J97X10E J97X10E1997 XE10 0.977 2.767 0.01572 24.53 20240331 97.6 25.015 72.458 6.289 0.478 1.872 2 MPO598751 1997 12 04 704 LINEAR
    000000J97Y09M J97Y09M1997 YM9 0.982 1.21 0.03157 24.36 20240331 287.3 51.749 94.693 7.842 0.104 1.096 3 MPO659745 1997 12 28 566 NEAT
    1998012007 AE12}(199801) K07A12E2007 AE12 0.726 2.644 0.0065 19.36 20240331 38.2 86.997 245.441 2.285 0.569 1.685 9 MPO729611 2007 01 10 G96 Mt. Lemmon Survey
    000000J98B07Y J98B07Y1998 BY7 0.79 3.25 0.02314 21.47 20240331 11.9 90.633 121.877 3.282 0.609 2.02 3 MPO739981 1998 01 22 691 Spacewatch
    000000J98B13T J98B13T1998 BT13 0.974 3.982 0.00294 26.5 20240331 244.9 353.463 123.325 1.431 0.607 2.478 ( 6d) MPC 31291 1998 01 24 691 Spacewatch
    000000J98B26R J98B26R1998 BR26 0.837 2.447 0.0158 26.0 20240331 142.0 62.18 129.871 12.215 0.49 1.642 ( 1d) MPC 31293 1998 01 30 691 Spacewatch
    000000J98D11X J98D11X1998 DX11 0.975 4.006 0.0027 27.0 20240331 228.9 162.268 334.768 6.561 0.609 2.49 ( 3d) MPO166084 1998 02 23 691 Spacewatch
    000000J98D20V J98D20V1998 DV20 0.779 3.184 0.07543 20.30 20240331 155.5 262.009 150.234 19.654 0.607 1.982 ( 10d) MPO739981 1998 02 24 691 Spacewatch
    000000J98E03E J98E03E1998 EE3 0.908 3.496 0.01252 27.2 20240331 333.9 226.806 339.585 6.121 0.588 2.202 ( 3d) MPO242995 1998 03 01 691 Spacewatch
    000000J98E04P J98E04P1998 EP4 0.872 2.248 0.06251 21.5 20240331 95.9 266.448 352.784 7.191 0.441 1.56 2 MPO 46336 1998 03 02 691 Spacewatch
    000000J98F05L J98F05L1998 FL5 0.981 2.108 0.10464 21.48 20240331 228.1 297.698 185.824 14.535 0.365 1.545 3 MPO750185 1998 03 22 704 LINEAR
    000000J98F12G J98F12G1998 FG12 0.939 3.54 0.10763 21.0 20240331 290.4 98.178 21.934 8.657 0.581 2.239 ( 39d) MPC 32063 1998 03 24 704 LINEAR
    000000J98H01M J98H01M1998 HM1 0.902 1.913 0.01609 24.42 20240331 160.8 69.846 201.614 3.189 0.359 1.408 ( 7d) MPO739981 1998 04 18 691 Spacewatch
    000000J98H31T J98H31T1998 HT31 0.768 4.291 0.03087 20.8 20240331 143.9 80.694 213.458 6.81 0.696 2.529 ( 19d) MPO 7464 1998 04 29 566 NEAT
    000000J98H49H J98H49H1998 HH49 0.773 2.343 0.00271 21.38 20240331 108.4 288.259 23.458 8.429 0.504 1.558 6 E2023-X25 1998 04 28 691 Spacewatch
    000000J98K00H J98K00H1998 KH 0.473 2.828 0.06752 19.16 20240331 102.5 64.453 44.654 26.239 0.714 1.651 3 MPO739981 1998 05 16 704 LINEAR
    000000J98K03O J98K03O1998 KO3 0.592 4.662 0.08542 19.5 20240331 42.2 75.436 64.804 54.574 0.775 2.627 ( 6d) MPO242996 1998 05 24 704 LINEAR
    000000J98K26Y J98K26Y1998 KY26 0.984 1.482 0.00254 25.72 20240331 287.5 209.363 84.363 1.481 0.202 1.233 4 E2024-K42 1998 05 28 691 Spacewatch
    000000J98L00E J98L00E1998 LE 0.457 2.569 0.06301 20.36 20240331 285.1 133.007 237.468 9.146 0.698 1.513 3 E2024-K33 1998 06 04 704 LINEAR
    000000J98M05V J98M05V1998 MV5 0.982 1.426 0.01485 24.0 20240331 217.7 313.586 269.438 21.154 0.184 1.204 ( 9d) MPC 32338 1998 06 23 704 LINEAR
    000000J98Q00Q J98Q00Q1998 QQ 0.392 2.094 0.17432 18.55 20240331 234.4 220.61 325.293 37.173 0.684 1.243 8 E2024-ED3 1998 08 17 704 LINEAR
    000000J98Q28K J98Q28K1998 QK28 0.984 3.686 0.00992 19.54 20240331 49.9 204.814 174.512 7.871 0.579 2.335 3 E2024-AE1 1998 08 25 704 LINEAR
    000000J98Q62A J98Q62A1998 QA62 0.528 3.556 0.0165 19.29 20240331 259.7 273.939 180.799 24.839 0.741 2.042 2 E2023-R01 1998 08 29 704 LINEAR
    000000J98S02H J98S02H1998 SH2 0.785 4.7 0.01896 20.8 20240331 256.4 268.421 6.379 2.404 0.714 2.743 3 MPO392273 1998 09 17 691 Spacewatch
    000000J98S04U J98S04U1998 SU4 0.481 1.814 0.02009 21.42 20240331 324.9 241.852 350.58 23.147 0.581 1.148 2 MPO780960 1998 09 19 704 LINEAR
    000000J98S14Y J98S14Y1998 SY14 0.937 4.736 0.00844 20.68 20240331 110.1 22.496 39.663 3.472 0.67 2.836 (125d) MPO739982 1998 09 21 704 LINEAR
    000000J98U18S J98U18S1998 US18 0.843 4.369 0.03369 20.9 20240331 27.6 115.478 207.255 9.659 0.676 2.606 2 MPO542762 1998 10 25 691 Spacewatch
    000000J98U24Y J98U24Y1998 UY24 0.926 1.801 0.12727 21.6 20240331 34.0 275.727 38.715 16.875 0.321 1.363 ( 10d) MPO164147 1998 10 29 704 LINEAR
    000000J98V31E J98V31E1998 VE31 0.851 1.251 0.12252 21.09 20240331 318.4 219.505 57.297 21.946 0.19 1.051 2 MPO780960 1998 11 13 704 LINEAR
    000000J98V32D J98V32D1998 VD32 0.755 1.452 0.03013 22.65 20240331 260.2 152.002 1.104 1.956 0.316 1.103 2 MPO639782 1998 11 14 704 LINEAR
    000000J98W02B J98W02B1998 WB2 0.816 3.129 0.0148 21.85 20240331 27.9 78.824 52.142 2.373 0.586 1.973 3 E2023-X62 1998 11 18 704 LINEAR
    000000J98W04L J98W04L1998 WL4 0.471 3.06 0.2174 19.49 20240331 344.9 41.734 225.977 23.75 0.733 1.766 6 MPO780960 1998 11 16 691 Spacewatch
    000000J98X12D J98X12D1998 XD12 0.525 2.277 0.03097 20.96 20240331 122.0 69.649 259.636 13.547 0.625 1.401 ( 10d) MPO780961 1998 12 14 704 LINEAR
    000000J99A10M J99A10M1999 AM10 0.876 2.773 0.06136 21.0 20240331 66.2 95.897 76.4 6.885 0.52 1.824 ( 11d) MPC 34039 1999 01 13 704 Lincoln Laboratory ETS, New Mexico
    000000J99C02Q J99C02Q1999 CQ2 0.93 2.074 0.00476 27.3 20240331 251.7 138.355 317.923 3.697 0.381 1.502 ( 6d) MPC 34046 1999 02 07 691 Steward Observatory, Kitt Peak-Spacewatch
    000000J99C09G J99C09G1999 CG9 0.994 1.129 0.02431 25.2 20240331 38.1 315.566 138.498 5.157 0.064 1.062 ( 24d) MPC 34320 1999 02 10 704 Lincoln Laboratory ETS, New Mexico
    000000J99F05R J99F05R1999 FR5 0.966 2.739 0.00778 23.4 20240331 346.6 149.043 355.762 3.858 0.478 1.852 ( 6d) MPC 34336 1999 03 19 704 Lincoln Laboratory ETS, New Mexico
    000000J99F10Q J99F10Q1999 FQ10 0.991 2.948 0.00803 23.2 20240331 19.4 336.68 162.022 1.134 0.497 1.969 ( 4d) MPO242999 1999 03 20 704 Lincoln Laboratory ETS, New Mexico
    000000J99F19P J99F19P1999 FP19 0.934 2.951 0.16215 20.26 20240331 59.5 274.062 346.895 15.082 0.519 1.943 3 MPO739983 1999 03 22 704 Lincoln Laboratory ETS, New Mexico
    000000J99F19R J99F19R1999 FR19 0.808 2.283 0.03516 22.45 20240331 34.7 106.963 0.511 20.852 0.477 1.545 ( 3d) E2024-BE5 1999 03 23 704 Lincoln Laboratory ETS, New Mexico
    000000J99G04L J99G04L1999 GL4 0.843 3.398 0.02671 19.7 20240331 59.3 293.872 178.396 7.262 0.602 2.12 2 MPO154047 1999 04 12 704 Lincoln Laboratory ETS, New Mexico
    000000J99G06R J99G06R1999 GR6 0.321 2.364 0.17227 20.09 20240331 342.3 146.61 180.842 29.182 0.761 1.343 3 E2024-DD1 1999 04 10 704 Lincoln Laboratory ETS, New Mexico
    000000J99J10Z J99J10Z1999 JZ10 0.688 1.924 0.03686 22.22 20240331 279.3 80.029 54.49 25.928 0.473 1.306 ( 20d) MPO750185 1999 05 14 704 Lincoln Laboratory ETS, New Mexico
    000000J99K01L J99K01L1999 KL1 0.985 2.457 0.08447 21.5 20240331 27.7 117.218 64.565 9.672 0.428 1.721 ( 16d) MPO242999 1999 05 17 704 Lincoln Laboratory ETS, New Mexico
    000000J99L01W J99L01W1999 LW1 0.457 2.419 0.09978 20.52 20240331 101.6 168.609 204.543 6.671 0.682 1.438 5 MPO750185 1999 06 07 703 Catalina Sky Survey
    000000J99L01X J99L01X1999 LX1 0.32 2.002 0.02549 21.12 20240331 262.0 133.531 251.78 19.706 0.724 1.161 ( 6d) E2024-JR7 1999 06 08 704 Lincoln Laboratory ETS, New Mexico
    000000J99L06D J99L06D1999 LD6 0.928 2.764 0.08576 22.1 20240331 306.3 72.165 236.696 11.448 0.497 1.846 ( 3d) MPO243000 1999 06 10 704 Lincoln Laboratory ETS, New Mexico
    000000J99R32A J99R32A1999 RA32 0.933 1.118 0.05714 21.28 20240331 23.0 9.306 167.691 10.524 0.09 1.026 2 E2024-J99 1999 09 08 704 Lincoln Laboratory ETS, New Mexico
    000000J99S10F J99S10F1999 SF10 0.955 1.602 0.00368 24.3 20240331 312.1 27.989 25.86 1.209 0.253 1.278 3 MPO248754 1999 09 30 704 Lincoln Laboratory ETS, New Mexico
    000000J99S10G J99S10G1999 SG10 0.562 2.346 0.02939 20.76 20240331 315.3 103.405 13.389 23.564 0.613 1.454 4 MPO739983 1999 09 30 704 Lincoln Laboratory ETS, New Mexico
    000000J99S10H J99S10H1999 SH10 0.955 1.242 0.00963 22.75 20240331 160.0 119.109 178.488 9.588 0.131 1.099 3 MPO723649 1999 09 30 704 Lincoln Laboratory ETS, New Mexico
    000000J99S10J J99S10J1999 SJ10 0.62 3.654 0.06724 19.79 20240331 325.9 128.844 131.906 6.867 0.71 2.137 4 MPO649669 1999 09 30 704 Lincoln Laboratory ETS, New Mexico
    000000J99T02Y J99T02Y1999 TY2 0.889 3.65 0.02601 23.3 20240331 45.4 230.84 191.693 22.963 0.608 2.27 ( 5d) MPO 41582 1999 10 03 703 Catalina Sky Survey
    000000J99T12M J99T12M1999 TM12 0.852 2.345 0.06748 21.6 20240331 15.0 250.758 198.928 28.71 0.467 1.598 ( 7d) MPC 36575 1999 10 10 704 Lincoln Laboratory ETS, New Mexico
    000000J99T13N J99T13N1999 TN13 0.963 3.101 0.02536 23.6 20240331 149.1 217.258 202.196 9.494 0.526 2.032 ( 7d) MPO 41582 1999 10 12 704 Lincoln Laboratory ETS, New Mexico
    000000J99T13O J99T13O1999 TO13 0.893 2.27 0.03026 21.85 20240331 127.7 302.395 14.881 20.296 0.435 1.582 ( 11d) MPO739983 1999 10 12 704 Lincoln Laboratory ETS, New Mexico
    000000J99T16T J99T16T1999 TT16 0.727 3.587 0.02272 19.94 20240331 221.4 149.628 327.119 1.987 0.663 2.157 3 MPO750185 1999 10 09 691 Steward Observatory, Kitt Peak-Spacewatch
    000000J99T16V J99T16V1999 TV16 0.932 2.218 0.01413 23.4 20240331 114.8 86.032 344.967 1.098 0.408 1.575 ( 6d) MPC 36576 1999 10 12 704 Lincoln Laboratory ETS, New Mexico
    000000J99T16W J99T16W1999 TW16 0.378 2.47 0.15284 19.51 20240331 101.1 134.829 28.168 34.685 0.735 1.424 3 E2021-XH1 1999 10 13 704 Lincoln Laboratory ETS, New Mexico
    000000J99U00R J99U00R1999 UR 0.942 2.856 0.0138 21.5 20240331 112.2 18.222 50.651 3.593 0.504 1.899 2 MPO258304 1999 10 16 704 Lincoln Laboratory ETS, New Mexico
    000000J99U05Z J99U05Z1999 UZ5 0.503 4.522 0.04295 21.88 20240331 50.2 69.137 224.304 10.085 0.8 2.513 ( 4d) MPO733995 1999 10 31 703 Catalina Sky Survey
    000000J99V06R J99V06R1999 VR6 0.522 3.849 0.05082 20.8 20240331 169.0 295.568 211.592 8.624 0.761 2.185 3 MPO382658 1999 11 05 704 Lincoln Laboratory ETS, New Mexico
    000000J99V12K J99V12K1999 VK12 0.494 3.921 0.01949 23.67 20240331 129.7 105.264 46.561 9.559 0.776 2.207 ( 3d) MPO733995 1999 11 09 704 Lincoln Laboratory ETS, New Mexico
    000000J99V25V J99V25V1999 VV25 0.987 3.466 0.02348 25.1 20240331 113.6 204.835 231.67 7.44 0.557 2.227 ( 3d) MPO265604 1999 11 14 704 Lincoln Laboratory ETS, New Mexico
    000000J99X35S J99X35S1999 XS35 0.925 34.664 0.0111 17.69 20240331 117.1 333.324 48.693 19.674 0.948 17.795 ( 88d) MPO739985 1999 12 02 699 Lowell Observatory-LONEOS
    000000J99XD6K J99XD6K1999 XK136 0.708 4.06 0.0115 20.56 20240331 233.4 303.186 63.1 2.669 0.703 2.384 3 E2023-R01 1999 12 10 704 Lincoln Laboratory ETS, New Mexico
    000000J99XE1N J99XE1N1999 XN141 0.935 4.045 0.03674 22.6 20240331 60.8 311.412 86.042 7.569 0.624 2.49 ( 16d) MPO 57730 1999 12 14 704 Lincoln Laboratory ETS, New Mexico
    000000K00A06A K00A06A2000 AA6 0.618 1.955 0.00766 22.45 20240331 173.5 287.742 279.714 2.032 0.519 1.286 5 MPO739985 2000 01 03 704 LINEAR
    000000K00A06B K00A06B2000 AB6 0.935 2.638 0.01549 22.40 20240331 67.4 133.659 282.794 3.797 0.476 1.787 2 MPO750185 2000 01 03 704 LINEAR
    000000K00A06G K00A06G2000 AG6 0.824 1.209 0.00424 25.3 20240331 154.8 276.79 282.848 2.439 0.189 1.017 ( 7d) MPC 38174 2000 01 03 704 LINEAR
    000000K00AK5H K00AK5H2000 AH205 0.68 1.612 0.01531 22.6 20240331 335.4 117.95 247.988 2.583 0.406 1.146 4 MPO553940 2000 01 09 704 LINEAR
    000000K00B19K K00B19K2000 BK19 0.995 3.814 0.03212 22.36 20240331 156.4 201.465 310.327 14.742 0.586 2.404 2 MPO739986 2000 01 30 704 LINEAR
    000000K00B19O K00B19O2000 BO19 0.739 1.66 0.00453 24.6 20240331 96.7 272.373 310.076 16.782 0.384 1.199 ( 4d) MPO243003 2000 01 30 691 Spacewatch
    000000K00C33M K00C33M2000 CM33 0.963 1.683 0.0435 21.22 20240331 289.4 50.283 132.822 11.549 0.272 1.323 5 E2023-RF8 2000 02 02 703 Catalina Sky Survey
    000000K00CA1P K00CA1P2000 CP101 0.675 2.874 0.04373 19.9 20240331 99.2 247.922 160.216 10.443 0.62 1.775 4 MPO473046 2000 02 10 704 LINEAR
    000000K00D01N K00D01N2000 DN1 0.908 4.78 0.02082 19.9 20240331 322.6 148.089 41.17 8.043 0.681 2.844 2 MPO466171 2000 02 24 704 LINEAR
    000000K00D08L K00D08L2000 DL8 0.856 3.533 0.09336 19.11 20240331 173.1 354.129 61.829 8.773 0.61 2.194 3 E2024-H58 2000 02 26 704 LINEAR
    000000K00D08O K00D08O2000 DO8 0.943 3.992 0.00374 24.8 20240331 62.5 96.492 94.813 0.284 0.618 2.468 ( 5d) MPC 39604 2000 02 28 704 LINEAR
    000000K00E70U K00E70U2000 EU70 0.515 3.916 0.03729 18.70 20240331 123.7 254.115 165.307 13.02 0.767 2.216 7 MPO750185 2000 03 08 704 LINEAR
    000000K00EA6Y K00EA6Y2000 EY106 0.923 2.46 0.18686 19.42 20240331 7.9 102.632 359.768 38.176 0.455 1.692 4 E2024-JU2 2000 03 14 704 LINEAR
    000000K00GC7W K00GC7W2000 GW127 0.613 3.88 0.0968 19.4 20240331 59.8 332.775 127.125 6.645 0.727 2.247 3 MPO411498 2000 04 10 699 LONEOS
    000000K00J05F K00J05F2000 JF5 0.915 3.268 0.01463 21.81 20240331 315.9 217.837 57.508 13.701 0.562 2.091 ( 5d) MPO733996 2000 05 01 704 LINEAR
    000000K00K00A K00K00A2000 KA 0.717 1.947 0.00214 21.75 20240331 225.6 83.303 62.437 6.731 0.462 1.332 4 E2023-Y71 2000 05 22 699 LONEOS
    000000K00K41E K00K41E2000 KE41 0.398 5.59 0.17923 17.44 20240331 226.0 56.959 64.812 50.338 0.867 2.994 3 MPO713660 2000 05 28 704 LINEAR
    000000K00K44P K00K44P2000 KP44 0.475 3.349 0.23885 19.03 20240331 339.4 135.305 227.217 28.227 0.752 1.912 2 MPO739987 2000 05 31 699 LONEOS
    000000K00L03D K00L03D2000 LD3 0.372 2.52 0.12819 19.54 20240331 282.9 47.435 74.046 37.196 0.743 1.446 ( 12d) MPO750185 2000 06 03 699 LONEOS
    000000K00L03F K00L03F2000 LF3 0.896 4.291 0.00345 21.6 20240331 248.1 224.278 81.889 14.597 0.654 2.594 ( 12d) MPO 41656 2000 06 04 699 LONEOS
    000000K00P00N K00P00N2000 PN 0.243 1.8 0.01802 22.95 20240331 26.6 37.874 128.645 22.806 0.762 1.021 ( 2d) MPO733996 2000 08 01 704 LINEAR
    000000K00P03E K00P03E2000 PE3 0.791 3.804 0.09167 20.50 20240331 302.0 276.195 315.343 17.498 0.656 2.297 4 MPO739987 2000 08 01 704 LINEAR
    000000K00P05Y K00P05Y2000 PY5 0.919 3.707 0.04555 21.1 20240331 274.6 94.803 147.27 3.793 0.603 2.313 ( 31d) MPO 3961 2000 08 02 704 LINEAR
    000000K00P08N K00P08N2000 PN8 0.981 1.525 0.08006 22.04 20240331 357.6 112.31 142.739 22.393 0.217 1.253 4 MPO649674 2000 08 05 608 NEAT
    000000K00Q07S K00Q07S2000 QS7 0.889 4.453 0.00666 19.48 20240331 129.1 218.908 153.432 3.203 0.667 2.671 5 MPO780967 2000 08 24 704 LINEAR
    000000K00Q07V K00Q07V2000 QV7 0.672 2.145 0.01697 21.55 20240331 79.6 79.557 154.76 9.124 0.523 1.409 5 MPO739987 2000 08 25 704 LINEAR
    000000K00Q69X K00Q69X2000 QX69 0.736 1.283 0.00026 24.2 20240331 164.8 74.195 150.142 4.574 0.271 1.01 ( 5d) MPO265605 2000 08 28 704 LINEAR
    000000K00R12K K00R12K2000 RK12 0.791 4.306 0.06471 22.06 20240331 275.8 251.799 161.065 31.831 0.69 2.549 ( 4d) MPO733996 2000 09 01 704 LINEAR
    000000K00R12N K00R12N2000 RN12 0.879 3.701 0.13446 20.0 20240331 268.8 80.646 337.447 16.867 0.616 2.29 2 MPO135766 2000 09 02 704 LINEAR
    000000K00R52E K00R52E2000 RE52 0.868 1.441 0.03118 22.33 20240331 71.4 258.158 344.156 18.459 0.248 1.154 2 MPO739988 2000 09 05 704 LINEAR
    000000K00S08G K00S08G2000 SG8 0.251 4.696 0.18263 17.71 20240331 7.7 152.261 337.989 24.214 0.898 2.474 4 E2024-G77 2000 09 21 699 LONEOS
    000000K00S10L K00S10L2000 SL10 0.907 1.836 0.01086 22.16 20240331 265.3 78.617 208.698 1.465 0.339 1.372 ( 69d) E2023-XR9 2000 09 23 704 LINEAR
    000000K00S10M K00S10M2000 SM10 0.765 2.565 0.0087 24.1 20240331 322.0 177.581 259.688 0.553 0.541 1.665 2 MPO437941 2000 09 23 704 LINEAR
    000000K00S45B K00S45B2000 SB45 0.94 2.179 0.00084 24.5 20240331 5.4 216.572 195.424 3.676 0.397 1.559 ( 3d) MPO 5076 2000 09 27 704 LINEAR
    000000K00T01L K00T01L2000 TL1 0.936 1.74 0.03545 23.5 20240331 101.8 279.448 27.193 3.606 0.3 1.338 4 MPO428245 2000 10 01 704 LINEAR
    000000K00T28U K00T28U2000 TU28 0.877 1.269 0.00048 21.05 20240331 321.4 280.946 202.986 15.596 0.183 1.073 3 MPO739988 2000 10 03 704 LINEAR
    000000K00U30O K00U30O2000 UO30 0.993 2.624 0.03919 23.9 20240331 215.6 30.473 40.08 12.59 0.451 1.809 2 MPO424537 2000 10 30 704 LINEAR
    000000K00U30Q K00U30Q2000 UQ30 0.952 2.541 0.01267 21.97 20240331 32.1 37.885 60.164 4.258 0.455 1.747 ( 52d) MPO780971 2000 10 31 704 LINEAR
    000000K00V44Z K00V44Z2000 VZ44 0.539 3.624 0.05184 21.0 20001023 339.2 128.445 8.715 5.33 0.741 2.081 ( 4d) MPO 6437 2000 11 01 704 Lincoln Laboratory ETS, New Mexico
    000000K00W10G K00W10G2000 WG10 0.925 1.405 0.03693 23.4 20240331 164.2 74.418 49.245 6.301 0.206 1.165 ( 5d) MPO265606 2000 11 19 704 LINEAR
    000000K00W10H K00W10H2000 WH10 0.844 4.213 0.04465 22.42 20240331 277.6 63.472 50.036 13.271 0.666 2.529 ( 4d) MPO733997 2000 11 19 704 LINEAR
    000000K00W28S K00W28S2000 WS28 0.891 3.213 0.01709 23.4 20240331 323.6 50.99 57.036 7.669 0.566 2.052 ( 3d) MPO265606 2000 11 20 704 LINEAR
    000000K00W63M K00W63M2000 WM63 0.868 1.191 0.12123 20.39 20240331 250.7 214.504 74.481 20.138 0.157 1.03 6 E2024-A48 2000 11 26 704 LINEAR
    000000K00WA7J K00WA7J2000 WJ107 0.862 3.035 0.00428 23.8 20240331 226.9 127.571 237.702 5.996 0.558 1.948 ( 24d) MPO 57787 2000 11 26 704 LINEAR
    000000K00WA7M K00WA7M2000 WM107 0.995 4.086 0.23258 18.7 20240331 295.0 281.183 71.391 19.361 0.608 2.541 6 MPO598766 2000 11 29 704 LINEAR
    000000K00WE8Q K00WE8Q2000 WQ148 0.828 3.232 0.01411 22.7 20240331 8.3 276.888 223.35 1.876 0.592 2.03 ( 12d) MPO 11005 2000 11 30 704 LINEAR
    000000K00X44J K00X44J2000 XJ44 0.624 3.642 0.09913 20.14 20240331 192.4 52.508 286.658 10.603 0.707 2.133 3 E2023-R01 2000 12 05 704 LINEAR
    000000K00Y00A K00Y00A2000 YA 0.829 3.921 0.00663 23.88 20240331 108.1 61.231 83.151 2.649 0.651 2.375 2 MPO739989 2000 12 16 699 LONEOS
    000000K01A43V K01A43V2001 AV43 0.974 1.593 0.00172 24.6 20240331 36.0 51.253 20.536 0.201 0.241 1.284 2 MPO277116 2001 01 05 704 LINEAR
    000000K01B10F K01B10F2001 BF10 0.901 2.321 0.00106 22.6 20240331 100.0 133.211 37.405 1.489 0.441 1.611 2 MPO264919 2001 01 17 704 LINEAR
    000000K01B15X K01B15X2001 BX15 0.786 3.063 0.08092 21.6 20240331 229.7 87.736 107.5 12.15 0.592 1.924 2 MPO437942 2001 01 18 704 LINEAR
    000000K01B16C K01B16C2001 BC16 0.953 2.467 0.03843 23.9 20240331 115.0 44.672 122.065 10.203 0.443 1.71 ( 62d) MPO 12273 2001 01 20 704 LINEAR
    000000K01B16D K01B16D2001 BD16 0.516 2.719 0.06665 20.26 20240331 124.5 246.644 119.567 18.1 0.681 1.617 4 E2024-DD1 2001 01 21 704 LINEAR
    000000K01B16E K01B16E2001 BE16 0.748 1.762 0.06278 19.89 20240331 114.1 106.151 121.903 39.386 0.404 1.255 4 MPO686050 2001 01 21 704 LINEAR
    000000K01B61N K01B61N2001 BN61 0.98 2.676 0.02268 25.0 20240331 145.7 334.345 118.78 9.74 0.464 1.828 ( 2d) MPO265607 2001 01 19 704 LINEAR
    000000K01C21A K01C21A2001 CA21 0.361 3.865 0.05005 18.6 20010131 343.2 212.755 51.8 5.258 0.829 2.113 ( 2d) MPO 11046 2001 02 02 704 Lincoln Laboratory ETS, New Mexico
    000000K01D47G K01D47G2001 DG47 0.973 1.92 0.09774 23.0 20240331 132.3 299.171 151.786 16.848 0.328 1.446 ( 58d) MPO 13814 2001 02 19 704 LINEAR
    000000K01D76Z K01D76Z2001 DZ76 0.91 3.769 0.00066 25.3 20240331 146.7 38.236 152.035 5.756 0.611 2.34 ( 3d) MPO 11062 2001 02 20 704 LINEAR
    000000K01E00C K01E00C2001 EC 0.609 4.588 0.00345 18.65 20240331 207.8 115.953 315.834 0.606 0.766 2.599 5 E2024-EF2 2001 03 03 704 LINEAR
    000000K01E16C K01E16C2001 EC16 0.856 1.835 0.01165 22.42 20240331 239.9 70.564 175.491 4.712 0.364 1.345 3 MPO780973 2001 03 15 608 NEAT
    000000K01F32P K01F32P2001 FP32 0.906 1.857 0.05354 23.87 20240331 30.8 64.059 182.514 29.806 0.344 1.381 ( 4d) MPO733997 2001 03 20 608 NEAT
    000000K01F58A K01F58A2001 FA58 0.633 3.878 0.04317 21.44 20240331 264.1 114.519 155.826 8.217 0.72 2.255 3 MPO739990 2001 03 23 699 LONEOS
    000000K01F58C K01F58C2001 FC58 0.67 1.371 0.01458 20.4 20240331 195.7 261.235 174.604 6.773 0.343 1.021 6 MPO140092 2001 03 23 704 LINEAR
    000000K01F90B K01F90B2001 FB90 0.564 4.251 0.03066 20.14 20240331 52.0 16.267 264.393 1.832 0.766 2.408 2 MPO791006 2001 03 21 608 NEAT
    000000K01F90F K01F90F2001 FF90 0.962 4.213 0.17127 17.26 20240331 155.3 291.356 354.387 23.285 0.628 2.588 4 E2023-R01 2001 03 26 608 NEAT
    000000K01FC8R K01FC8R2001 FR128 0.741 1.747 0.13954 19.88 20240331 146.0 123.322 183.906 45.33 0.404 1.244 3 MPO780973 2001 03 31 699 LONEOS
    000000K01G02L K01G02L2001 GL2 0.936 4.417 0.04134 20.47 20240331 82.1 42.948 191.816 34.766 0.65 2.676 ( 13d) MPO739991 2001 04 03 699 LONEOS
    000000K01G02M K01G02M2001 GM2 0.864 2.491 0.11077 20.44 20240331 225.9 100.527 37.401 21.172 0.485 1.678 2 MPO750185 2001 04 12 704 LINEAR
    000000K01G02O K01G02O2001 GO2 0.837 1.176 0.00404 24.3 20240331 353.2 265.55 193.507 4.616 0.168 1.007 ( 5d) MPO 30455 2001 04 13 704 LINEAR
    000000K01G02P K01G02P2001 GP2 0.96 1.11 0.00203 26.4 20240331 173.8 108.855 195.752 1.288 0.072 1.035 2 E2020-W27 2001 04 13 691 Spacewatch
    000000K01G02R K01G02R2001 GR2 0.705 3.02 0.01307 21.85 20240331 349.7 99.336 190.218 11.83 0.621 1.863 2 E2024-AF8 2001 04 14 704 LINEAR
    000000K01G02T K01G02T2001 GT2 0.891 3.917 0.04115 19.8 20240331 73.2 359.524 146.001 3.73 0.629 2.404 3 MPO232505 2001 04 15 699 LONEOS
    000000K01H31J K01H31J2001 HJ31 0.851 3.329 0.00557 23.8 20240331 226.7 132.932 20.789 2.753 0.593 2.09 ( 4d) MPO265607 2001 04 26 699 LONEOS
    000000K01H31L K01H31L2001 HL31 0.525 4.316 0.06348 20.18 20240331 7.9 291.723 33.623 13.225 0.783 2.42 ( 9d) MPO713665 2001 04 29 704 LINEAR
    000000K01J01V K01J01V2001 JV1 0.963 2.448 0.0217 21.50 20240331 77.0 201.061 92.21 6.621 0.435 1.705 4 E2021-V05 2001 05 14 644 NEAT
    000000K01K20M K01K20M2001 KM20 0.936 1.431 0.01641 23.91 20240331 222.0 251.623 56.023 3.729 0.209 1.184 3 MPO623325 2001 05 21 704 LINEAR
    000000K01K54F K01K54F2001 KF54 0.817 3.858 0.02065 19.81 20240331 108.7 170.884 172.481 1.632 0.65 2.338 4 E2023-W85 2001 05 26 691 Spacewatch
    000000K01L00D K01L00D2001 LD 0.887 1.955 0.03562 20.74 20240331 200.8 114.335 79.224 30.154 0.376 1.421 3 MPO750185 2001 06 02 704 LINEAR
    000000K01M03S K01M03S2001 MS3 0.991 3.278 0.02239 24.0 20240331 121.6 320.216 272.382 4.438 0.536 2.134 ( 13d) MPO 74093 2001 06 21 644 NEAT
    000000K01N13D K01N13D2001 ND13 0.851 2.164 0.10026 21.55 20240331 63.9 195.258 171.961 8.436 0.436 1.507 ( 19d) MPO739992 2001 07 13 644 NEAT
    000000K01O36C K01O36C2001 OC36 0.731 2.119 0.00466 22.9 20240331 90.2 289.094 106.234 2.35 0.487 1.425 ( 7d) MPO 16114 2001 07 25 608 NEAT
    000000K01P14G K01P14G2001 PG14 0.979 1.969 0.07696 22.5 20240331 257.5 115.489 154.654 10.744 0.336 1.474 ( 30d) MPO 18354 2001 08 14 644 NEAT
    000000K01P29J K01P29J2001 PJ29 0.88 2.015 0.02421 23.0 20240331 320.8 69.681 328.395 6.634 0.392 1.447 ( 15d) MPO 70298 2001 08 15 608 NEAT
    000000K01Q34E K01Q34E2001 QE34 0.573 3.742 0.06813 19.09 20240331 73.4 314.457 279.404 5.612 0.734 2.158 5 MPO739992 2001 08 18 704 LINEAR
    000000K01Q71E K01Q71E2001 QE71 0.907 1.249 0.00652 24.4 20240331 137.3 96.394 148.376 3.035 0.159 1.078 ( 25d) MPO 18380 2001 08 19 704 LINEAR
    000000K01Q96F K01Q96F2001 QF96 0.985 2.103 0.03256 24.5 20240331 258.1 224.38 158.781 6.641 0.362 1.544 ( 26d) MPO 57837 2001 08 22 691 Spacewatch
    000000K01Q96J K01Q96J2001 QJ96 0.323 2.861 0.00049 22.27 20240331 65.5 121.896 338.515 5.871 0.797 1.592 3 E2023-OB0 2001 08 23 699 LONEOS
    000000K01QE2J K01QE2J2001 QJ142 0.97 1.155 0.00956 23.98 20240331 307.6 63.699 184.286 3.11 0.087 1.063 3 E2024-G51 2001 08 23 704 LINEAR
    000000K01QE2M K01QE2M2001 QM142 0.706 1.764 0.03474 22.54 20240331 102.2 292.732 151.232 5.851 0.428 1.235 4 E2024-GF4 2001 08 25 691 Spacewatch
    000000K01QE2N K01QE2N2001 QN142 0.985 5.255 0.11489 21.75 20240331 52.6 110.742 163.878 10.241 0.684 3.12 3 E2023-OA1 2001 08 25 704 LINEAR
    000000K01QE2O K01QE2O2001 QO142 0.539 3.716 0.08728 19.3 20240331 68.3 200.155 262.118 5.5 0.747 2.128 3 MPO139150 2001 08 25 704 LINEAR
    000000K01QF3K K01QF3K2001 QK153 0.759 4.121 0.11607 20.74 20240331 349.3 2.643 260.583 7.563 0.689 2.44 2 E2024-D82 2001 08 27 704 LINEAR
    000000K01QG3L K01QG3L2001 QL163 0.98 2.532 0.05764 22.6 20240331 231.3 54.953 324.038 8.107 0.442 1.756 ( 13d) MPO265608 2001 08 25 704 LINEAR
    000000K01QG3M K01QG3M2001 QM163 0.622 4.032 0.15214 19.8 20240331 150.7 166.17 87.722 9.265 0.733 2.327 2 MPO145869 2001 08 26 644 NEAT
    000000K01R17W K01R17W2001 RW17 0.802 3.916 0.05922 20.22 20240331 113.0 94.616 160.628 8.661 0.66 2.359 3 E2023-XG5 2001 09 11 699 LONEOS
    000000K01S03Q K01S03Q2001 SQ3 0.827 1.392 0.02942 21.95 20240331 159.9 268.279 356.152 23.895 0.254 1.11 5 MPO739993 2001 09 17 704 LINEAR
    000000K01SG9Y K01SG9Y2001 SY169 0.742 1.669 0.00402 23.1 20240331 84.2 81.949 171.291 4.852 0.384 1.206 2 MPO601836 2001 09 19 704 LINEAR
    000000K01SH0B K01SH0B2001 SB170 0.73 1.997 0.00405 22.6 20240331 98.8 261.486 356.582 34.586 0.465 1.364 ( 23d) MPO 57844 2001 09 20 704 LINEAR
    000000K01SQ3P K01SQ3P2001 SP263 0.916 3.136 0.00307 25.7 20240331 277.6 227.249 178.38 1.522 0.548 2.026 ( 5d) MPO 87470 2001 09 21 704 LINEAR
    000000K01SQ9Y K01SQ9Y2001 SY269 0.677 2.683 0.02009 21.5 20240331 96.3 223.869 232.11 1.864 0.597 1.68 2 MPO 61082 2001 09 25 704 LINEAR
    000000K01SQ9Z K01SQ9Z2001 SZ269 0.8 3.93 0.03308 19.82 20240331 86.0 191.173 98.936 2.452 0.662 2.365 5 E2023-W66 2001 09 25 704 LINEAR
    000000K01SR0E K01SR0E2001 SE270 0.631 1.798 0.01547 25.1 20240331 250.7 107.683 356.941 5.347 0.481 1.215 ( 2d) MPO 18510 2001 09 25 704 LINEAR
    000000K01SR6H K01SR6H2001 SH276 0.842 1.214 0.09241 19.76 20240331 320.6 54.343 194.967 20.401 0.181 1.028 5 E2024-K11 2001 09 26 704 LINEAR
    000000K01SS6D K01SS6D2001 SD286 0.908 3.282 0.01057 25.3 20240331 163.9 131.412 181.779 6.318 0.567 2.095 ( 5d) MPO292079 2001 09 26 704 LINEAR
    000000K01T00B K01T00B2001 TB 0.814 2.612 0.0035 24.4 20240331 345.0 245.317 192.095 3.967 0.525 1.713 ( 3d) MPO 57845 2001 10 06 704 LINEAR
    000000K01T01Y K01T01Y2001 TY1 0.977 3.834 0.0043 25.0 20240331 10.9 342.985 9.524 5.857 0.594 2.405 ( 40d) MPO 74102 2001 10 09 704 LINEAR
    000000K01T02A K01T02A2001 TA2 0.624 2.917 0.03639 22.0 20240331 220.3 227.367 50.368 3.261 0.647 1.771 2 MPO600179 2001 10 11 704 LINEAR
    000000K01T45C K01T45C2001 TC45 0.792 3.642 0.02425 19.53 20240331 266.7 67.05 35.159 15.475 0.643 2.217 4 MPO649681 2001 10 15 704 LINEAR
    000000K01T45E K01T45E2001 TE45 0.97 2.641 0.09541 22.9 20240331 109.9 120.612 208.547 14.627 0.463 1.805 ( 6d) MPO 74103 2001 10 15 608 NEAT
    000000K01U00O K01U00O2001 UO 0.864 4.256 0.01965 24.1 20240331 188.4 304.351 20.875 10.347 0.663 2.56 ( 2d) MPO 70305 2001 10 16 291 Spacewatch
    000000K01U04X K01U04X2001 UX4 0.425 3.016 0.10867 19.36 20240331 312.2 333.959 182.313 8.972 0.753 1.721 8 E2023-R01 2001 10 16 704 LINEAR
    000000K01U05D K01U05D2001 UD5 0.764 3.79 0.00196 22.7 20240331 203.6 291.739 17.842 2.541 0.665 2.277 ( 23d) MPO377761 2001 10 19 644 NEAT
    000000K01U05F K01U05F2001 UF5 0.702 3.913 0.00531 22.7 20240331 139.3 53.607 55.872 0.917 0.696 2.308 ( 19d) MPO102047 2001 10 20 704 LINEAR
    000000K01U16N K01U16N2001 UN16 0.987 2.605 0.00929 23.4 20240331 126.7 144.31 210.1 1.653 0.45 1.796 ( 31d) MPO 21108 2001 10 21 704 LINEAR
    000000K01V00B K01V00B2001 VB 0.241 4.423 0.00271 18.4 20240331 84.1 233.196 297.242 8.357 0.897 2.332 ( 8d) MPO 21144 2001 11 04 704 LINEAR
    000000K01V02C K01V02C2001 VC2 0.904 1.179 0.01943 21.29 20240331 274.4 103.861 67.044 12.509 0.132 1.041 4 E2024-DB9 2001 11 07 704 LINEAR
    000000K01V02E K01V02E2001 VE2 0.906 1.306 0.01319 25.0 20240331 35.0 73.938 47.065 4.392 0.181 1.106 ( 7d) MPO 23896 2001 11 09 704 LINEAR
    000000K01V05J K01V05J2001 VJ5 0.848 3.018 0.02609 22.0 20240331 102.3 67.635 44.685 6.06 0.561 1.933 2 MPO441694 2001 11 11 704 LINEAR
    000000K01V16G K01V16G2001 VG16 0.998 2.511 0.01732 25.3 20240331 219.9 14.389 48.43 11.634 0.431 1.754 ( 4d) MPO 21148 2001 11 12 704 LINEAR
    000000K01V75F K01V75F2001 VF75 0.932 3.277 0.16189 21.61 20240331 101.9 74.527 47.601 19.438 0.557 2.104 ( 9d) MPO734000 2001 11 11 691 Spacewatch
    000000K01V76E K01V76E2001 VE76 0.847 2.637 0.03393 23.6 20240331 242.8 263.0 216.874 4.169 0.514 1.742 ( 6d) MPO265612 2001 11 15 704 LINEAR
    000000K01W01H K01W01H2001 WH1 0.507 4.448 0.05881 20.4 20240331 259.2 108.654 67.031 15.6 0.795 2.478 ( 24d) MPO 23929 2001 11 17 704 LINEAR
    000000K01W01V K01W01V2001 WV1 0.768 2.035 0.00206 22.5 20240331 134.4 288.643 206.407 1.492 0.452 1.402 ( 3d) MPO 21162 2001 11 18 704 LINEAR
    000000K01W04J K01W04J2001 WJ4 0.984 1.528 0.00552 27.4 20240331 309.5 18.753 57.148 7.905 0.217 1.256 ( 1d) MPO 21163 2001 11 20 291 Spacewatch
    000000K01W15J K01W15J2001 WJ15 0.644 2.325 0.00607 23.6 20240331 161.3 88.09 239.104 8.947 0.566 1.484 ( 28d) MPO 74110 2001 11 21 704 LINEAR
    000000K01W15K K01W15K2001 WK15 0.985 1.297 0.07667 21.34 20240331 39.0 99.967 66.337 24.511 0.137 1.141 4 E2023-X01 2001 11 21 704 LINEAR
    000000K01W15M K01W15M2001 WM15 0.756 2.94 0.00546 25.0 20240331 300.8 251.705 243.5 5.244 0.591 1.848 ( 4d) MPO 23932 2001 11 24 704 LINEAR
    000000K01W15N K01W15N2001 WN15 0.375 4.171 0.21334 19.4 20240331 207.0 51.432 244.194 56.946 0.835 2.273 ( 12d) MPO 23933 2001 11 24 704 LINEAR
    000000K01W15O K01W15O2001 WO15 0.913 2.696 0.0098 22.6 20240331 87.7 315.741 65.852 7.721 0.494 1.804 2 MPO466181 2001 11 24 704 LINEAR
    000000K01W49H K01W49H2001 WH49 0.997 1.936 0.03252 26.0 20240331 228.8 142.655 237.974 4.813 0.32 1.467 ( 1d) MPO265612 2001 11 24 291 Spacewatch
    000000K01X00P K01X00P2001 XP 0.607 1.664 0.15923 20.8 20240331 86.8 125.974 68.814 31.51 0.466 1.135 ( 30d) MPO306935 2001 12 06 704 LINEAR
    000000K01X01G K01X01G2001 XG1 0.799 3.197 0.01933 23.2 20240331 302.0 82.253 55.795 2.985 0.6 1.998 2 MPO561913 2001 12 08 704 LINEAR
    000000K01X04U K01X04U2001 XU4 0.853 1.187 0.05278 23.8 20240331 329.9 69.813 259.314 12.704 0.164 1.02 ( 5d) MPO265612 2001 12 09 704 LINEAR
    000000K01X04X K01X04X2001 XX4 0.446 1.567 0.01131 22.1 20240331 90.9 186.829 127.072 0.849 0.557 1.006 2 MPO 74111 2001 12 11 704 LINEAR
    000000K01X10W K01X10W2001 XW10 0.486 3.717 0.07838 19.61 20240331 131.0 353.862 340.357 4.653 0.769 2.101 2 E2024-B03 2001 12 11 704 LINEAR
    000000K01X16H K01X16H2001 XH16 0.784 3.424 0.00531 24.8 20240331 126.1 291.284 79.096 2.644 0.627 2.104 ( 11d) MPO 23946 2001 12 09 568 D. C. Jewitt
    000000K01X31P K01X31P2001 XP31 0.705 1.588 0.01164 22.16 20240331 128.6 81.734 241.231 6.133 0.385 1.146 3 MPO703108 2001 12 11 704 LINEAR
    000000K01X88O K01X88O2001 XO88 0.994 4.007 0.05682 22.0 20240331 243.7 317.356 85.268 7.158 0.602 2.5 ( 26d) MPO265612 2001 12 14 704 LINEAR
    000000K01XA3X K01XA3X2001 XX103 0.68 3.399 0.01531 23.6 20240331 211.9 85.188 79.46 6.16 0.667 2.04 ( 5d) MPO 23969 2001 12 15 704 LINEAR
    000000K01Y01C K01Y01C2001 YC1 0.868 1.521 0.03256 24.93 20240331 339.0 252.925 263.774 20.263 0.273 1.194 ( 2d) MPO734001 2001 12 17 704 LINEAR
    000000K01Y01D K01Y01D2001 YD1 0.796 2.18 0.01602 24.4 20240331 123.8 285.476 85.697 7.047 0.465 1.488 ( 7d) MPO265613 2001 12 17 704 LINEAR
    000000K01Y01E K01Y01E2001 YE1 0.953 2.871 0.0586 20.90 20240331 127.3 98.088 65.579 4.459 0.502 1.912 ( 58d) MPO750185 2001 12 17 704 LINEAR
    000000K01Y02N K01Y02N2001 YN2 0.7 4.313 0.00095 25.4 20240331 229.6 290.022 82.396 1.632 0.721 2.507 ( 21d) MPO 24004 2001 12 18 704 LINEAR
    000000K01Y02O K01Y02O2001 YO2 0.404 2.183 0.15566 21.33 20240331 2.7 311.558 266.102 48.049 0.688 1.293 ( 24d) MPO780986 2001 12 18 704 LINEAR
    000000K01Y03P K01Y03P2001 YP3 0.941 4.044 0.01779 22.0 20240331 221.9 36.274 101.927 7.931 0.622 2.493 2 MPO 94413 2001 12 19 704 LINEAR
    000000K01Y03V K01Y03V2001 YV3 0.547 3.344 0.0333 20.57 20240331 93.5 244.423 107.212 5.2 0.719 1.946 4 MPO750185 2001 12 22 608 NEAT
    000000K01Y05B K01Y05B2001 YB5 0.317 4.364 0.00343 20.74 20240331 59.7 115.362 108.318 5.55 0.865 2.34 ( 11d) MPO780986 2001 12 27 644 NEAT
    000000K02A00V K02A00V2002 AV 0.847 4.096 0.02017 20.9 20240331 276.2 286.03 123.618 2.847 0.657 2.472 2 MPO264922 2002 01 05 704 LINEAR
    000000K02A01Z K02A01Z2002 AZ1 0.706 3.518 0.0159 21.4 20240331 58.1 97.082 113.6 8.146 0.666 2.112 ( 35d) MPO542813 2002 01 07 691 Steward Observatory, Kitt Peak-Spacewatch
    000000K02A04S K02A04S2002 AS4 0.255 2.216 0.03596 22.26 20240331 99.1 42.676 285.386 26.296 0.794 1.236 2 E2024-D82 2002 01 08 704 LINEAR
    000000K02A09C K02A09C2002 AC9 0.748 2.657 0.02875 21.23 20240331 25.7 28.621 2.425 2.277 0.561 1.703 3 MPO732417 2002 01 09 704 LINEAR
    000000K02A14K K02A14K2002 AK14 0.909 1.124 0.08211 21.5 20240331 9.3 222.349 117.361 18.018 0.106 1.016 2 MPO230183 2002 01 11 704 LINEAR
    000000K02A29D K02A29D2002 AD29 0.924 2.593 0.24982 21.0 20240331 224.9 273.248 112.593 31.719 0.475 1.758 ( 11d) MPO 62385 2002 01 13 704 LINEAR
    000000K02A29E K02A29E2002 AE29 0.924 3.834 0.02063 24.6 20240331 22.1 307.371 117.535 3.634 0.612 2.379 ( 5d) MPO265613 2002 01 13 704 LINEAR
    000000K02A31L K02A31L2002 AL31 0.886 1.468 0.01299 24.5 20240331 99.2 247.157 297.655 7.599 0.247 1.177 ( 8d) MPO 24038 2002 01 14 644 NEAT
    000000K02A69J K02A69J2002 AJ69 0.697 1.699 0.21909 21.30 20240331 65.6 227.028 116.009 27.268 0.418 1.198 2 MPO739995 2002 01 14 704 LINEAR
    000000K02AC9N K02AC9N2002 AN129 0.864 2.688 0.00197 26.2 20240331 119.7 73.653 95.206 0.278 0.513 1.776 ( 2d) MPO 24052 2002 01 14 704 LINEAR
    000000K02B02J K02B02J2002 BJ2 0.709 3.389 0.07768 17.20 20240331 236.6 60.978 16.43 26.097 0.654 2.049 4 E2024-ED3 2002 01 21 333 W. K. Y. Yeung
    000000K02B25F K02B25F2002 BF25 0.836 1.313 0.01847 22.62 20240331 52.4 77.885 305.771 6.313 0.222 1.075 5 MPO750185 2002 01 25 704 LINEAR
    000000K02B25G K02B25G2002 BG25 0.944 1.52 0.05276 20.9 20240331 32.9 239.251 316.537 48.817 0.234 1.232 3 MPO411499 2002 01 25 704 LINEAR
    000000K02C09Y K02C09Y2002 CY9 0.811 2.483 0.00672 19.2 20240331 198.0 117.364 305.289 41.961 0.507 1.647 3 MPO553959 2002 02 06 704 LINEAR
    000000K02C11V K02C11V2002 CV11 0.941 2.17 0.03501 23.8 20240331 167.9 314.429 136.512 17.129 0.395 1.556 ( 7d) MPO243017 2002 02 07 704 LINEAR
    000000K02C15N K02C15N2002 CN15 0.403 2.246 0.06156 20.80 20240331 143.6 332.197 298.514 6.124 0.696 1.324 3 E2023-X25 2002 02 08 703 CSS
    000000K02C19B K02C19B2002 CB19 0.703 1.862 0.00122 25.16 20240331 122.3 88.761 318.028 17.128 0.452 1.283 2 MPO750185 2002 02 07 704 LINEAR
    000000K02C26A K02C26A2002 CA26 0.79 4.021 0.00257 27.3 20240331 334.0 317.536 120.75 0.496 0.672 2.406 ( 4d) MPO 26156 2002 02 08 704 LINEAR
    000000K02C26B K02C26B2002 CB26 0.535 3.438 0.0019 26.9 20240331 341.3 266.104 139.344 6.884 0.731 1.986 ( 4d) MPO 26156 2002 02 10 704 LINEAR
    000000K02C46U K02C46U2002 CU46 0.755 2.715 0.09271 21.1 20240331 215.6 92.978 144.95 32.154 0.565 1.735 ( 21d) MPO 87528 2002 02 11 704 LINEAR
    000000K02D02H K02D02H2002 DH2 0.944 3.162 0.07268 20.3 20240331 170.9 231.924 345.473 20.908 0.54 2.053 2 MPO 72539 2002 02 20 699 LONEOS
    000000K02D03O K02D03O2002 DO3 0.933 2.79 0.02928 22.0 20240331 232.2 165.7 56.108 3.801 0.499 1.861 ( 34d) MPO 30697 2002 02 21 704 LINEAR
    000000K02E00A K02E00A2002 EA 0.795 1.962 0.03619 22.57 20240331 191.4 262.977 342.279 11.283 0.423 1.379 ( 9d) E2023-P78 2002 03 02 941 R. Ferrando
    000000K02E00W K02E00W2002 EW 0.332 2.795 0.06651 20.91 20240331 129.8 24.285 15.771 6.713 0.788 1.563 3 MPO739997 2002 03 05 704 LINEAR
    000000K02E00Y K02E00Y2002 EY 0.788 3.483 0.10974 20.25 20240331 45.9 265.46 170.324 20.215 0.631 2.135 2 MPO780989 2002 03 06 644 NEAT
    000000K02E03C K02E03C2002 EC3 0.842 1.733 0.05675 21.35 20240331 346.7 264.236 355.286 13.902 0.346 1.287 5 MPO739997 2002 03 09 704 LINEAR
    000000K02E07N K02E07N2002 EN7 0.796 1.698 0.06019 21.38 20240331 224.0 297.293 350.228 22.132 0.362 1.247 3 MPO780989 2002 03 12 644 NEAT
    000000K02E08W K02E08W2002 EW8 0.998 2.697 0.04139 23.84 20240331 292.5 328.617 176.518 11.375 0.46 1.847 2 MPO598782 2002 03 13 704 LINEAR
    000000K02E08X K02E08X2002 EX8 0.856 2.931 0.06592 20.90 20240331 148.6 66.511 177.494 26.087 0.548 1.893 4 E2023-Q93 2002 03 13 704 LINEAR
    000000K02E11U K02E11U2002 EU11 0.75 3.944 0.01454 21.9 20240331 35.0 274.871 345.936 2.92 0.68 2.347 ( 13d) MPO 30703 2002 03 13 704 LINEAR
    000000K02E11V K02E11V2002 EV11 0.231 3.968 0.04454 20.0 20240331 111.5 218.076 183.622 11.605 0.89 2.1 4 MPO294791 2002 03 13 704 LINEAR
    000000K02E11W K02E11W2002 EW11 0.868 2.169 0.01303 24.8 20240331 256.6 66.969 169.499 3.752 0.428 1.519 ( 10d) MPO 74151 2002 03 14 704 LINEAR
    000000K02F00B K02F00B2002 FB 0.981 1.43 0.0145 26.6 20240331 260.5 143.425 355.7 7.031 0.186 1.205 ( 2d) MPO265614 2002 03 16 704 LINEAR
    000000K02F05Q K02F05Q2002 FQ5 0.789 3.043 0.03434 20.64 20240331 80.9 80.794 196.172 7.558 0.588 1.916 3 MPO739998 2002 03 20 699 LONEOS
    000000K02F05U K02F05U2002 FU5 0.745 4.257 0.05264 21.0 20240331 178.5 156.633 111.466 4.245 0.702 2.501 ( 34d) MPO 87536 2002 03 20 644 NEAT
    000000K02F07O K02F07O2002 FO7 0.674 1.763 0.2999 20.15 20240331 264.2 204.585 168.344 26.024 0.447 1.218 4 E2024-G02 2002 03 20 691 Spacewatch
    000000K02G00R K02G00R2002 GR 0.952 1.451 0.0063 23.2 20240331 288.4 313.796 183.771 7.327 0.207 1.201 ( 48d) MPO 31990 2002 04 03 704 LINEAR
    000000K02G01J K02G01J2002 GJ1 0.992 3.0 0.03232 23.3 20240331 275.2 36.066 187.53 6.935 0.503 1.996 ( 1d) MPO265615 2002 04 04 608 NEAT
    000000K02G01K K02G01K2002 GK1 0.95 4.138 0.01249 22.5 20240331 153.5 214.955 20.765 12.909 0.627 2.544 ( 6d) MPO 30733 2002 04 04 704 LINEAR
    000000K02G05M K02G05M2002 GM5 0.642 3.632 0.00582 21.92 20240331 352.2 274.894 13.143 7.332 0.699 2.137 ( 7d) E2023-QE4 2002 04 10 704 LINEAR
    000000K02G08G K02G08G2002 GG8 0.989 3.624 0.03538 24.7 20240331 103.6 327.795 201.151 12.531 0.571 2.306 ( 21d) MPO 30735 2002 04 11 704 LINEAR
    000000K02H11P K02H11P2002 HP11 0.487 3.651 0.01577 20.50 20240331 157.0 90.569 9.041 5.133 0.764 2.069 2 MPO739999 2002 04 21 704 LINEAR
    000000K02J02S K02J02S2002 JS2 0.365 3.881 0.09392 18.48 20240331 40.6 321.463 122.734 11.773 0.828 2.123 7 E2024-JF3 2002 05 04 704 LINEAR
    000000K02J09D K02J09D2002 JD9 0.591 1.521 0.05378 23.2 20240331 358.6 139.094 208.16 6.613 0.44 1.056 4 MPO473061 2002 05 07 704 LINEAR
    000000K02J09Q K02J09Q2002 JQ9 0.7 1.613 0.04827 19.24 20240331 271.8 76.101 51.876 24.997 0.394 1.156 6 MPO649687 2002 05 06 704 LINEAR
    000000K02J15U K02J15U2002 JU15 0.932 1.427 0.00317 26.2 20240331 75.5 302.725 223.126 10.581 0.21 1.179 ( 12d) MPO 32016 2002 05 08 704 LINEAR
    000000K02K03M K02K03M2002 KM3 0.831 1.7 0.04746 22.3 20240331 75.8 92.415 236.786 9.438 0.343 1.265 2 MPO561921 2002 05 19 291 Spacewatch
    000000K02K04G K02K04G2002 KG4 0.995 4.89 0.03517 20.9 20240331 126.0 149.917 64.421 27.645 0.662 2.942 ( 31d) MPO 32034 2002 05 22 704 LINEAR
    000000K02L00K K02L00K2002 LK 0.939 1.267 0.02252 24.38 20240331 3.4 285.653 248.42 25.017 0.148 1.103 ( 6d) MPO780991 2002 06 01 246 Klet Observatory-KLENOT
    000000K02L00W K02L00W2002 LW 0.913 1.12 0.03311 22.4 20240331 356.6 126.162 250.105 11.175 0.102 1.016 2 MPO167578 2002 06 02 644 NEAT
    000000K02L00X K02L00X2002 LX 0.833 4.2 0.03756 21.22 20240331 186.3 345.464 197.44 3.241 0.669 2.516 4 MPO686069 2002 06 03 704 LINEAR
    000000K02L03G K02L03G2002 LG3 0.591 4.124 0.10357 19.94 20240331 343.5 174.469 182.282 6.143 0.749 2.358 3 E2024-E02 2002 06 05 699 LONEOS
    000000K02L24R K02L24R2002 LR24 1.0 1.508 0.0216 24.3 20240331 169.2 38.593 256.42 20.016 0.203 1.254 ( 7d) MPO 32039 2002 06 08 704 LINEAR
    000000K02L45Z K02L45Z2002 LZ45 0.837 3.778 0.00633 23.05 20240331 60.2 240.314 90.869 6.163 0.637 2.307 ( 10d) MPO780991 2002 06 14 704 LINEAR
    000000K02L64X K02L64X2002 LX64 0.583 2.132 0.04159 21.2 20240331 325.5 230.986 285.506 4.846 0.571 1.357 4 MPO639815 2002 06 13 644 NEAT
    000000K02M00N K02M00N2002 MN 0.908 2.72 0.00042 23.6 20240331 343.0 131.542 85.327 1.048 0.499 1.814 ( 53d) MPO 34019 2002 06 17 704 LINEAR
    000000K02M00X K02M00X2002 MX 0.51 4.497 0.01458 21.7 20240331 191.4 238.098 283.778 1.952 0.796 2.504 ( 19d) MPO271188 2002 06 17 704 LINEAR
    000000K02M03R K02M03R2002 MR3 0.571 2.439 0.04159 21.4 20240331 298.8 67.443 110.2 9.787 0.62 1.505 ( 8d) MPO 34019 2002 06 30 704 LINEAR
    000000K02M03S K02M03S2002 MS3 0.924 3.858 0.08514 19.25 20240331 296.9 240.06 105.73 21.753 0.614 2.391 2 E2021-V83 2002 06 30 644 NEAT
    000000K02M03T K02M03T2002 MT3 0.938 4.801 0.00422 19.9 20240331 232.5 27.465 167.459 6.296 0.673 2.87 ( 31d) MPO 66278 2002 06 30 644 NEAT
    000000K02N00W K02N00W2002 NW 0.534 2.687 0.01409 24.2 20240331 201.1 288.279 102.127 6.044 0.669 1.61 ( 6d) MPO 34020 2002 07 05 644 NEAT
    000000K02N40Y K02N40Y2002 NY40 0.598 3.502 0.00129 19.0 20240331 115.8 269.88 145.293 5.894 0.708 2.05 3 MPO553967 2002 07 14 704 LINEAR
    000000K02N71E K02N71E2002 NE71 0.795 3.034 0.0502 19.26 20240331 26.5 144.188 264.509 7.194 0.585 1.914 3 MPO740000 2002 07 08 644 NEAT
    000000K02O21Y K02O21Y2002 OY21 0.448 2.269 0.08753 20.73 20240331 204.9 314.504 119.076 13.942 0.67 1.358 2 E2024-H80 2002 07 29 644 NEAT
    000000K02P00B K02P00B2002 PB 0.704 1.441 0.16701 20.63 20240331 269.3 49.389 142.765 32.947 0.343 1.072 4 E2023-O40 2002 08 01 704 LINEAR
    000000K02P00N K02P00N2002 PN 0.945 1.084 0.00427 24.8 20240331 332.7 107.607 309.461 9.144 0.069 1.014 (249d) MPO 48243 2002 08 02 G78 W. K. Y. Yeung
    000000K02P11D K02P11D2002 PD11 0.305 4.142 0.10666 20.1 20240331 171.8 150.731 296.812 12.135 0.863 2.224 ( 37d) MPO 62393 2002 08 05 644 NEAT
    000000K02P39X K02P39X2002 PX39 0.998 3.907 0.01141 23.4 20240331 234.9 140.657 135.307 1.8 0.593 2.453 ( 40d) MPO193932 2002 08 08 644 NEAT
    000000K02PD0E K02PD0E2002 PE130 0.956 4.146 0.01557 18.51 20240331 91.2 33.965 357.215 15.555 0.625 2.551 3 MPO740001 2002 08 14 704 LINEAR
    000000K02Q40Q K02Q40Q2002 QQ40 0.53 1.9 0.02808 21.48 20240331 346.9 356.515 104.061 1.722 0.564 1.215 3 MPO750185 2002 08 30 644 NEAT
    000000K02Q46G K02Q46G2002 QG46 0.893 3.959 0.0978 19.75 20240331 267.0 268.652 345.452 8.309 0.632 2.426 4 MPO740002 2002 08 30 644 NEAT
    000000K02Q47W K02Q47W2002 QW47 0.949 2.993 0.00331 20.79 20240331 311.7 140.898 116.246 4.22 0.519 1.971 3 E2023-X25 2002 08 30 644 NEAT
    000000K02R00T K02R00T2002 RT 0.412 2.593 0.16846 20.95 20240331 221.5 131.494 337.952 38.839 0.726 1.502 2 MPO750185 2002 09 03 644 NEAT
    000000K02RB7C K02RB7C2002 RC117 0.897 3.994 0.00141 24.9 20240331 221.3 222.019 169.849 2.502 0.633 2.445 ( 15d) MPO 57891 2002 09 06 704 LINEAR
    000000K02RC5Z K02RC5Z2002 RZ125 0.658 2.171 0.17133 20.49 20240331 341.7 56.62 171.815 28.967 0.535 1.415 ( 20d) E2023-QG4 2002 09 10 644 NEAT
    000000K02RC9S K02RC9S2002 RS129 0.692 1.37 0.0167 22.89 20240331 296.3 247.152 338.848 8.446 0.329 1.031 4 MPO780998 2002 09 12 644 NEAT
    000000K02RC9T K02RC9T2002 RT129 0.448 3.215 0.09542 19.68 20240331 273.3 55.983 178.364 19.577 0.755 1.831 6 MPO723679 2002 09 12 644 NEAT
    000000K02RI2B K02RI2B2002 RB182 0.895 4.053 0.00203 23.1 20240331 184.2 253.94 165.806 0.228 0.638 2.474 ( 2d) MPO265619 2002 09 14 644 NEAT
    000000K02S41Q K02S41Q2002 SQ41 0.526 4.701 0.01615 20.26 20240331 23.5 96.027 21.569 25.109 0.799 2.614 2 E2024-D82 2002 09 29 608 NEAT
    000000K02T55X K02T55X2002 TX55 0.956 3.515 0.00282 23.87 20240331 164.6 149.04 190.058 4.39 0.572 2.236 3 MPO723680 2002 10 03 704 LINEAR
    000000K02T57Z K02T57Z2002 TZ57 0.925 1.503 0.04269 24.6 20240331 78.4 290.959 7.778 16.099 0.238 1.214 ( 7d) MPO 38453 2002 10 03 704 LINEAR
    000000K02T58A K02T58A2002 TA58 0.934 4.011 0.00209 26.8 20240331 184.5 217.878 191.995 1.686 0.622 2.472 ( 4d) MPO 38453 2002 10 03 704 LINEAR
    000000K02T59Y K02T59Y2002 TY59 0.781 1.255 0.0024 25.5 20240331 38.5 259.361 9.689 6.605 0.233 1.018 ( 26d) MPO 77658 2002 10 04 704 LINEAR
    000000K02T59Z K02T59Z2002 TZ59 0.416 5.01 0.00443 23.39 20240331 307.7 253.009 4.001 16.19 0.847 2.713 ( 5d) MPO713680 2002 10 04 704 LINEAR
    000000K02T60A K02T60A2002 TA60 0.551 1.756 0.12157 20.92 20240331 188.7 233.644 11.742 28.203 0.522 1.153 3 MPO781002 2002 10 05 704 LINEAR
    000000K02T66G K02T66G2002 TG66 0.87 2.932 0.01659 23.9 20240331 86.0 140.808 173.927 4.752 0.542 1.901 ( 10d) MPO 74220 2002 10 06 644 NEAT
    000000K02T67A K02T67A2002 TA67 0.745 1.569 0.00963 22.8 20240331 142.7 86.183 191.206 30.051 0.356 1.157 ( 7d) MPO 38456 2002 10 07 291 Spacewatch
    000000K02T69A K02T69A2002 TA69 0.945 3.606 0.07418 18.54 20240331 79.8 48.03 28.252 38.66 0.585 2.276 3 MPO740004 2002 10 09 704 LINEAR
    000000K02T70B K02T70B2002 TB70 0.984 1.282 0.01532 21.6 20240331 124.5 350.884 195.024 16.66 0.132 1.133 4 E2020-T33 2002 10 10 644 NEAT
    000000K02U12Q K02U12Q2002 UQ12 0.531 2.991 0.02668 22.39 20240331 39.6 310.125 190.107 2.859 0.698 1.761 4 MPO781007 2002 10 30 704 LINEAR
    000000K02U36V K02U36V2002 UV36 0.985 3.932 0.00495 26.5 20240331 200.2 356.128 32.575 2.869 0.599 2.458 ( 14d) MPO 38507 2002 10 31 291 Spacewatch
    000000K02V14R K02V14R2002 VR14 0.815 2.441 0.02692 22.4 20240331 79.2 44.308 76.189 5.533 0.499 1.628 ( 39d) MPO306938 2002 11 05 644 NEAT
    000000K02V14S K02V14S2002 VS14 0.704 1.314 0.12617 21.8 20240331 148.7 226.978 42.402 23.544 0.302 1.009 4 MPO202395 2002 11 06 699 LONEOS
    000000K02V17U K02V17U2002 VU17 0.924 3.999 0.0068 24.9 20240331 193.9 309.874 55.427 1.493 0.625 2.461 ( 29d) MPO 41849 2002 11 07 704 LINEAR
    000000K02V69O K02V69O2002 VO69 0.938 1.939 0.05713 22.9 20240331 112.6 55.866 47.251 20.905 0.348 1.438 ( 9d) MPO 62429 2002 11 11 704 LINEAR
    000000K02V85R K02V85R2002 VR85 0.718 2.909 0.02768 20.3 20240331 237.5 299.32 204.438 6.035 0.604 1.814 3 MPO553979 2002 11 12 704 LINEAR
    000000K02V85S K02V85S2002 VS85 0.631 2.25 0.03357 24.1 20240331 99.7 275.945 230.19 24.761 0.562 1.441 ( 3d) MPO 62430 2002 11 12 704 LINEAR
    000000K02V91Y K02V91Y2002 VY91 0.972 3.673 0.00519 26.3 20240331 21.6 155.989 227.997 3.422 0.582 2.322 ( 22d) MPO 41866 2002 11 12 704 LINEAR
    000000K02V91Z K02V91Z2002 VZ91 0.97 2.179 0.00744 26.1 20240331 307.5 329.387 48.526 3.505 0.384 1.574 ( 16d) MPO 41866 2002 11 12 704 LINEAR
    000000K02VB4U K02VB4U2002 VU114 0.843 1.517 0.03453 22.8 20240331 176.1 151.279 352.785 2.776 0.286 1.18 3 MPO598811 2002 11 15 704 LINEAR
    000000K02W12X K02W12X2002 WX12 0.599 2.909 0.12832 20.05 20240331 36.6 328.769 211.448 8.697 0.659 1.754 4 E2023-Y99 2002 11 30 704 LINEAR
    000000K02X04T K02X04T2002 XT4 0.929 2.29 0.01914 24.0 20240331 178.2 313.302 67.254 7.512 0.423 1.61 ( 28d) MPO112838 2002 12 02 704 LINEAR
    000000K02X14O K02X14O2002 XO14 0.982 4.585 0.0004 22.1 20240331 202.2 184.885 295.306 2.617 0.647 2.784 (131d) MPO 62434 2002 12 06 704 LINEAR
    000000K02X35M K02X35M2002 XM35 0.399 4.352 0.03634 23.76 20240331 306.7 323.881 218.871 3.625 0.832 2.375 ( 1d) MPO734004 2002 12 01 704 LINEAR
    000000K02X40B K02X40B2002 XB40 0.827 2.879 0.00935 23.9 20240331 178.0 118.569 255.379 6.812 0.554 1.853 ( 18d) MPO110948 2002 12 10 704 LINEAR
    000000K02X40F K02X40F2002 XF40 0.964 2.398 0.02088 24.9 20240331 292.1 326.753 74.848 10.119 0.427 1.681 ( 3d) MPO265626 2002 12 10 704 LINEAR
    000000K02X40Q K02X40Q2002 XQ40 0.698 1.453 0.00646 22.38 20240331 101.6 73.3 270.077 2.19 0.351 1.075 6 MPO750185 2002 12 11 704 LINEAR
    000000K02X84E K02X84E2002 XE84 0.958 4.3 0.12752 21.3 20240331 356.3 54.948 73.505 27.929 0.636 2.629 2 MPO504807 2002 12 13 704 LINEAR
    000000K02X90Q K02X90Q2002 XQ90 0.927 3.421 0.02791 22.50 20240331 244.7 116.601 281.759 3.258 0.573 2.174 2 E2023-WB0 2002 12 15 704 LINEAR
    000000K02X90T K02X90T2002 XT90 0.799 1.26 0.1732 19.03 20240331 236.3 43.087 287.665 43.385 0.224 1.03 5 E2024-DD1 2002 12 15 704 LINEAR
    000000K02X90V K02X90V2002 XV90 0.985 2.169 0.00115 25.28 20240331 272.7 356.347 78.98 9.971 0.376 1.577 ( 19d) E2023-O30 2002 12 13 704 LINEAR
    000000K02Y12C K02Y12C2002 YC12 0.963 2.474 0.02368 25.3 20240331 146.5 33.293 99.244 11.398 0.44 1.718 ( 7d) MPO 41901 2002 12 31 704 LINEAR
    000000K03A02Y K03A02Y2003 AY2 0.795 2.851 0.02161 19.73 20240331 199.5 286.063 274.906 10.323 0.564 1.823 6 E2023-R03 2003 01 02 699 LONEOS
    000000K03A23B K03A23B2003 AB23 0.896 2.213 0.08184 20.22 20240331 27.9 257.751 113.374 13.374 0.424 1.555 4 MPO750185 2003 01 07 704 LINEAR
    000000K03A23C K03A23C2003 AC23 0.907 3.434 0.00666 21.9 20240331 214.8 126.451 43.736 2.06 0.582 2.17 2 MPO466188 2003 01 07 704 LINEAR
    000000K03A42S K03A42S2003 AS42 0.989 2.015 0.02524 25.3 20240331 180.9 24.281 107.32 9.978 0.341 1.502 ( 3d) MPO265627 2003 01 08 704 LINEAR
    000000K03A69J K03A69J2003 AJ69 0.959 3.99 0.01207 24.9 20240331 176.5 130.562 303.173 1.461 0.612 2.474 ( 13d) MPO 41918 2003 01 10 704 LINEAR
    000000K03A73K K03A73K2003 AK73 0.737 4.153 0.05807 19.5 20240331 207.5 195.77 175.46 4.04 0.698 2.445 2 MPO114693 2003 01 11 644 NEAT
    000000K03A83A K03A83A2003 AA83 0.538 4.567 0.06726 22.8 20030101 343.4 126.248 88.771 6.916 0.789 2.553 ( 6d) MPO 41920 2003 01 13 704 Lincoln Laboratory ETS, New Mexico
    000000K03B01N K03B01N2003 BN1 0.788 2.286 0.05654 20.59 20240331 69.3 104.333 298.802 61.053 0.487 1.537 2 E2024-B28 2003 01 25 699 LONEOS
    000000K03B04M K03B04M2003 BM4 0.794 1.605 0.02088 24.95 20240331 0.7 84.71 125.343 9.63 0.338 1.199 3 E2024-D45 2003 01 26 699 LONEOS
    000000K03B21B K03B21B2003 BB21 0.994 3.464 0.0264 21.05 20240331 110.1 212.78 344.124 4.773 0.554 2.229 3 MPO750185 2003 01 27 704 LINEAR
    000000K03B33W K03B33W2003 BW33 0.99 3.201 0.17071 21.3 20240331 336.9 242.035 300.787 24.952 0.528 2.095 ( 46d) MPO 48318 2003 01 27 704 LINEAR
    000000K03B35S K03B35S2003 BS35 0.996 1.518 0.0274 24.7 20240331 353.0 27.456 127.288 8.525 0.208 1.257 ( 11d) MPO265627 2003 01 27 608 NEAT
    000000K03B35V K03B35V2003 BV35 0.706 2.723 0.04981 22.1 20240331 177.2 95.864 310.907 30.801 0.588 1.714 ( 11d) MPO 41931 2003 01 29 673 J. W. Young
    000000K03B44C K03B44C2003 BC44 0.939 3.273 0.05364 25.5 20240331 349.7 121.348 307.754 7.115 0.554 2.106 ( 2d) MPO265627 2003 01 29 291 Spacewatch
    000000K03B47R K03B47R2003 BR47 0.814 2.443 0.00779 21.57 20240331 87.1 112.693 314.418 4.423 0.5 1.628 2 E2024-DD6 2003 01 31 704 LINEAR
    000000K03C11G K03C11G2003 CG11 0.688 4.497 0.01809 20.5 20240331 10.7 107.153 130.437 21.283 0.735 2.592 2 MPO122430 2003 02 04 699 LONEOS
    000000K03C18L K03C18L2003 CL18 0.903 4.18 0.11762 20.6 20240331 96.1 254.583 168.395 14.461 0.645 2.542 2 MPO116245 2003 02 07 644 NEAT
    000000K03C20O K03C20O2003 CO20 0.993 3.383 0.02664 23.10 20240331 194.5 340.32 138.98 20.721 0.546 2.188 ( 7d) MPO734004 2003 02 11 704 LINEAR
    000000K03D06G K03D06G2003 DG6 0.79 3.216 0.06552 20.75 20240331 177.7 36.532 40.183 8.905 0.606 2.003 3 MPO740007 2003 02 23 704 LINEAR
    000000K03D10W K03D10W2003 DW10 0.924 1.968 0.00038 26.1 20240331 24.1 221.194 342.109 2.192 0.361 1.446 (161d) MPO 50746 2003 02 26 704 LINEAR
    000000K03D15Y K03D15Y2003 DY15 0.827 1.635 0.00366 26.3 20240331 119.8 253.018 342.751 6.313 0.328 1.231 ( 5d) MPO 43512 2003 02 28 608 NEAT
    000000K03D15Z K03D15Z2003 DZ15 0.627 1.817 0.00032 22.41 20240331 281.8 263.72 141.809 3.676 0.487 1.222 4 E2024-A05 2003 02 28 608 NEAT
    000000K03E04P K03E04P2003 EP4 0.483 2.236 0.00088 23.93 20240331 69.1 66.404 212.368 0.511 0.645 1.36 3 MPO686094 2003 03 07 704 LINEAR
    000000K03E16G K03E16G2003 EG16 0.743 4.039 0.00063 19.37 20240331 227.1 110.623 151.255 20.388 0.689 2.391 4 MPO740007 2003 03 08 704 LINEAR
    000000K03E50C K03E50C2003 EC50 0.902 3.51 0.03311 22.9 20240331 140.8 201.919 21.047 5.936 0.591 2.206 ( 13d) MPO377768 2003 03 10 644 NEAT
    000000K03E59W K03E59W2003 EW59 0.614 3.175 0.01468 23.3 20240331 48.5 282.104 164.418 5.428 0.676 1.895 ( 14d) MPO 48340 2003 03 13 704 LINEAR
    000000K03F05B K03F05B2003 FB5 0.515 4.485 0.02523 23.42 20240331 90.7 290.948 355.938 5.429 0.794 2.5 ( 7d) MPO740007 2003 03 26 599 CINEOS
    000000K03F05F K03F05F2003 FF5 0.953 1.786 0.02563 23.3 20240331 7.0 54.191 192.742 6.339 0.304 1.37 3 MPO473078 2003 03 27 644 NEAT
    000000K03F08J K03F08J2003 FJ8 0.883 2.745 0.00263 26.7 20240331 230.1 125.838 11.071 1.565 0.513 1.814 ( 5d) MPO 48342 2003 03 30 704 LINEAR
    000000K03G21F K03G21F2003 GF21 0.9 2.653 0.01644 22.2 20240331 287.0 221.632 19.954 21.936 0.494 1.777 ( 3d) MPO 48363 2003 04 07 699 LONEOS
    000000K03G21G K03G21G2003 GG21 0.616 3.662 0.00863 21.97 20240331 265.7 97.332 11.076 10.162 0.712 2.139 2 MPO740007 2003 04 07 644 NEAT
    000000K03G22R K03G22R2003 GR22 0.605 2.485 0.00735 22.16 20240331 304.1 276.83 23.422 6.169 0.608 1.545 3 E2024-DD1 2003 04 07 704 LINEAR
    000000K03G34B K03G34B2003 GB34 0.832 4.321 0.12693 18.92 20240331 52.8 255.73 201.521 27.232 0.677 2.576 3 E2024-B94 2003 04 08 704 LINEAR
    000000K03G41U K03G41U2003 GU41 0.678 3.412 0.26609 18.42 20240331 41.8 195.375 89.071 18.928 0.669 2.045 3 MPO740007 2003 04 09 699 LONEOS
    000000K03G42D K03G42D2003 GD42 0.998 1.591 0.0126 24.7 20240331 99.5 156.3 18.109 12.25 0.229 1.295 ( 6d) MPO 48367 2003 04 09 704 LINEAR
    000000K03G51P K03G51P2003 GP51 0.851 3.453 0.03829 22.0 20240331 240.1 357.731 141.625 2.866 0.605 2.152 ( 21d) MPO 48368 2003 04 14 699 LONEOS
    000000K03H00N K03H00N2003 HN 0.995 3.06 0.1058 20.14 20240331 69.9 64.876 212.868 10.739 0.509 2.028 3 MPO740008 2003 04 23 608 NEAT
    000000K03H10W K03H10W2003 HW10 0.841 2.754 0.00132 27.0 20240331 227.6 239.494 37.65 3.909 0.532 1.797 ( 3d) MPO 48371 2003 04 25 291 Spacewatch
    000000K03H32P K03H32P2003 HP32 0.591 4.789 0.05204 19.6 20240331 236.9 155.814 187.764 3.479 0.78 2.69 3 MPO230892 2003 04 26 691 Spacewatch
    000000K03J02X K03J02X2003 JX2 0.846 1.387 0.00893 26.4 20240331 335.7 276.691 219.17 9.634 0.242 1.116 ( 2d) MPO 48380 2003 05 01 704 LINEAR
    000000K03J02Y K03J02Y2003 JY2 0.569 2.289 0.01441 24.6 20240331 122.2 71.186 47.552 4.922 0.602 1.429 ( 4d) MPO 53734 2003 05 02 704 LINEAR
    000000K03J11D K03J11D2003 JD11 0.8 2.678 0.02243 24.3 20240331 20.7 75.237 220.511 8.444 0.54 1.739 ( 6d) MPO 48381 2003 05 05 704 LINEAR
    000000K03J14N K03J14N2003 JN14 0.516 3.116 0.08075 19.62 20240331 161.0 319.719 30.607 7.205 0.716 1.816 4 MPO598819 2003 05 08 704 LINEAR
    000000K03J14O K03J14O2003 JO14 0.808 1.642 0.01343 25.2 20240331 193.2 95.787 49.894 7.104 0.341 1.225 ( 2d) MPO 48382 2003 05 09 704 LINEAR
    000000K03J14P K03J14P2003 JP14 0.974 3.26 0.07517 22.3 20240331 299.4 127.533 52.296 13.668 0.54 2.117 ( 30d) MPO 50765 2003 05 09 704 LINEAR
    000000K03J14V K03J14V2003 JV14 0.688 2.581 0.06748 21.39 20240331 32.7 33.389 98.963 5.455 0.579 1.634 3 E2024-F74 2003 05 10 691 Spacewatch
    000000K03J17C K03J17C2003 JC17 0.664 4.022 0.20271 17.88 20240331 320.8 40.491 80.66 27.316 0.717 2.343 4 MPO649694 2003 05 11 704 LINEAR
    000000K03K04F K03K04F2003 KF4 0.991 3.664 0.00479 23.3 20240331 315.2 157.598 60.616 8.303 0.574 2.328 ( 15d) MPO 50766 2003 05 25 333 W. K. Y. Yeung
    000000K03L02W K03L02W2003 LW2 0.975 2.717 0.00183 25.8 20240331 56.1 334.383 246.821 2.221 0.472 1.846 2 MPO639836 2003 06 04 704 LINEAR
    000000K03M00N K03M00N2003 MN 0.927 3.68 0.01606 23.8 20240331 332.3 60.746 253.256 2.627 0.598 2.303 ( 1d) MPO 50768 2003 06 22 704 LINEAR
    000000K03M01E K03M01E2003 ME1 0.725 1.355 0.0043 23.6 20240331 276.5 255.602 268.579 21.059 0.303 1.04 ( 36d) MPO 53734 2003 06 23 704 LINEAR
    000000K03M02S K03M02S2003 MS2 0.911 1.174 0.02324 21.21 20240331 121.8 254.501 100.826 20.025 0.126 1.042 4 E2023-R01 2003 06 25 699 LONEOS
    000000K03M04K K03M04K2003 MK4 0.885 1.277 0.00203 20.86 20240331 83.0 109.704 282.579 22.316 0.181 1.081 3 MPO740008 2003 06 27 704 LINEAR
    000000K03M07W K03M07W2003 MW7 0.528 1.809 0.09076 21.45 20240331 204.6 52.68 106.939 20.484 0.548 1.169 2 E2022-N38 2003 06 30 704 LINEAR
    000000K03O03C K03O03C2003 OC3 0.906 3.595 0.04625 18.83 20240331 66.3 23.018 172.34 13.129 0.597 2.25 6 MPO740009 2003 07 21 644 NEAT
    000000K03O13T K03O13T2003 OT13 0.972 1.374 0.03601 23.35 20240331 43.9 242.643 135.542 13.098 0.171 1.173 3 E2022-K52 2003 07 29 704 LINEAR
    000000K03Q05U K03Q05U2003 QU5 0.968 1.908 0.02951 24.2 20240331 316.1 85.628 287.817 2.146 0.327 1.438 ( 9d) MPO 62446 2003 08 21 704 LINEAR
    000000K03Q29Z K03Q29Z2003 QZ29 0.975 3.975 0.10405 19.29 20240331 79.6 251.404 162.575 8.709 0.606 2.475 3 E2024-B20 2003 08 24 704 LINEAR
    000000K03Q30B K03Q30B2003 QB30 0.716 1.746 0.00284 26.8 20240331 340.9 108.893 313.762 0.64 0.418 1.231 ( 3d) MPO 50790 2003 08 24 704 LINEAR
    000000K03R01S K03R01S2003 RS1 0.994 4.555 0.00144 21.7 20240331 144.7 164.154 172.35 2.658 0.642 2.775 2 MPO415681 2003 09 01 704 LINEAR
    000000K03R05B K03R05B2003 RB5 0.994 2.739 0.02339 21.2 20240331 15.8 27.938 341.83 44.427 0.468 1.866 ( 15d) MPO 53764 2003 09 04 704 LINEAR
    000000K03R11W K03R11W2003 RW11 0.461 4.802 0.07413 18.7 20240331 309.8 53.859 170.504 10.34 0.825 2.631 3 MPO392287 2003 09 15 673 J. W. Young
    000000K03S00F K03S00F2003 SF 0.488 3.871 0.07075 19.91 20240331 123.5 33.226 76.432 5.572 0.776 2.179 4 E2023-P20 2003 09 16 704 LINEAR
    000000K03S04Y K03S04Y2003 SY4 0.96 3.993 0.00456 26.5 20240331 101.8 327.679 353.692 3.924 0.612 2.477 ( 10d) MPO 53770 2003 09 17 291 Spacewatch
    000000K03S17Y K03S17Y2003 SY17 0.854 3.234 0.05851 18.26 20240331 91.9 218.464 350.497 33.078 0.582 2.044 6 MPO750185 2003 09 17 291 Spacewatch
    000000K03S36L K03S36L2003 SL36 0.84 1.99 0.00742 26.4 20240331 102.0 289.255 358.947 3.973 0.407 1.415 ( 8d) MPO 53777 2003 09 19 699 LONEOS
    000000K03S84K K03S84K2003 SK84 0.653 4.42 0.04446 21.23 20240331 15.9 118.288 344.09 8.952 0.743 2.537 4 E2024-H18 2003 09 19 644 NEAT
    000000K03S84R K03S84R2003 SR84 0.893 2.521 0.00319 26.0 20240331 54.5 229.9 183.269 7.528 0.477 1.707 ( 7d) MPO 53788 2003 09 20 644 NEAT
    000000K03S84S K03S84S2003 SS84 0.827 3.035 0.00519 21.95 20240331 212.2 234.899 198.163 5.492 0.572 1.931 4 MPO740010 2003 09 20 704 LINEAR
    000000K03S84U K03S84U2003 SU84 0.922 2.077 0.13362 22.1 20240331 106.2 95.603 181.798 16.463 0.385 1.499 2 MPO322122 2003 09 20 704 LINEAR
    000000K03SL4N K03SL4N2003 SN214 0.919 3.155 0.07321 22.7 20240331 45.5 285.268 352.988 8.345 0.549 2.037 ( 34d) MPO 62448 2003 09 21 691 Spacewatch
    000000K03SL5M K03SL5M2003 SM215 0.918 3.291 0.00253 27.5 20240331 245.8 41.237 5.682 4.975 0.564 2.105 ( 2d) MPO 53818 2003 09 28 704 LINEAR
    000000K03SM2Q K03SM2Q2003 SQ222 0.725 2.287 0.0001 30.1 20240331 61.6 280.917 4.376 3.561 0.519 1.506 ( 4d) MPO 53820 2003 09 28 699 LONEOS
    000000K03T01M K03T01M2003 TM1 0.595 2.128 0.02896 22.26 20240331 1.4 355.043 271.357 1.705 0.563 1.362 4 E2023-Y46 2003 10 05 704 LINEAR
    000000K03T02H K03T02H2003 TH2 0.818 4.098 0.0047 22.86 20240331 104.4 44.373 50.152 1.386 0.667 2.458 ( 25d) MPO740014 2003 10 05 691 Spacewatch
    000000K03T02K K03T02K2003 TK2 0.829 3.867 0.02071 19.81 20240331 265.5 321.018 0.979 4.287 0.647 2.348 4 E2024-CG3 2003 10 06 704 LINEAR
    000000K03T09O K03T09O2003 TO9 0.961 3.895 0.01884 21.9 20240331 138.1 225.08 197.98 3.112 0.604 2.428 2 MPO450866 2003 10 15 699 LONEOS
    000000K03T09R K03T09R2003 TR9 0.49 2.793 0.02071 21.3 20240331 291.7 71.041 198.355 13.465 0.702 1.641 2 MPO542883 2003 10 09 699 LONEOS
    000000K03T09T K03T09T2003 TT9 0.801 1.393 0.04716 22.9 20240331 10.1 252.855 20.366 19.011 0.27 1.097 ( 14d) MPO 53836 2003 10 15 699 LONEOS
    000000K03U03M K03U03M2003 UM3 0.767 1.974 0.00038 28.1 20240331 301.5 284.913 17.495 1.501 0.44 1.37 ( 1d) MPO 53840 2003 10 17 691 Spacewatch
    000000K03U05C K03U05C2003 UC5 0.215 2.156 0.11109 20.35 20240331 342.8 210.665 30.937 36.793 0.819 1.185 5 E2021-X46 2003 10 17 704 LINEAR
    000000K03U05X K03U05X2003 UX5 0.95 1.933 0.05033 20.28 20240331 258.3 50.379 50.501 21.446 0.341 1.441 3 E2023-R01 2003 10 18 704 LINEAR
    000000K03U09L K03U09L2003 UL9 0.788 1.25 0.1299 22.4 20240331 60.5 230.403 23.295 63.337 0.227 1.019 ( 6d) MPO 62449 2003 10 19 704 LINEAR
    000000K03U10C K03U10C2003 UC10 0.886 3.994 0.01221 23.9 20240331 144.1 254.737 68.643 1.522 0.637 2.44 ( 13d) MPO 53842 2003 10 20 691 Spacewatch
    000000K03U12O K03U12O2003 UO12 0.989 4.669 0.01786 23.9 20240331 115.9 83.659 0.607 0.983 0.65 2.829 2 MPO437947 2003 10 21 291 Spacewatch
    000000K03U12P K03U12P2003 UP12 0.909 2.663 0.02988 25.5 20240331 186.3 231.858 208.189 13.889 0.491 1.786 ( 5d) MPO 53843 2003 10 21 704 LINEAR
    000000K03U12Q K03U12Q2003 UQ12 0.814 2.597 0.00983 24.9 20240331 86.8 291.687 31.603 5.392 0.523 1.705 ( 9d) MPO 62450 2003 10 21 704 LINEAR
    000000K03U22B K03U22B2003 UB22 0.945 1.485 0.0479 24.3 20240331 132.8 116.087 212.407 15.688 0.222 1.215 ( 7d) MPO265632 2003 10 22 704 LINEAR
    000000K03U22G K03U22G2003 UG22 0.92 1.928 0.1239 21.2 20240331 50.8 280.716 33.11 20.302 0.354 1.424 3 MPO598837 2003 10 23 608 NEAT
    000000K03U25O K03U25O2003 UO25 0.784 1.25 0.16521 22.6 20240331 113.3 28.578 211.854 15.475 0.229 1.017 2 MPO230194 2003 10 24 704 LINEAR
    000000K03U25Q K03U25Q2003 UQ25 0.812 4.27 0.01661 24.1 20240331 5.9 276.82 187.146 2.13 0.68 2.541 ( 11d) MPO 62450 2003 10 24 691 Spacewatch
    000000K03U25R K03U25R2003 UR25 0.976 2.923 0.03959 25.5 20240331 172.6 45.52 23.468 5.897 0.499 1.95 ( 0d) MPO 53847 2003 10 25 291 Spacewatch
    000000K03U26X K03U26X2003 UX26 0.733 1.578 0.00886 24.79 20240331 216.7 264.0 35.285 4.548 0.366 1.155 ( 8d) MPO740015 2003 10 25 704 LINEAR
    000000K03V01E K03V01E2003 VE1 0.981 2.904 0.04384 19.29 20240331 212.3 323.321 29.527 16.335 0.495 1.942 4 MPO732444 2003 11 05 704 LINEAR
    000000K03W00E K03W00E2003 WE 0.909 1.489 0.0284 24.61 20240331 231.7 285.275 58.39 5.37 0.242 1.199 ( 11d) E2024-F02 2003 11 17 703 CSS
    000000K03W00G K03W00G2003 WG 0.526 4.349 0.02926 19.24 20240331 137.9 262.002 46.63 27.144 0.784 2.438 4 MPO732444 2003 11 18 699 LONEOS
    000000K03W07P K03W07P2003 WP7 0.817 3.792 0.00156 23.2 20240331 275.7 240.963 248.476 0.989 0.645 2.305 2 MPO189253 2003 11 19 691 Spacewatch
    000000K03W21P K03W21P2003 WP21 0.497 4.044 0.03383 21.5 20240331 334.8 124.651 37.131 4.308 0.781 2.271 2 E2021-A62 2003 11 20 704 LINEAR
    000000K03W25R K03W25R2003 WR25 0.982 5.751 0.09589 19.6 20240331 117.2 245.461 117.385 8.972 0.708 3.366 ( 35d) MPO 58050 2003 11 21 644 NEAT
    000000K03W26W K03W26W2003 WW26 0.483 4.307 0.0115 22.5 20240331 190.0 255.032 57.293 6.297 0.799 2.395 ( 23d) MPO 58050 2003 11 21 704 LINEAR
    000000K03W98H K03W98H2003 WH98 0.994 3.266 0.00894 26.6 20240331 195.8 353.621 68.63 3.524 0.533 2.13 ( 4d) MPO 58065 2003 11 26 704 LINEAR
    000000K03WF1O K03WF1O2003 WO151 0.52 2.57 0.25624 20.37 20240331 152.2 331.006 227.977 19.859 0.664 1.545 3 E2023-P11 2003 11 26 691 Spacewatch
    000000K03WF3Y K03WF3Y2003 WY153 0.998 3.95 0.01497 24.4 20240331 79.7 211.262 210.934 1.19 0.597 2.474 ( 18d) MPO 58075 2003 11 29 704 LINEAR
    000000K03WF7E K03WF7E2003 WE157 0.975 3.518 0.14269 21.28 20240331 354.8 264.689 226.366 9.635 0.566 2.247 (162d) E2023-R03 2003 11 29 691 Spacewatch
    000000K03WF8C K03WF8C2003 WC158 0.982 4.297 0.04273 20.4 20240331 274.4 144.52 251.041 9.021 0.628 2.639 2 MPO380689 2003 11 28 699 LONEOS
    000000K03WG6H K03WG6H2003 WH166 0.857 3.015 0.00483 22.0 20240331 168.9 329.409 185.682 0.702 0.557 1.936 2 MPO232518 2003 11 30 691 Spacewatch
    000000K03X00K K03X00K2003 XK 0.67 3.998 0.00405 25.9 20240331 264.3 109.182 241.958 2.377 0.713 2.334 ( 3d) MPO 58079 2003 12 01 704 LINEAR
    000000K03X00V K03X00V2003 XV 0.866 3.021 0.00374 26.7 20240331 184.0 231.345 252.394 4.544 0.554 1.943 2 MPO218006 2003 12 01 691 Spacewatch
    000000K03X07J K03X07J2003 XJ7 0.664 1.822 0.00197 26.4 20240331 199.2 271.846 253.899 18.171 0.466 1.243 ( 1d) MPO 58081 2003 12 05 704 LINEAR
    000000K03X10H K03X10H2003 XH10 1.0 1.643 0.01899 25.5 20240331 129.8 12.377 70.569 9.636 0.243 1.322 ( 4d) MPO 58081 2003 12 04 704 LINEAR
    000000K03X12Z K03X12Z2003 XZ12 0.988 1.888 0.01691 24.4 20240331 259.7 198.718 268.373 12.446 0.313 1.438 ( 10d) MPO 58082 2003 12 15 704 LINEAR
    000000K03Y01P K03Y01P2003 YP1 0.949 4.36 0.04465 21.8 20240331 260.9 131.458 276.661 7.493 0.642 2.655 ( 56d) MPO 58085 2003 12 18 703 CSS
    000000K03Y01S K03Y01S2003 YS1 0.479 5.735 0.2266 19.6 20240331 271.9 48.917 280.683 24.841 0.846 3.107 ( 27d) MPO243044 2003 12 17 704 LINEAR
    000000K03Y03P K03Y03P2003 YP3 0.684 2.007 0.07549 20.21 20240331 314.8 282.287 260.309 37.177 0.492 1.345 4 MPO740020 2003 12 19 704 LINEAR
    000000K03Y07N K03Y07N2003 YN7 0.836 4.695 0.13042 20.6 20240331 160.7 281.151 94.143 19.716 0.698 2.766 ( 25d) MPO 58086 2003 12 19 704 LINEAR
    000000K03Y45D K03Y45D2003 YD45 0.765 4.226 0.02858 21.0 20240331 68.3 105.02 252.179 8.428 0.693 2.496 ( 30d) MPO 58094 2003 12 20 704 LINEAR
    000000K03Y70S K03Y70S2003 YS70 0.981 1.573 0.001 29.1 20240331 306.7 197.423 270.822 0.359 0.232 1.277 ( 5d) MPO 58099 2003 12 22 704 LINEAR
    000000K03YB1H K03YB1H2003 YH111 0.729 2.106 0.00843 24.5 20240331 328.7 84.401 91.662 4.366 0.486 1.417 ( 2d) MPO 58105 2003 12 27 704 LINEAR
    000000K03YB7R K03YB7R2003 YR117 0.923 2.799 0.02213 22.9 20240331 4.9 317.663 94.819 17.371 0.504 1.861 ( 15d) MPO 58107 2003 12 28 704 LINEAR
    000000K03YB8L K03YB8L2003 YL118 0.581 1.681 0.02165 21.6 20240331 1.8 65.737 278.681 7.606 0.486 1.131 5 MPO686126 2003 12 28 704 LINEAR
    000000K03YD6H K03YD6H2003 YH136 0.253 4.728 0.00252 19.13 20240331 48.9 305.224 305.466 16.336 0.898 2.491 2 MPO767233 2003 12 28 704 LINEAR
    000000K04A00C K04A00C2004 AC 0.588 3.012 0.19529 18.9 20240331 109.6 171.5 13.53 11.545 0.673 1.8 4 MPO598857 2004 01 04 704 LINEAR
    000000K04A00D K04A00D2004 AD 0.928 1.588 0.02476 24.4 20240331 150.3 302.526 110.491 7.3 0.262 1.258 ( 26d) MPO 58114 2004 01 04 699 LONEOS
    000000K04A01D K04A01D2004 AD1 0.837 2.992 0.02741 22.5 20240331 244.0 110.388 299.663 6.191 0.563 1.914 2 MPO495544 2004 01 13 699 LONEOS
    000000K04A01Y K04A01Y2004 AY1 0.805 2.966 0.08244 21.2 20240331 307.3 2.345 40.013 5.512 0.573 1.885 2 MPO399371 2004 01 13 704 LINEAR
    000000K04A06E K04A06E2004 AE6 0.928 2.056 0.0561 24.4 20240331 356.0 251.273 297.85 6.7 0.378 1.492 ( 17d) MPO 58116 2004 01 15 691 Spacewatch
    000000K04B11H K04B11H2004 BH11 0.851 1.682 0.01791 23.95 20240331 110.1 83.256 309.523 4.359 0.328 1.266 2 E2024-D06 2004 01 18 691 Spacewatch
    000000K04B11M K04B11M2004 BM11 0.688 2.207 0.06219 21.96 20240331 177.3 175.549 42.489 3.62 0.524 1.448 3 E2023-R58 2004 01 18 644 NEAT
    000000K04B18V K04B18V2004 BV18 0.995 1.674 0.01292 25.9 20240331 38.9 170.96 301.986 2.172 0.254 1.334 ( 30d) MPO 62472 2004 01 19 691 Spacewatch
    000000K04B41G K04B41G2004 BG41 0.979 4.039 0.0135 24.4 20240331 30.6 153.404 301.157 2.979 0.61 2.509 4 MPO357117 2004 01 22 704 LINEAR
    000000K04B41N K04B41N2004 BN41 0.986 3.109 0.00463 26.1 20240331 319.0 146.016 330.844 0.399 0.518 2.047 ( 7d) MPO 58128 2004 01 23 704 LINEAR
    000000K04B74Z K04B74Z2004 BZ74 0.339 5.784 0.05314 18.27 20240331 290.2 124.853 230.079 17.063 0.889 3.062 3 MPO740020 2004 01 27 704 LINEAR
    000000K04B75A K04B75A2004 BA75 0.652 2.623 0.01293 24.45 20240331 255.2 253.842 134.759 3.16 0.602 1.637 ( 4d) MPO734012 2004 01 27 691 Spacewatch
    000000K04B85F K04B85F2004 BF85 0.509 3.094 0.05653 20.2 20240331 100.0 18.546 212.277 3.68 0.717 1.802 ( 34d) MPO535815 2004 01 29 704 LINEAR
    000000K04B86K K04B86K2004 BK86 0.708 2.146 0.00128 25.4 20240331 268.2 262.793 310.838 2.245 0.504 1.427 ( 1d) MPO 58137 2004 01 30 704 LINEAR
    000000K04C00C K04C00C2004 CC 0.989 1.866 0.01278 23.6 20240331 282.1 199.514 324.147 7.587 0.307 1.427 ( 5d) MPO 62488 2004 02 02 704 LINEAR
    000000K04C01Z K04C01Z2004 CZ1 0.839 2.245 0.00422 24.39 20240331 155.8 65.942 146.799 2.005 0.456 1.542 ( 12d) MPO750185 2004 02 12 691 Spacewatch
    000000K04C02A K04C02A2004 CA2 0.817 3.405 0.00699 23.7 20240331 219.8 130.724 303.855 3.258 0.613 2.111 ( 10d) MPO 62488 2004 02 12 644 NEAT
    000000K04C39E K04C39E2004 CE39 0.625 1.429 0.07753 21.4 20240331 29.4 126.1 153.221 17.709 0.391 1.027 2 MPO 74308 2004 02 14 699 LONEOS
    000000K04C49O K04C49O2004 CO49 0.841 1.909 0.02127 21.6 20240331 208.7 315.971 115.117 4.262 0.388 1.375 3 MPO409294 2004 02 14 704 LINEAR
    000000K04D01L K04D01L2004 DL1 0.554 3.001 0.02196 24.4 20240331 199.6 231.057 175.694 2.25 0.688 1.778 ( 4d) MPO 62505 2004 02 18 691 Spacewatch
    000000K04D02F K04D02F2004 DF2 0.575 2.743 0.00536 26.1 20240331 172.3 90.176 324.628 5.231 0.653 1.659 ( 3d) MPO 62506 2004 02 19 704 LINEAR
    000000K04D44M K04D44M2004 DM44 0.716 4.241 0.04159 20.7 20240331 68.7 95.67 350.721 10.539 0.711 2.479 2 MPO126710 2004 02 25 704 LINEAR
    000000K04E01H K04E01H2004 EH1 0.937 3.082 0.03402 21.98 20240331 351.8 231.993 356.759 7.523 0.534 2.01 2 E2024-F28 2004 03 14 703 CSS
    000000K04E22U K04E22U2004 EU22 0.985 1.368 0.00899 23.92 20240331 282.8 328.698 175.659 5.338 0.163 1.177 2 E2023-WB0 2004 03 15 704 LINEAR
    000000K04F00A K04F00A2004 FA 0.866 3.387 0.01753 23.2 20240331 155.7 56.849 179.604 9.135 0.593 2.126 ( 10d) MPO 66346 2004 03 16 691 Spacewatch
    000000K04F00D K04F00D2004 FD 0.424 2.18 0.01576 23.02 20240331 219.6 357.087 50.001 1.016 0.674 1.302 2 E2024-JF3 2004 03 16 691 Spacewatch
    000000K04F01W K04F01W2004 FW1 0.456 2.765 0.04775 21.02 20240331 259.9 91.235 194.585 10.163 0.717 1.61 3 MPO750185 2004 03 17 704 LINEAR
    000000K04F01X K04F01X2004 FX1 0.829 1.437 0.01758 25.3 20240331 271.8 97.474 352.929 17.807 0.268 1.133 ( 2d) MPO 62536 2004 03 17 704 LINEAR
    000000K04F01Y K04F01Y2004 FY1 0.806 3.051 0.00214 26.3 20240331 160.0 62.036 179.921 8.918 0.582 1.929 ( 2d) MPO 62536 2004 03 17 704 LINEAR
    000000K04F03Y K04F03Y2004 FY3 0.879 3.056 0.00526 25.4 20240331 108.8 128.975 359.518 5.404 0.553 1.968 ( 11d) MPO 62537 2004 03 19 704 LINEAR
    000000K04F04M K04F04M2004 FM4 0.818 3.203 0.00938 25.1 20240331 21.5 289.91 185.252 2.69 0.593 2.011 ( 12d) MPO 62537 2004 03 19 704 LINEAR
    000000K04F05A K04F05A2004 FA5 0.915 1.694 0.02468 24.5 20240331 124.5 58.785 178.403 14.981 0.299 1.305 ( 5d) MPO 62537 2004 03 20 704 LINEAR
    000000K04F08N K04F08N2004 FN8 1.0 1.337 0.00988 27.1 20240331 318.2 159.907 4.036 5.253 0.144 1.168 ( 6d) MPO 62537 2004 03 23 704 LINEAR
    000000K04F11J K04F11J2004 FJ11 0.984 3.512 0.02105 21.03 20240331 314.1 232.49 20.886 2.388 0.562 2.248 3 MPO659792 2004 03 25 704 LINEAR
    000000K04F15Y K04F15Y2004 FY15 0.964 2.745 0.00123 26.1 20240331 322.8 207.562 5.976 3.488 0.48 1.855 ( 1d) MPO 62539 2004 03 26 703 CSS
    000000K04F18C K04F18C2004 FC18 0.672 3.117 0.01717 24.4 20240331 221.0 92.966 180.951 9.764 0.645 1.894 ( 5d) MPO 62539 2004 03 27 691 Spacewatch
    000000K04F29F K04F29F2004 FF29 0.736 3.101 0.06904 18.11 20240331 213.1 40.298 68.436 8.182 0.616 1.919 6 E2023-XA2 2004 03 28 106 H. Mikuz, S. Maticic
    000000K04F29H K04F29H2004 FH29 0.99 2.321 0.01555 24.0 20240331 129.6 25.917 195.306 12.628 0.402 1.655 ( 11d) MPO 62541 2004 03 29 E12 Siding Spring Survey
    000000K04F31J K04F31J2004 FJ31 0.858 1.706 0.02258 24.29 20240331 239.3 204.118 58.359 1.995 0.331 1.282 ( 2d) MPO734013 2004 03 29 704 LINEAR
    000000K04F31Y K04F31Y2004 FY31 0.962 3.372 0.02117 21.97 20240331 87.2 197.42 28.765 11.199 0.556 2.167 ( 54d) E2023-O34 2004 03 31 699 LONEOS
    000000K04F32M K04F32M2004 FM32 0.92 1.278 0.0019 27.1 20240331 179.8 298.279 184.188 3.788 0.163 1.099 ( 15d) MPO 62542 2004 03 30 704 LINEAR
    000000K04G00D K04G00D2004 GD 0.738 1.393 0.00709 23.7 20240331 351.9 281.386 26.539 6.212 0.308 1.065 ( 11d) MPO 66355 2004 04 09 E12 Siding Spring Survey
    000000K04G02B K04G02B2004 GB2 0.743 3.494 0.02256 21.0 20240331 196.1 255.416 208.943 12.422 0.649 2.119 ( 45d) MPO542914 2004 04 12 644 NEAT
    000000K04G02E K04G02E2004 GE2 0.6 3.479 0.00494 21.5 20240331 288.1 261.072 44.238 2.153 0.706 2.04 ( 12d) MPO 62557 2004 04 12 644 NEAT
    000000K04G14Z K04G14Z2004 GZ14 0.938 1.832 0.02794 23.9 20240331 117.4 308.332 200.738 20.892 0.323 1.385 ( 8d) MPO 66357 2004 04 14 704 LINEAR
    000000K04G19B K04G19B2004 GB19 0.86 1.852 0.01071 23.10 20240331 264.0 327.501 162.743 1.284 0.366 1.356 ( 21d) MPO750185 2004 04 15 704 LINEAR
    000000K04G19C K04G19C2004 GC19 0.943 3.338 0.03332 24.1 20240331 124.6 49.151 199.718 8.638 0.559 2.141 ( 10d) MPO 62560 2004 04 15 704 LINEAR
    000000K04H00B K04H00B2004 HB 0.987 3.898 0.02604 23.9 20240331 79.5 211.984 21.611 8.499 0.596 2.443 ( 2d) MPO 62569 2004 04 16 704 LINEAR
    000000K04H00E K04H00E2004 HE 0.695 2.852 0.00067 26.8 20240331 139.4 79.609 208.033 9.482 0.608 1.773 ( 1d) MPO 62569 2004 04 16 699 LONEOS
    000000K04H00M K04H00M2004 HM 0.786 1.876 0.00318 23.33 20240331 32.6 283.786 205.276 11.576 0.409 1.331 2 E2024-EA9 2004 04 16 704 LINEAR
    000000K04H00Z K04H00Z2004 HZ 0.727 1.879 0.00063 22.6 20240331 100.0 97.387 204.118 4.224 0.442 1.303 2 MPO121339 2004 04 19 704 LINEAR
    000000K04H01A K04H01A2004 HA1 0.763 4.654 0.06869 21.7 20240331 158.5 259.145 28.831 19.075 0.718 2.708 ( 6d) MPO 62569 2004 04 19 704 LINEAR
    000000K04H01Q K04H01Q2004 HQ1 0.809 1.409 0.00198 23.47 20240331 79.3 93.519 29.463 4.416 0.27 1.109 ( 30d) E2023-O65 2004 04 19 704 LINEAR
    000000K04H02D K04H02D2004 HD2 0.391 4.275 0.02617 21.1 20240331 233.8 64.111 24.498 15.11 0.832 2.333 ( 20d) MPO 66364 2004 04 20 704 LINEAR
    000000K04H12F K04H12F2004 HF12 0.751 3.52 0.02001 20.52 20240331 155.3 105.944 21.813 13.41 0.648 2.135 ( 48d) MPO750185 2004 04 20 704 LINEAR
    000000K04H12G K04H12G2004 HG12 0.944 1.93 0.02659 22.54 20240331 183.1 48.7 208.146 26.424 0.343 1.437 ( 14d) MPO740023 2004 04 21 704 LINEAR
    000000K04H39A K04H39A2004 HA39 0.992 3.306 0.21012 20.96 20240331 101.1 67.391 203.998 36.178 0.538 2.149 2 MPO781036 2004 04 25 703 CSS
    000000K04H39C K04H39C2004 HC39 0.906 2.72 0.00731 21.5 20240331 38.2 224.249 56.047 14.654 0.5 1.813 ( 20d) MPO554013 2004 04 25 703 CSS
    000000K04H53W K04H53W2004 HW53 0.914 3.446 0.2651 19.7 20240331 89.7 95.83 32.635 39.121 0.581 2.18 3 MPO503744 2004 04 26 704 LINEAR
    000000K04H53X K04H53X2004 HX53 0.795 1.591 0.0205 23.6 20240331 54.9 241.749 64.39 3.558 0.334 1.193 3 MPO409295 2004 04 26 704 LINEAR
    000000K04H56R K04H56R2004 HR56 0.879 2.202 0.06004 23.35 20240331 193.6 88.298 40.887 5.848 0.43 1.54 ( 3d) E2021-W43 2004 04 25 691 Spacewatch
    000000K04J00C K04J00C2004 JC 0.805 4.11 0.12241 20.52 20240331 40.3 186.606 107.598 8.949 0.673 2.457 ( 21d) MPO740023 2004 05 08 644 NEAT
    000000K04J01N K04J01N2004 JN1 0.895 1.276 0.02318 23.74 20240331 276.0 1.974 143.812 1.502 0.176 1.085 4 MPO725128 2004 05 11 704 LINEAR
    000000K04J01O K04J01O2004 JO1 0.538 1.505 0.05799 20.9 20240331 18.9 286.298 69.742 21.504 0.473 1.021 ( 20d) MPO 66372 2004 05 11 704 LINEAR
    000000K04J01P K04J01P2004 JP1 0.886 1.383 0.00604 22.7 20240331 110.9 253.996 56.591 20.928 0.219 1.134 2 MPO393291 2004 05 11 704 LINEAR
    000000K04J12P K04J12P2004 JP12 0.426 3.27 0.03155 23.4 20240331 347.4 263.718 216.041 8.129 0.77 1.848 ( 8d) MPO 66374 2004 05 13 691 Spacewatch
    000000K04J20O K04J20O2004 JO20 0.834 2.106 0.00818 26.2 20240331 27.2 68.259 234.362 10.255 0.433 1.47 ( 3d) MPO 66376 2004 05 15 704 LINEAR
    000000K04J20V K04J20V2004 JV20 0.869 1.768 0.03786 24.0 20240331 8.3 252.553 53.344 25.178 0.341 1.319 ( 2d) MPO 66376 2004 05 15 704 LINEAR
    000000K04K00B K04K00B2004 KB 0.845 1.531 0.02163 21.09 20240331 212.6 243.251 230.919 20.678 0.289 1.188 3 MPO639861 2004 05 16 704 LINEAR
    000000K04K00Z K04K00Z2004 KZ 0.807 1.772 0.01188 25.5 20240331 250.4 101.158 58.35 12.394 0.374 1.289 ( 2d) MPO 66381 2004 05 18 704 LINEAR
    000000K04K17F K04K17F2004 KF17 0.967 2.733 0.00392 26.1 20240331 307.8 212.588 69.906 13.215 0.477 1.85 ( 3d) MPO 66383 2004 05 28 704 LINEAR
    000000K04L00B K04L00B2004 LB 0.996 1.107 0.02031 21.6 20240331 357.2 144.73 254.009 37.328 0.053 1.051 2 MPO561973 2004 06 07 699 LONEOS
    000000K04L00C K04L00C2004 LC 0.943 3.262 0.01169 24.4 20240331 195.3 331.164 244.752 5.294 0.551 2.102 ( 7d) MPO 66383 2004 06 08 704 LINEAR
    000000K04L00V K04L00V2004 LV 0.627 2.724 0.02559 24.1 20240331 21.8 133.059 217.003 2.343 0.626 1.676 ( 3d) MPO 66384 2004 06 09 704 LINEAR
    000000K04L01B K04L01B2004 LB1 0.966 1.595 0.03289 23.2 20240331 273.6 125.865 82.885 22.958 0.246 1.28 ( 9d) MPO 66384 2004 06 10 704 LINEAR
    000000K04L02B K04L02B2004 LB2 0.572 2.091 0.0104 22.3 20240331 281.5 106.718 261.209 6.861 0.57 1.332 ( 4d) MPO 66384 2004 06 11 699 LONEOS
    000000K04L05Y K04L05Y2004 LY5 0.407 3.255 0.0184 21.68 20240331 335.4 295.646 86.811 16.058 0.778 1.831 2 MPO686138 2004 06 12 704 LINEAR
    000000K04M00C K04M00C2004 MC 0.995 3.885 0.00324 23.37 20240331 58.8 204.119 91.214 2.419 0.592 2.44 ( 15d) E2023-QE4 2004 06 16 704 LINEAR
    000000K04M01N K04M01N2004 MN1 0.843 1.962 0.01656 24.6 20240331 296.6 249.752 84.482 29.79 0.399 1.402 ( 1d) MPO 66388 2004 06 16 704 LINEAR
    000000K04M01R K04M01R2004 MR1 0.954 2.09 0.00122 25.6 20240331 171.8 221.285 87.651 1.781 0.373 1.522 ( 1d) MPO 66388 2004 06 18 704 LINEAR
    000000K04M01S K04M01S2004 MS1 0.934 3.616 0.00682 22.3 20240331 281.4 324.965 262.768 7.022 0.59 2.275 ( 21d) MPO 66388 2004 06 18 703 CSS
    000000K04M02V K04M02V2004 MV2 0.949 2.747 0.06625 23.5 20240331 332.6 106.423 103.152 6.715 0.487 1.848 ( 4d) MPO 66388 2004 06 19 691 Spacewatch
    000000K04M02X K04M02X2004 MX2 0.777 4.747 0.00155 19.30 20240331 91.1 243.763 116.166 18.098 0.719 2.762 5 MPO740023 2004 06 20 704 LINEAR
    000000K04M03O K04M03O2004 MO3 0.819 1.646 0.01143 22.2 20240331 207.9 297.98 252.533 2.553 0.336 1.233 3 MPO349212 2004 06 21 704 LINEAR
    000000K04M06B K04M06B2004 MB6 0.753 4.39 0.05683 19.6 20240331 262.4 229.855 134.095 11.118 0.707 2.571 4 MPO413592 2004 06 22 691 Spacewatch
    000000K04M06Q K04M06Q2004 MQ6 0.643 3.026 0.07037 19.73 20240331 319.7 256.408 105.749 35.509 0.649 1.835 3 E2024-JV1 2004 06 26 704 LINEAR
    000000K04M07P K04M07P2004 MP7 0.769 4.688 0.01048 21.7 20240331 146.6 112.411 95.08 17.633 0.718 2.729 ( 26d) MPO 70367 2004 06 26 683 R. A. Tucker
    000000K04N08K K04N08K2004 NK8 0.954 1.699 0.03553 23.5 20240331 358.2 302.691 289.939 15.934 0.281 1.326 ( 28d) MPO 66390 2004 07 15 704 LINEAR
    000000K04O04D K04O04D2004 OD4 0.989 3.092 0.00108 27.0 20240331 280.3 336.083 294.559 4.364 0.515 2.04 ( 4d) MPO 70371 2004 07 17 704 LINEAR
    000000K04O10W K04O10W2004 OW10 0.919 1.53 0.0047 24.61 20240331 238.0 131.359 102.018 1.504 0.25 1.224 2 E2023-O77 2004 07 25 699 LONEOS
    000000K04P19Z K04P19Z2004 PZ19 0.919 3.167 0.00222 24.5 20240331 250.4 223.481 138.613 6.884 0.55 2.043 ( 2d) MPO 66403 2004 08 09 704 LINEAR
    000000K04P42U K04P42U2004 PU42 0.875 2.278 0.00098 26.7 20240331 305.8 232.558 146.928 0.993 0.445 1.577 ( 4d) MPO 66408 2004 08 11 704 LINEAR
    000000K04P92R K04P92R2004 PR92 0.748 1.517 0.02495 25.1 20240331 44.2 100.336 321.48 12.96 0.339 1.132 ( 8d) MPO 66416 2004 08 12 704 LINEAR
    000000K04Q00B K04Q00B2004 QB 0.729 3.494 0.01637 19.8 20240331 161.4 112.08 130.926 11.026 0.655 2.112 ( 30d) MPO 70391 2004 08 16 E12 Siding Spring Survey
    000000K04Q01Z K04Q01Z2004 QZ1 0.539 3.191 0.09335 20.7 20240331 222.3 186.667 257.657 5.506 0.711 1.865 3 MPO542922 2004 08 20 704 LINEAR
    000000K04Q02X K04Q02X2004 QX2 0.124 2.457 0.03907 21.72 20240331 168.1 218.969 319.989 19.0 0.904 1.291 ( 17d) E2023-O30 2004 08 20 704 LINEAR
    000000K04Q03D K04Q03D2004 QD3 0.898 2.035 0.10226 19.45 20240331 299.9 108.223 342.619 32.052 0.388 1.466 4 MPO740024 2004 08 21 E12 Siding Spring Survey
    000000K04Q04R K04Q04R2004 QR4 0.989 2.951 0.00724 26.9 20240331 25.4 209.431 149.014 2.668 0.498 1.97 ( 3d) MPO 66419 2004 08 20 691 Spacewatch
    000000K04Q05O K04Q05O2004 QO5 1.0 2.984 0.03482 25.9 20240331 341.0 214.209 149.695 9.207 0.498 1.992 ( 5d) MPO 66419 2004 08 20 691 Spacewatch
    000000K04Q14F K04Q14F2004 QF14 0.972 2.981 0.01704 22.9 20240331 30.5 8.044 283.538 2.759 0.508 1.977 ( 41d) MPO 70393 2004 08 25 704 LINEAR
    000000K04R02W K04R02W2004 RW2 0.99 1.861 0.03891 24.4 20240331 162.5 46.249 334.086 8.324 0.306 1.425 ( 11d) MPO 70396 2004 09 06 704 LINEAR
    000000K04R10W K04R10W2004 RW10 0.955 3.747 0.03434 21.07 20240331 163.1 71.784 206.097 3.111 0.594 2.351 3 MPO713700 2004 09 08 704 LINEAR
    000000K04R10Y K04R10Y2004 RY10 0.633 2.722 0.04379 21.40 20240331 329.3 283.476 165.687 15.526 0.623 1.677 3 E2024-E73 2004 09 08 705 G. A. Esquerdo, J. C. Barentine
    000000K04R11C K04R11C2004 RC11 0.975 2.676 0.0049 23.6 20240331 347.9 162.026 147.602 1.863 0.466 1.825 ( 28d) MPO139206 2004 09 08 704 LINEAR
    000000K04R84E K04R84E2004 RE84 0.66 2.688 0.02017 21.9 20240331 335.4 131.84 321.924 1.996 0.606 1.674 3 MPO542925 2004 09 10 704 LINEAR
    000000K04RA9U K04RA9U2004 RU109 0.783 2.278 0.00047 26.4 20240331 88.5 250.748 171.28 5.841 0.489 1.53 ( 2d) MPO 70424 2004 09 11 704 LINEAR
    000000K04RA9Y K04RA9Y2004 RY109 0.936 2.319 0.04826 19.12 20240331 176.8 306.861 352.352 26.134 0.425 1.627 6 E2023-R23 2004 09 11 704 LINEAR
    000000K04RG4X K04RG4X2004 RX164 0.879 2.531 0.08023 21.33 20240331 305.5 102.441 185.768 12.487 0.484 1.705 2 E2024-GF4 2004 09 13 704 LINEAR
    000000K04RP1N K04RP1N2004 RN251 0.781 2.528 0.00382 26.1 20240331 43.4 246.096 179.451 4.393 0.528 1.655 ( 2d) MPO 70453 2004 09 15 704 LINEAR
    000000K04RP2Q K04RP2Q2004 RQ252 0.688 1.561 0.00025 22.50 20240331 64.5 82.957 25.374 7.747 0.388 1.124 2 E2024-DD1 2004 09 15 E12 Siding Spring Survey
    000000K04RZ7H K04RZ7H2004 RH357 0.865 2.165 0.01628 23.28 20240331 133.4 76.992 359.938 2.622 0.429 1.515 ( 11d) E2021-X46 2004 09 11 691 Spacewatch
    000000K04S00R K04S00R2004 SR 0.963 1.331 0.02552 23.8 20240331 11.3 297.672 354.698 8.633 0.161 1.147 ( 18d) MPO 70466 2004 09 17 704 LINEAR
    000000K04S01B K04S01B2004 SB1 0.611 1.748 0.07918 20.55 20240331 21.2 128.187 354.291 10.339 0.482 1.179 6 E2024-GL3 2004 09 18 704 LINEAR
    000000K04S20A K04S20A2004 SA20 0.704 4.148 0.03582 23.03 20240331 73.6 149.644 133.513 2.992 0.71 2.426 ( 17d) MPO740026 2004 09 21 704 LINEAR
    000000K04S26D K04S26D2004 SD26 0.466 3.613 0.08234 18.89 20240331 225.8 359.707 117.578 4.859 0.772 2.04 2 MPO750185 2004 09 21 704 LINEAR
    000000K04S26E K04S26E2004 SE26 0.941 2.517 0.00663 25.8 20240331 224.1 140.357 176.83 10.745 0.456 1.729 ( 2d) MPO 70470 2004 09 21 704 LINEAR
    000000K04S26S K04S26S2004 SS26 0.888 2.349 0.03393 23.1 20240331 150.8 238.283 180.257 32.608 0.451 1.619 ( 2d) MPO 70470 2004 09 22 704 LINEAR
    000000K04S26T K04S26T2004 ST26 0.572 2.937 0.00126 26.3 20240331 162.4 266.732 358.771 7.308 0.674 1.755 ( 1d) MPO 70470 2004 09 23 691 Spacewatch
    000000K04S26U K04S26U2004 SU26 0.651 2.233 0.01795 24.9 20240331 131.6 84.116 183.959 14.175 0.549 1.442 ( 1d) MPO 70470 2004 09 23 704 LINEAR
    000000K04T01N K04T01N2004 TN1 0.841 4.668 0.00662 21.8 20240331 82.5 233.905 213.6 8.391 0.695 2.755 ( 30d) MPO 74367 2004 10 05 644 NEAT
    000000K04T08E K04T08E2004 TE8 0.561 2.948 0.25565 19.23 20240331 205.0 217.61 21.825 20.637 0.68 1.754 2 E2023-QG4 2004 10 05 691 Spacewatch
    000000K04T10B K04T10B2004 TB10 1.0 1.207 0.01193 21.50 20240331 144.9 149.917 12.826 22.504 0.094 1.103 3 MPO740027 2004 10 07 704 LINEAR
    000000K04T10E K04T10E2004 TE10 0.828 4.169 0.00397 24.20 20240331 339.7 277.334 44.481 0.492 0.669 2.499 2 MPO740027 2004 10 07 704 LINEAR
    000000K04T10F K04T10F2004 TF10 0.942 1.898 0.06034 20.94 20240331 230.3 347.973 297.332 8.952 0.337 1.42 2 MPO781043 2004 10 08 704 LINEAR
    000000K04T10G K04T10G2004 TG10 0.311 4.161 0.02319 19.47 20240331 266.6 317.642 204.857 4.195 0.861 2.236 4 MPO740027 2004 10 08 691 Spacewatch
    000000K04T10J K04T10J2004 TJ10 0.876 1.736 0.04467 25.1 20240331 338.7 251.039 195.542 24.726 0.329 1.306 ( 1d) MPO 70479 2004 10 08 691 Spacewatch
    000000K04T10L K04T10L2004 TL10 0.907 4.393 0.01295 21.3 20240331 183.7 325.562 9.991 9.509 0.658 2.65 2 MPO424546 2004 10 08 704 LINEAR
    000000K04T18C K04T18C2004 TC18 0.85 1.818 0.02894 24.0 20240331 261.9 103.484 206.464 8.372 0.363 1.334 ( 8d) MPO 70481 2004 10 12 704 LINEAR
    000000K04T18D K04T18D2004 TD18 0.793 2.705 0.0041 22.2 20240331 111.4 291.386 186.73 3.903 0.547 1.749 ( 35d) MPO230201 2004 10 13 691 Spacewatch
    000000K04U00B K04U00B2004 UB 0.522 2.211 0.0693 20.5 20240331 98.8 36.852 242.876 6.375 0.618 1.367 4 MPO639874 2004 10 16 704 LINEAR
    000000K04U00E K04U00E2004 UE 0.933 4.334 0.01834 21.36 20240331 194.6 217.646 225.441 14.572 0.646 2.633 2 MPO713706 2004 10 16 704 LINEAR
    000000K04U00R K04U00R2004 UR 0.927 2.192 0.0127 23.1 20240331 328.8 56.756 28.596 2.438 0.406 1.559 ( 49d) MPO232524 2004 10 20 704 LINEAR
    000000K04U01S K04U01S2004 US1 0.705 1.864 0.06512 20.66 20240331 170.9 74.311 223.326 21.409 0.451 1.284 5 E2023-Y06 2004 10 23 704 LINEAR
    000000K04U01V K04U01V2004 UV1 0.984 4.654 0.02329 17.79 20240331 21.5 20.446 76.39 20.78 0.651 2.819 4 E2024-J61 2004 10 25 E12 Siding Spring Survey
    000000K04V00P K04V00P2004 VP 0.945 2.366 0.1032 22.14 20240331 8.7 71.123 45.696 11.697 0.429 1.655 2 E2023-P78 2004 11 03 691 Spacewatch
    000000K04V00W K04V00W2004 VW 0.729 2.276 0.00377 23.1 20240331 162.9 258.188 223.465 12.689 0.515 1.503 ( 3d) MPO 74426 2004 11 04 703 CSS
    000000K04V01H K04V01H2004 VH1 0.82 2.284 0.15196 21.8 20240331 335.8 88.673 43.242 32.795 0.472 1.552 ( 17d) MPO 74427 2004 11 04 703 CSS
    000000K04V14Y K04V14Y2004 VY14 0.687 3.237 0.05696 19.7 20240331 59.2 230.419 60.364 7.023 0.65 1.962 3 MPO357120 2004 11 04 703 CSS
    000000K04V14Z K04V14Z2004 VZ14 0.725 2.332 0.00332 25.04 20240331 104.2 280.27 41.411 4.611 0.525 1.528 2 MPO781046 2004 11 04 703 CSS
    000000K04V24M K04V24M2004 VM24 0.651 1.628 0.00052 25.7 20240331 288.3 277.485 230.965 2.918 0.429 1.139 ( 3d) MPO 74430 2004 11 09 703 CSS
    000000K04V65Q K04V65Q2004 VQ65 0.962 3.0 0.01101 22.3 20240331 332.5 15.087 67.976 9.24 0.515 1.981 ( 18d) MPO 74436 2004 11 14 E12 Siding Spring Survey
    000000K04W01H K04W01H2004 WH1 0.955 1.44 0.00257 24.0 20240331 257.7 219.854 237.937 2.624 0.203 1.197 ( 2d) MPO 74439 2004 11 19 699 LONEOS
    000000K04W01K K04W01K2004 WK1 0.293 1.876 0.04258 21.10 20240331 104.4 223.142 51.789 34.466 0.73 1.084 3 E2021-W85 2004 11 19 704 LINEAR
    000000K04X00K K04X00K2004 XK 0.938 2.181 0.01578 26.0 20240331 315.0 220.437 251.227 11.131 0.398 1.56 ( 3d) MPO 74440 2004 12 02 703 CSS
    000000K04X00O K04X00O2004 XO 0.935 1.135 0.01947 21.62 20240331 221.6 70.968 249.957 26.007 0.097 1.035 2 E2024-D06 2004 12 02 703 CSS
    000000K04X03H K04X03H2004 XH3 0.934 2.898 0.00709 24.1 20240331 89.8 205.346 266.42 4.024 0.512 1.916 ( 6d) MPO 74441 2004 12 01 704 LINEAR
    000000K04X03K K04X03K2004 XK3 0.908 1.548 0.00117 24.47 20240331 137.5 304.712 57.792 1.481 0.26 1.228 4 MPO781047 2004 12 03 699 LONEOS
    000000K04X06D K04X06D2004 XD6 0.85 3.039 0.0667 22.16 20240331 22.5 88.79 66.457 6.667 0.563 1.944 2 E2024-GJ9 2004 12 09 691 Spacewatch
    000000K04X29G K04X29G2004 XG29 0.968 1.852 0.00202 25.66 20240331 205.0 110.758 302.036 0.154 0.314 1.41 (157d) E2024-C40 2004 12 10 704 LINEAR
    000000K04X29J K04X29J2004 XJ29 0.949 3.048 0.05436 21.38 20240331 307.2 107.958 292.782 4.638 0.525 1.998 3 MPO686152 2004 12 11 703 CSS
    000000K04X29K K04X29K2004 XK29 0.861 3.943 0.05605 19.95 20240331 79.8 339.043 35.227 7.861 0.641 2.402 3 MPO740031 2004 12 11 703 CSS
    000000K04X29L K04X29L2004 XL29 0.495 2.255 0.33328 19.04 20240331 286.8 320.258 256.147 43.816 0.64 1.375 6 MPO649720 2004 12 11 691 Spacewatch
    000000K04X29M K04X29M2004 XM29 0.788 3.49 3.0e-05 22.9 20240331 44.0 60.615 99.503 2.578 0.632 2.139 2 MPO139754 2004 12 11 691 Spacewatch
    000000K04X29N K04X29N2004 XN29 0.717 4.129 0.02457 21.87 20240331 55.1 37.365 319.622 2.357 0.704 2.423 ( 27d) E2023-Y18 2004 12 11 703 CSS
    000000K04X29O K04X29O2004 XO29 0.404 2.063 0.16101 20.97 20240331 319.6 145.139 80.685 21.667 0.672 1.233 3 MPO781048 2004 12 11 691 Spacewatch
    000000K04X35P K04X35P2004 XP35 0.927 3.088 0.0143 23.4 20240331 293.1 319.994 80.275 9.407 0.538 2.007 ( 22d) MPO 74448 2004 12 12 691 Spacewatch
    000000K04X45A K04X45A2004 XA45 0.771 2.316 0.07996 21.0 20240331 351.8 83.456 41.682 34.92 0.5 1.544 4 MPO147330 2004 12 12 568 D. J. Tholen
    000000K04X45B K04X45B2004 XB45 0.649 2.452 0.00059 26.2 20240331 331.6 86.246 84.838 3.161 0.581 1.55 ( 4d) MPO 74450 2004 12 13 691 Spacewatch
    000000K04X51C K04X51C2004 XC51 0.546 3.59 0.10612 19.9 20240331 153.7 284.896 252.109 39.983 0.736 2.068 ( 9d) MPO 74451 2004 12 14 704 LINEAR
    000000K04X51D K04X51D2004 XD51 0.944 1.544 0.02607 25.11 20240331 296.6 54.311 83.506 6.796 0.241 1.244 ( 5d) MPO750185 2004 12 14 704 LINEAR
    000000K04X63O K04X63O2004 XO63 0.965 4.075 0.00813 26.2 20240331 285.7 184.279 264.657 1.921 0.617 2.52 ( 6d) MPO 74453 2004 12 15 704 LINEAR
    000000K04Y00A K04Y00A2004 YA 0.782 1.706 0.05142 24.9 20240331 12.2 92.57 264.319 22.877 0.371 1.244 ( 2d) MPO 74467 2004 12 16 704 LINEAR
    000000K04Y00Q K04Y00Q2004 YQ 0.911 2.642 0.03694 24.4 20240331 65.7 309.093 87.672 15.724 0.487 1.777 ( 2d) MPO265645 2004 12 18 704 LINEAR
    000000K04Y00R K04Y00R2004 YR 0.995 2.453 0.18585 20.34 20240331 156.3 65.921 96.76 29.808 0.423 1.724 4 MPO750185 2004 12 18 704 LINEAR
    000000K04Y01G K04Y01G2004 YG1 0.85 1.17 0.06262 21.4 20240331 266.7 293.897 271.711 19.817 0.159 1.01 5 MPO268420 2004 12 18 704 LINEAR
    000000K04Y05D K04Y05D2004 YD5 0.503 4.059 4.0e-05 29.3 20240331 231.5 263.335 87.314 3.598 0.779 2.281 ( 1d) MPO 74468 2004 12 20 691 Spacewatch
    000000K05A03K K05A03K2005 AK3 0.914 3.396 0.00589 24.4 20240331 13.1 229.317 291.85 1.543 0.576 2.155 ( 14d) MPO 74472 2005 01 06 704 LINEAR
    000000K05A03U K05A03U2005 AU3 0.656 1.837 0.00125 26.1 20240331 335.8 266.848 105.022 3.781 0.474 1.246 ( 8d) MPO243049 2005 01 07 704 LINEAR
    000000K05A03V K05A03V2005 AV3 0.973 3.707 0.1956 20.30 20240331 155.1 268.185 123.534 14.238 0.584 2.34 ( 33d) MPO740032 2005 01 07 703 CSS
    000000K05A27V K05A27V2005 AV27 0.795 3.729 0.0397 20.59 20240331 221.9 139.486 67.569 5.889 0.649 2.262 5 MPO740032 2005 01 15 699 LONEOS
    000000K05A28X K05A28X2005 AX28 0.732 3.565 0.01179 25.2 20240331 10.6 74.441 112.154 7.498 0.659 2.149 ( 4d) MPO 74477 2005 01 15 704 LINEAR
    000000K05A28Z K05A28Z2005 AZ28 0.964 1.994 0.02184 24.33 20240331 275.8 103.623 310.751 1.595 0.348 1.479 2 MPO723715 2005 01 15 691 Spacewatch
    000000K05B01M K05B01M2005 BM1 0.845 1.177 0.02805 25.4 20240331 39.8 78.835 297.444 15.336 0.164 1.011 ( 2d) MPO 97779 2005 01 16 704 LINEAR
    000000K05B01N K05B01N2005 BN1 0.795 2.782 0.01874 24.0 20240331 28.1 108.13 300.309 6.795 0.555 1.789 ( 18d) MPO230203 2005 01 16 704 LINEAR
    000000K05B01S K05B01S2005 BS1 0.85 3.082 1.0e-05 27.5 20240331 3.0 308.643 113.471 2.65 0.568 1.966 ( 3d) MPO 77805 2005 01 16 704 LINEAR
    000000K05B01T K05B01T2005 BT1 0.38 2.28 0.36373 19.15 20240331 251.3 32.878 304.467 63.621 0.714 1.33 6 E2024-DD1 2005 01 16 704 LINEAR
    000000K05B01U K05B01U2005 BU1 0.953 1.963 0.07234 23.99 20240331 354.6 305.23 117.503 21.344 0.347 1.458 ( 1d) MPO740033 2005 01 17 704 LINEAR
    000000K05B01W K05B01W2005 BW1 0.329 4.931 0.2402 18.23 20240331 174.3 274.17 342.395 62.267 0.875 2.63 3 MPO686156 2005 01 16 703 CSS
    000000K05B14H K05B14H2005 BH14 0.404 1.932 0.06952 21.44 20240331 114.9 50.137 303.494 25.02 0.654 1.168 4 E2024-CE5 2005 01 20 704 LINEAR
    000000K05B28G K05B28G2005 BG28 0.793 1.259 0.01011 25.6 20240331 230.4 80.994 313.425 6.137 0.227 1.026 ( 7d) MPO 74487 2005 01 31 704 LINEAR
    000000K05C00N K05C00N2005 CN 0.828 1.203 0.02917 23.13 20240331 137.0 321.69 308.109 2.3 0.185 1.016 7 MPO740033 2005 02 02 703 CSS
    000000K05C07M K05C07M2005 CM7 0.631 2.791 0.00371 26.2 20240331 223.7 271.002 136.27 4.9 0.631 1.711 ( 6d) MPO 74489 2005 02 04 704 LINEAR
    000000K05C07P K05C07P2005 CP7 0.984 3.539 0.0026 25.4 20240331 227.2 350.419 127.031 1.291 0.565 2.261 ( 4d) MPO 74489 2005 02 04 704 LINEAR
    000000K05C07Q K05C07Q2005 CQ7 0.933 2.786 0.02919 24.5 20240331 213.4 312.381 137.905 7.837 0.498 1.859 ( 5d) MPO265646 2005 02 04 699 LONEOS
    000000K05C37C K05C37C2005 CC37 0.967 3.454 0.0046 22.7 20240331 302.5 345.991 112.984 6.141 0.563 2.21 ( 30d) MPO545638 2005 02 06 106 S. Maticic
    000000K05C38P K05C38P2005 CP38 0.672 1.367 0.06254 23.7 20240331 297.0 61.771 322.144 22.204 0.341 1.019 ( 8d) MPO311265 2005 02 09 704 LINEAR
    000000K05C38U K05C38U2005 CU38 0.757 2.727 0.03271 23.9 20240331 141.3 96.717 324.647 8.018 0.565 1.742 ( 10d) MPO 74495 2005 02 09 G96 Mt. Lemmon Survey
    000000K05C41E K05C41E2005 CE41 0.859 2.707 0.00404 23.8 20240331 27.5 303.634 142.99 2.786 0.518 1.783 2 MPO388861 2005 02 09 704 LINEAR
    000000K05C41G K05C41G2005 CG41 0.686 1.424 0.11034 23.7 20240331 325.0 237.979 137.733 24.948 0.35 1.055 2 MPO561991 2005 02 10 809 A. Boattini, H. Scholl
    000000K05C61U K05C61U2005 CU61 0.47 3.064 0.01693 22.56 20240331 74.4 86.525 307.528 5.661 0.734 1.767 ( 5d) MPO750185 2005 02 14 703 CSS
    000000K05D00D K05D00D2005 DD 0.835 3.033 0.03053 20.39 20240331 77.3 252.301 157.146 7.326 0.568 1.934 2 E2023-X62 2005 02 16 809 A. Boattini, H. Scholl
    000000K05D00O K05D00O2005 DO 0.899 4.025 0.08451 19.79 20240331 313.6 170.671 53.12 9.255 0.635 2.462 (149d) MPO781050 2005 02 28 704 LINEAR
    000000K05E00A K05E00A2005 EA 0.469 2.133 0.03296 20.94 20240331 253.9 298.893 346.872 14.059 0.639 1.301 6 E2021-W23 2005 03 01 703 CSS
    000000K05E01S K05E01S2005 ES1 0.956 1.755 0.00713 26.8 20240331 55.4 315.38 164.57 1.859 0.295 1.355 ( 4d) MPO 77816 2005 03 03 703 CSS
    000000K05E02T K05E02T2005 ET2 0.868 3.53 0.06203 20.7 20240331 278.9 268.922 333.115 5.703 0.605 2.199 ( 4d) MPO 77817 2005 03 04 G96 Mt. Lemmon Survey
    000000K05E02U K05E02U2005 EU2 0.974 2.041 0.00102 23.1 20240331 81.4 24.147 191.04 4.583 0.354 1.508 (100d) MPO 87652 2005 03 04 703 CSS
    000000K05E33O K05E33O2005 EO33 0.843 3.099 0.04082 21.3 20240331 341.3 158.819 289.496 4.619 0.572 1.971 ( 26d) MPO 77822 2005 03 07 704 LINEAR
    000000K05E70L K05E70L2005 EL70 0.165 4.451 0.00254 24.0 20240331 164.5 223.615 164.303 15.362 0.928 2.308 ( 2d) MPO 77827 2005 03 08 G96 Mt. Lemmon Survey
    000000K05E70M K05E70M2005 EM70 0.981 2.228 0.06372 24.8 20240331 156.6 135.135 348.017 18.319 0.389 1.604 ( 2d) MPO 77827 2005 03 08 G96 Mt. Lemmon Survey
    000000K05E70R K05E70R2005 ER70 0.951 1.498 0.02412 25.02 20240331 343.8 236.375 349.506 6.838 0.223 1.225 ( 11d) E2024-B20 2005 03 09 699 LONEOS
    000000K05E70T K05E70T2005 ET70 0.37 3.895 0.05447 20.88 20240331 63.8 327.216 82.702 5.601 0.827 2.133 ( 24d) MPO750185 2005 03 09 703 CSS
    000000K05E94H K05E94H2005 EH94 0.891 1.545 0.02582 23.8 20240331 14.5 255.254 348.625 6.223 0.268 1.218 ( 2d) MPO 77831 2005 03 09 691 Spacewatch
    000000K05E95Q K05E95Q2005 EQ95 0.784 2.594 0.00414 23.4 20240331 268.9 252.753 195.699 2.434 0.536 1.689 2 MPO377773 2005 03 10 703 CSS
    000000K05E95S K05E95S2005 ES95 0.942 3.081 0.03789 25.8 20240331 234.3 52.035 167.249 7.514 0.532 2.012 ( 2d) MPO 77831 2005 03 10 G96 Mt. Lemmon Survey
    000000K05E95U K05E95U2005 EU95 0.76 1.599 0.09457 20.85 20240331 255.2 115.802 163.691 24.381 0.356 1.179 2 E2024-DD1 2005 03 10 703 CSS
    000000K05E95V K05E95V2005 EV95 0.875 2.347 0.09017 22.13 20240331 87.8 70.45 176.505 33.647 0.457 1.611 ( 2d) MPO734022 2005 03 10 G96 Mt. Lemmon Survey
    000000K05EG9E K05EG9E2005 EE169 0.991 3.511 0.01409 24.2 20240331 227.8 51.105 160.065 1.341 0.56 2.251 ( 23d) MPO 77841 2005 03 10 G96 Mt. Lemmon Survey
    000000K05EG9G K05EG9G2005 EG169 0.758 2.084 0.03647 24.9 20240331 54.2 91.355 169.745 11.739 0.467 1.421 2 MPO347173 2005 03 10 G96 Mt. Lemmon Survey
    000000K05EG9J K05EG9J2005 EJ169 0.87 3.166 0.02348 22.9 20240331 245.4 121.21 358.37 8.681 0.569 2.018 ( 21d) MPO 77841 2005 03 11 703 CSS
    000000K05EG9M K05EG9M2005 EM169 0.744 4.906 0.00817 24.8 20240331 15.3 116.732 346.685 11.095 0.737 2.825 ( 5d) MPO 77841 2005 03 12 704 LINEAR
    000000K05EM3Z K05EM3Z2005 EZ223 0.806 2.703 0.02235 22.4 20240331 90.3 98.354 5.304 3.937 0.541 1.755 ( 24d) MPO111087 2005 03 14 703 CSS
    000000K05EM4D K05EM4D2005 ED224 0.65 3.179 0.00033 24.28 20240331 88.6 277.564 170.139 31.946 0.661 1.914 ( 3d) MPO734023 2005 03 13 704 LINEAR
    000000K05F00A K05F00A2005 FA 0.817 3.546 0.00612 25.2 20240331 313.9 62.787 173.916 4.056 0.625 2.181 ( 3d) MPO 77854 2005 03 16 703 CSS
    000000K05F00G K05F00G2005 FG 0.882 1.36 0.0163 24.06 20240331 303.4 272.433 355.512 3.895 0.213 1.121 4 E2024-F74 2005 03 16 691 Spacewatch
    000000K05F00K K05F00K2005 FK 0.898 2.153 0.04915 23.4 20240331 7.9 79.335 164.051 5.923 0.411 1.526 2 MPO555259 2005 03 16 703 CSS
    000000K05F02V K05F02V2005 FV2 0.599 3.735 0.20887 18.67 20240331 4.5 43.237 31.548 19.361 0.723 2.167 4 MPO740036 2005 03 18 106 S. Maticic
    000000K05F03E K05F03E2005 FE3 0.991 3.241 0.03043 19.3 20240331 49.6 145.138 90.541 13.113 0.532 2.116 4 MPO285668 2005 03 23 704 LINEAR
    000000K05G00U K05G00U2005 GU 0.598 2.505 0.01373 20.02 20240331 260.7 275.799 26.881 25.05 0.615 1.552 3 E2023-Y56 2005 04 02 703 CSS
    000000K05G08J K05G08J2005 GJ8 0.793 2.74 0.02828 20.54 20240331 58.7 214.841 252.565 3.392 0.551 1.766 5 E2024-EJ0 2005 04 03 704 LINEAR
    000000K05G08Y K05G08Y2005 GY8 0.668 3.425 0.00302 21.9 20240331 146.5 103.479 179.64 2.83 0.673 2.047 3 MPO311265 2005 04 02 G96 Mt. Lemmon Survey
    000000K05G33Q K05G33Q2005 GQ33 0.628 3.866 0.0185 23.78 20240331 236.6 38.895 71.366 1.531 0.721 2.247 ( 1d) MPO734024 2005 04 06 703 CSS
    000000K05G34B K05G34B2005 GB34 0.997 1.833 0.00684 25.4 20240331 110.8 161.764 17.797 20.308 0.296 1.415 ( 6d) MPO 77860 2005 04 06 118 Astronomical and Geophysical Observatory, Modra
    000000K05G59O K05G59O2005 GO59 0.484 3.112 0.08306 20.61 20240331 343.8 13.85 68.115 5.336 0.731 1.798 3 MPO740036 2005 04 08 704 LINEAR
    000000K05G60D K05G60D2005 GD60 0.832 1.828 0.03291 21.7 20240331 80.0 100.1 199.058 9.896 0.374 1.33 2 MPO209646 2005 04 09 691 Spacewatch
    000000K05G81H K05G81H2005 GH81 0.887 3.001 0.04308 21.71 20240331 15.2 118.498 19.586 11.718 0.544 1.944 ( 24d) E2023-QF3 2005 04 10 703 CSS
    000000K05GB0Z K05GB0Z2005 GZ110 0.943 2.383 0.06081 22.74 20240331 282.3 61.036 193.187 10.92 0.433 1.663 3 MPO781054 2005 04 11 699 LONEOS
    000000K05GC0A K05GC0A2005 GA120 0.79 1.783 0.004 24.9 20240331 40.0 282.787 197.62 12.269 0.386 1.286 ( 2d) MPO265649 2005 04 11 704 LINEAR
    000000K05GE1K K05GE1K2005 GK141 0.916 4.553 0.00052 22.46 20240331 58.9 219.093 33.509 13.947 0.665 2.735 ( 5d) MPO734024 2005 04 13 704 LINEAR
    000000K05H00F K05H00F2005 HF 0.978 3.398 0.01596 23.4 20240331 320.0 143.644 31.323 3.802 0.553 2.188 ( 14d) MPO 77876 2005 04 17 E12 Siding Spring Survey
    000000K05H04C K05H04C2005 HC4 0.071 3.571 0.05916 20.7 20240331 231.2 310.489 62.342 8.556 0.961 1.821 ( 12d) MPO166198 2005 04 30 699 LONEOS
    000000K05J01T K05J01T2005 JT1 0.99 1.847 0.00411 25.7 20240331 49.9 195.569 65.329 1.561 0.302 1.418 ( 6d) MPO 77878 2005 05 04 703 CSS
    000000K05J01U K05J01U2005 JU1 0.734 3.939 0.03371 21.70 20240331 87.3 269.548 32.99 6.066 0.686 2.337 2 MPO740037 2005 05 04 E12 Siding Spring Survey
    000000K05J03O K05J03O2005 JO3 0.915 1.82 0.06366 20.13 20240331 221.1 294.387 17.7 29.114 0.331 1.367 3 MPO781056 2005 05 04 G96 Mt. Lemmon Survey
    000000K05J05R K05J05R2005 JR5 0.98 1.336 0.05393 22.1 20240331 6.1 246.871 49.3 31.043 0.154 1.158 4 E2020-V70 2005 05 06 699 LONEOS
    000000K05J22B K05J22B2005 JB22 0.679 1.446 0.02886 24.9 20240331 162.0 249.441 224.376 15.832 0.361 1.063 ( 7d) MPO 77881 2005 05 07 691 Spacewatch
    000000K05J45A K05J45A2005 JA45 0.975 4.494 0.02732 24.6 20240331 49.1 190.409 49.331 22.034 0.643 2.735 ( 1d) MPO 77886 2005 05 09 703 CSS
    000000K05J46D K05J46D2005 JD46 0.568 4.722 0.16904 18.22 20240331 157.9 52.637 46.082 18.247 0.785 2.645 2 MPO740038 2005 05 10 703 CSS
    000000K05J81Q K05J81Q2005 JQ81 0.528 4.702 0.16815 20.11 20240331 141.8 131.323 219.637 16.309 0.798 2.615 2 E2022-L69 2005 05 10 G96 Mt. Lemmon Survey
    000000K05J81U K05J81U2005 JU81 0.807 1.426 0.02873 21.79 20240331 73.1 72.519 56.309 17.291 0.277 1.116 4 MPO781057 2005 05 12 608 NEAT
    000000K05JA8F K05JA8F2005 JF108 0.401 3.616 0.36424 18.22 20240331 263.8 23.675 70.987 30.336 0.8 2.009 ( 1d) MPO740038 2005 05 13 703 CSS
    000000K05K00R K05K00R2005 KR 0.79 1.488 0.13786 21.73 20240331 62.7 320.815 63.337 21.664 0.306 1.139 2 MPO740039 2005 05 17 G96 Mt. Lemmon Survey
    000000K05K07D K05K07D2005 KD7 0.519 1.815 0.22652 20.6 20240331 272.2 137.536 240.07 40.077 0.555 1.167 ( 24d) MPO 77904 2005 05 20 G96 Mt. Lemmon Survey
    000000K05K10J K05K10J2005 KJ10 0.792 2.975 0.02867 21.71 20240331 84.8 234.011 81.15 8.172 0.579 1.884 2 MPO781059 2005 05 31 704 LINEAR
    000000K05L00D K05L00D2005 LD 0.968 2.125 0.01079 23.0 20240331 259.5 219.558 83.534 9.296 0.374 1.546 (186d) MPO234366 2005 06 01 699 LONEOS
    000000K05L03U K05L03U2005 LU3 0.731 1.385 0.01199 26.2 20240331 176.3 72.138 80.474 5.577 0.309 1.058 ( 4d) MPO 77906 2005 06 05 703 CSS
    000000K05L03W K05L03W2005 LW3 0.772 2.106 0.00096 21.67 20240331 309.8 288.675 59.58 6.021 0.464 1.439 5 MPO750185 2005 06 05 E12 Siding Spring Survey
    000000K05L30V K05L30V2005 LV30 0.638 4.009 0.19176 19.11 20240331 117.1 29.864 122.849 15.798 0.725 2.324 ( 22d) E2023-P78 2005 06 13 703 CSS
    000000K05L36X K05L36X2005 LX36 0.437 1.623 0.02294 20.90 20240331 57.5 239.137 252.73 32.971 0.575 1.03 3 E2024-GF4 2005 06 14 699 LONEOS
    000000K05L40Q K05L40Q2005 LQ40 0.954 2.61 0.08943 23.3 20240331 302.1 71.147 250.166 10.492 0.465 1.782 ( 21d) MPO 87684 2005 06 14 691 Spacewatch
    000000K05M00A K05M00A2005 MA 0.854 3.212 0.00525 26.9 20240331 156.6 61.528 264.902 2.936 0.58 2.033 ( 5d) MPO 87685 2005 06 16 G96 Mt. Lemmon Survey
    000000K05M09W K05M09W2005 MW9 0.401 6.766 0.14685 19.2 20240331 285.5 241.438 291.633 55.289 0.888 3.583 ( 19d) MPO 87686 2005 06 18 G96 Mt. Lemmon Survey
    000000K05M13L K05M13L2005 ML13 0.865 1.43 0.06176 22.51 20240331 29.7 220.838 140.564 6.853 0.246 1.148 5 MPO639889 2005 06 28 703 CSS
    000000K05N00G K05N00G2005 NG 0.879 2.67 0.00061 24.2 20240331 351.7 306.35 275.84 8.447 0.505 1.775 ( 9d) MPO545643 2005 07 02 703 Catalina Sky Survey
    000000K05N01L K05N01L2005 NL1 0.989 3.088 0.05684 21.4 20240331 172.3 302.209 299.504 6.47 0.515 2.038 ( 55d) MPO 87694 2005 07 03 E12 Siding Spring Survey
    000000K05N07E K05N07E2005 NE7 0.723 3.371 0.04763 19.01 20240331 119.1 307.024 80.271 9.532 0.647 2.047 5 E2024-B03 2005 07 05 E12 Siding Spring Survey
    000000K05N39X K05N39X2005 NX39 0.32 4.647 0.0877 19.7 20240331 308.6 40.001 120.088 13.523 0.871 2.483 ( 13d) MPO 87702 2005 07 09 703 CSS
    000000K05N55X K05N55X2005 NX55 0.627 2.463 0.03398 22.1 20240331 238.4 277.271 106.145 26.483 0.594 1.545 ( 1d) MPO 87705 2005 07 11 691 Spacewatch
    000000K05N56B K05N56B2005 NB56 0.865 2.42 0.01553 23.33 20240331 345.6 114.479 112.139 6.766 0.473 1.642 2 E2024-E11 2005 07 11 G96 Mt. Lemmon Survey
    000000K05N56G K05N56G2005 NG56 0.962 4.64 0.00323 22.4 20240331 356.8 150.943 114.11 16.984 0.657 2.801 ( 8d) MPO 87705 2005 07 11 704 LINEAR
    000000K05N63D K05N63D2005 ND63 0.948 1.771 0.00397 26.2 20240331 314.9 313.349 289.322 8.524 0.303 1.36 ( 3d) MPO 87706 2005 07 12 703 CSS
    000000K05O00X K05O00X2005 OX 0.509 2.153 0.01668 20.63 20240331 13.5 100.459 323.609 7.617 0.618 1.331 3 MPO750185 2005 07 25 E12 Siding Spring Survey
    000000K05O02R K05O02R2005 OR2 0.908 3.152 0.02356 23.5 20240331 176.2 336.138 276.453 3.727 0.553 2.03 ( 4d) MPO 87712 2005 07 29 704 LINEAR
    000000K05O03D K05O03D2005 OD3 0.941 3.803 0.00909 21.2 20240331 27.8 38.346 323.718 16.194 0.603 2.372 2 MPO388864 2005 07 28 644 NEAT
    000000K05O03E K05O03E2005 OE3 0.895 2.238 0.02649 20.38 20240331 155.5 58.42 321.03 25.368 0.429 1.567 6 E2024-A34 2005 07 29 E12 Siding Spring Survey
    000000K05O03F K05O03F2005 OF3 0.99 3.787 0.05154 22.0 20240331 32.1 94.882 174.013 3.285 0.585 2.389 ( 43d) MPO 87712 2005 07 30 704 LINEAR
    000000K05P02H K05P02H2005 PH2 0.563 2.283 0.09077 20.32 20240331 299.5 343.588 96.387 5.758 0.604 1.423 5 E2023-R01 2005 08 04 644 NEAT
    000000K05P17A K05P17A2005 PA17 0.988 3.636 0.02331 24.09 20240331 101.6 232.4 125.389 2.542 0.573 2.312 2 MPO703172 2005 08 12 E12 Siding Spring Survey
    000000K05Q00C K05Q00C2005 QC 0.409 3.194 0.20063 18.9 20240331 229.4 12.267 79.862 13.786 0.773 1.802 4 MPO419355 2005 08 22 E12 Siding Spring Survey
    000000K05Q05B K05Q05B2005 QB5 0.839 1.404 0.01535 23.7 20240331 294.5 93.731 149.933 13.653 0.252 1.122 2 MPO399376 2005 08 26 E12 Siding Spring Survey
    000000K05Q30Q K05Q30Q2005 QQ30 0.798 2.712 0.16221 19.97 20240331 28.7 173.593 67.849 11.229 0.545 1.755 4 MPO659815 2005 08 29 E12 Siding Spring Survey
    000000K05Q76K K05Q76K2005 QK76 0.674 2.124 8.0e-05 25.1 20240331 119.2 266.257 337.431 22.891 0.518 1.399 ( 2d) MPO 87737 2005 08 30 691 Spacewatch
    000000K05Q87Q K05Q87Q2005 QQ87 0.699 1.303 0.07935 22.84 20240331 298.2 54.832 154.998 33.967 0.302 1.001 7 E2023-O60 2005 08 31 691 Spacewatch
    000000K05Q88G K05Q88G2005 QG88 0.876 2.581 0.09737 20.43 20240331 99.0 273.404 344.615 11.315 0.493 1.728 2 MPO740041 2005 08 31 691 Spacewatch
    000000K05QF1Z K05QF1Z2005 QZ151 0.814 3.061 0.00497 20.30 20240331 290.5 63.2 20.698 4.85 0.58 1.937 4 MPO740041 2005 08 31 644 NEAT
    000000K05R00A K05R00A2005 RA 0.872 4.238 0.04106 22.2 20240331 189.1 80.718 321.343 4.414 0.659 2.555 ( 13d) MPO 87754 2005 09 01 699 LONEOS
    000000K05R00J K05R00J2005 RJ 0.866 4.293 0.0469 22.3 20240331 165.0 255.419 141.201 6.324 0.664 2.579 ( 7d) MPO 87754 2005 09 01 E12 Siding Spring Survey
    000000K05R02Z K05R02Z2005 RZ2 0.992 1.22 0.07924 23.3 20240331 259.0 280.293 154.939 13.161 0.103 1.106 3 MPO542979 2005 09 01 644 NEAT
    000000K05R03A K05R03A2005 RA3 0.984 1.939 0.04981 22.3 20240331 143.8 233.759 176.092 6.76 0.327 1.462 (141d) MPO 97803 2005 09 02 644 NEAT
    000000K05R03W K05R03W2005 RW3 0.75 3.46 0.02299 22.8 20240331 43.3 219.668 48.886 2.699 0.644 2.105 ( 24d) MPO 90241 2005 09 06 E12 Siding Spring Survey
    000000K05R03X K05R03X2005 RX3 0.719 2.335 0.02308 22.54 20240331 266.5 74.329 0.048 16.852 0.529 1.527 2 MPO723731 2005 09 06 E12 Siding Spring Survey
    000000K05R06P K05R06P2005 RP6 0.965 3.593 0.12545 21.2 20240331 157.2 287.368 350.918 12.521 0.577 2.279 ( 46d) MPO 90241 2005 09 08 E12 Siding Spring Survey
    000000K05R24V K05R24V2005 RV24 0.177 2.834 0.07107 20.65 20240331 40.2 33.539 166.256 36.173 0.882 1.506 3 E2023-QF3 2005 09 09 704 LINEAR
    000000K05R34D K05R34D2005 RD34 0.976 1.678 0.13001 20.42 20240331 104.1 102.089 175.535 19.922 0.265 1.327 4 MPO732481 2005 09 15 703 CSS
    000000K05S00C K05S00C2005 SC 0.762 3.752 0.07281 20.31 20240331 150.7 156.689 280.967 6.607 0.662 2.257 3 MPO740042 2005 09 16 704 LINEAR
    000000K05S00L K05S00L2005 SL 0.79 1.463 0.02563 22.83 20240331 104.3 290.007 176.102 6.169 0.299 1.126 ( 10d) E2023-O53 2005 09 22 644 NEAT
    000000K05S01O K05S01O2005 SO1 0.917 3.418 0.00617 25.4 20240331 300.2 315.65 358.755 5.237 0.577 2.168 ( 14d) MPO 87762 2005 09 23 703 CSS
    000000K05S01P K05S01P2005 SP1 0.803 3.964 0.01549 23.23 20240331 29.2 111.095 178.948 6.05 0.663 2.384 ( 20d) E2024-G04 2005 09 23 703 CSS
    000000K05S01S K05S01S2005 SS1 0.964 2.992 0.0069 26.1 20240331 247.7 143.143 178.897 2.882 0.513 1.978 ( 14d) MPO202415 2005 09 23 703 CSS
    000000K05S04V K05S04V2005 SV4 0.966 3.824 0.02299 22.7 20240331 5.6 141.613 173.54 8.107 0.597 2.395 ( 27d) MPO 90247 2005 09 25 703 CSS
    000000K05S09Q K05S09Q2005 SQ9 0.929 1.956 0.03826 22.9 20240331 285.8 280.386 6.804 4.039 0.356 1.443 ( 29d) MPO230206 2005 09 26 691 Spacewatch
    000000K05S09W K05S09W2005 SW9 0.856 3.184 0.11399 20.14 20240331 145.8 195.097 226.38 15.537 0.576 2.02 ( 5d) E2024-H05 2005 09 25 704 LINEAR
    000000K05S19J K05S19J2005 SJ19 0.968 2.161 0.05233 24.0 20240331 182.5 312.059 10.627 18.438 0.381 1.565 ( 16d) MPO 87767 2005 09 27 704 LINEAR
    000000K05S26H K05S26H2005 SH26 0.756 1.439 0.19009 20.70 20240331 145.6 35.856 193.966 22.408 0.311 1.098 6 MPO649730 2005 09 29 699 LONEOS
    000000K05S26K K05S26K2005 SK26 0.956 2.622 0.01182 25.5 20240331 251.0 229.192 172.23 2.148 0.465 1.789 ( 3d) MPO 87769 2005 09 29 E12 Siding Spring Survey
    000000K05S70Z K05S70Z2005 SZ70 0.907 2.335 0.01697 24.4 20240331 4.6 118.222 198.776 3.718 0.44 1.621 ( 28d) MPO 90266 2005 09 30 703 CSS
    000000K05T00A K05T00A2005 TA 0.96 1.602 0.00123 27.2 20240331 249.7 34.65 13.792 2.776 0.25 1.281 ( 4d) MPO 87820 2005 10 01 E12 Siding Spring Survey
    000000K05T00D K05T00D2005 TD 0.977 1.892 0.05559 23.5 20240331 252.0 47.59 11.728 24.414 0.319 1.434 ( 15d) MPO 90309 2005 10 01 699 LONEOS
    000000K05T00E K05T00E2005 TE 0.739 2.761 0.02926 23.9 20240331 23.3 270.978 12.728 6.493 0.578 1.75 ( 6d) MPO 87820 2005 10 01 G96 Mt. Lemmon Survey
    000000K05T00P K05T00P2005 TP 0.938 3.62 0.03814 20.8 20240331 116.7 353.703 86.379 7.879 0.588 2.279 2 MPO234632 2005 10 02 E12 Siding Spring Survey
    000000K05T15B K05T15B2005 TB15 0.445 3.181 0.06874 19.56 20240331 154.6 139.437 9.28 7.315 0.755 1.813 5 MPO740043 2005 10 01 G96 Mt. Lemmon Survey
    000000K05T15F K05T15F2005 TF15 0.788 3.795 0.18333 19.5 20240331 102.7 7.041 76.23 15.984 0.656 2.292 4 MPO258326 2005 10 04 E12 Siding Spring Survey
    000000K05T15P K05T15P2005 TP15 0.967 1.727 0.00852 25.2 20240331 319.4 143.506 187.052 14.943 0.282 1.347 ( 5d) MPO 87823 2005 10 01 704 LINEAR
    000000K05T15S K05T15S2005 TS15 0.816 1.705 0.00397 21.03 20240331 311.3 106.089 16.196 33.999 0.353 1.26 3 MPO732488 2005 10 05 703 CSS
    000000K05T45H K05T45H2005 TH45 0.66 1.913 0.00748 26.3 20240331 279.9 263.231 13.198 5.526 0.487 1.286 ( 6d) MPO 87827 2005 10 05 704 LINEAR
    000000K05T49D K05T49D2005 TD49 0.993 4.358 3.0e-05 26.4 20240331 70.3 189.399 198.943 0.122 0.629 2.676 ( 12d) MPO 87827 2005 10 01 G96 Mt. Lemmon Survey
    000000K05T50F K05T50F2005 TF50 0.29 4.234 0.11839 20.3 20240331 119.1 160.417 0.258 10.902 0.872 2.262 ( 26d) MPO130235 2005 10 10 691 Spacewatch
    000000K05T50K K05T50K2005 TK50 0.727 3.108 0.00185 29.1 20240331 327.6 74.368 15.738 4.896 0.621 1.917 ( 0d) MPO 87828 2005 10 09 691 Spacewatch
    000000K05T50R K05T50R2005 TR50 0.878 2.351 0.00816 20.21 20240331 337.1 49.271 29.427 34.048 0.456 1.614 3 MPO750185 2005 10 10 E12 Siding Spring Survey
    000000K05T50U K05T50U2005 TU50 0.576 2.277 0.01012 21.47 20240331 334.4 259.599 22.25 12.426 0.596 1.426 6 E2024-F78 2005 10 12 704 LINEAR
    000000K05T51C K05T51C2005 TC51 0.699 1.318 0.00413 27.3 20240331 13.6 288.294 198.928 5.644 0.307 1.008 ( 1d) MPO 87828 2005 10 12 704 LINEAR
    000000K05T51V K05T51V2005 TV51 0.987 3.072 0.01563 26.4 20240331 133.2 23.508 19.506 10.474 0.514 2.029 ( 4d) MPO 87828 2005 10 13 691 Spacewatch
    000000K05TH3M K05TH3M2005 TM173 0.895 4.775 0.01352 24.06 20240331 288.6 175.067 239.29 1.428 0.684 2.835 ( 2d) MPO734032 2005 10 09 703 CSS
    000000K05U00F K05U00F2005 UF 0.813 2.525 0.00478 26.1 20240331 176.2 244.698 209.675 7.261 0.513 1.669 ( 1d) MPO 90332 2005 10 22 691 Spacewatch
    000000K05U00L K05U00L2005 UL 0.532 3.225 0.10272 18.79 20240331 22.6 213.806 291.167 7.805 0.717 1.878 5 E2023-WB9 2005 10 23 644 NEAT
    000000K05U00R K05U00R2005 UR 0.267 4.234 0.03718 21.6 20240331 146.0 141.774 18.881 7.072 0.881 2.251 ( 6d) MPO 90332 2005 10 23 703 CSS
    000000K05U01A K05U01A2005 UA1 0.818 3.427 0.0016 26.2 20240331 359.7 73.418 255.477 0.431 0.614 2.122 ( 19d) MPO 97871 2005 10 23 703 CSS
    000000K05U03C K05U03C2005 UC3 0.995 3.365 0.00149 27.1 20240331 271.6 328.838 28.191 0.24 0.543 2.18 ( 18d) MPO 97872 2005 10 24 G96 Mt. Lemmon Survey
    000000K05U03U K05U03U2005 UU3 0.67 1.895 0.14307 22.17 20240331 180.6 128.666 36.443 13.941 0.478 1.282 3 MPO781081 2005 10 25 G96 Mt. Lemmon Survey
    000000K05U05G K05U05G2005 UG5 0.862 1.249 0.01467 24.3 20240331 264.8 111.141 35.758 2.733 0.183 1.055 2 MPO466213 2005 10 27 691 Spacewatch
    000000K05U05W K05U05W2005 UW5 0.845 1.949 0.00149 27.5 20240331 27.7 63.177 35.111 2.938 0.395 1.397 ( 3d) MPO 97872 2005 10 27 704 LINEAR
    000000K05U05X K05U05X2005 UX5 0.744 2.776 0.06569 21.19 20240331 291.2 264.887 217.54 19.645 0.577 1.76 4 MPO703181 2005 10 28 703 CSS
    000000K05U06A K05U06A2005 UA6 0.908 3.91 0.01627 23.3 20240331 340.7 310.653 37.258 5.741 0.623 2.409 ( 28d) MPO 97872 2005 10 28 704 LINEAR
    000000K05U06L K05U06L2005 UL6 0.96 4.099 0.00434 24.5 20240331 211.8 91.335 265.132 0.282 0.62 2.53 ( 24d) MPO 97873 2005 10 29 691 Spacewatch
    000000K05U06S K05U06S2005 US6 0.953 2.239 0.01638 24.8 20240331 76.7 293.408 39.932 1.73 0.403 1.596 ( 3d) MPO 90334 2005 10 28 G96 Mt. Lemmon Survey
    000000K05U06V K05U06V2005 UV6 0.992 3.271 0.01041 27.3 20240331 325.7 202.775 213.836 1.895 0.534 2.131 ( 2d) MPO 90335 2005 10 29 G96 Mt. Lemmon Survey
    000000K05U06W K05U06W2005 UW6 0.532 3.545 0.01506 21.8 20240331 96.2 181.057 334.435 0.872 0.739 2.039 ( 21d) MPO 97873 2005 10 29 691 Spacewatch
    000000K05U64S K05U64S2005 US64 0.976 1.304 0.02778 23.0 20240331 84.2 310.702 36.163 37.102 0.144 1.14 ( 4d) MPO 90353 2005 10 31 703 CSS
    000000K05U64T K05U64T2005 UT64 0.872 2.771 0.04562 20.26 20240331 142.1 327.451 161.552 10.512 0.521 1.821 5 MPO713729 2005 10 31 703 CSS
    000000K05V00N K05V00N2005 VN 0.929 3.244 0.00713 22.91 20240331 50.1 142.374 219.131 10.798 0.555 2.087 3 MPO781091 2005 11 02 704 LINEAR
    000000K05V00O K05V00O2005 VO 0.787 4.064 0.00195 27.9 20240331 293.1 254.585 204.385 0.487 0.676 2.426 ( 2d) MPO 90382 2005 11 03 G96 Mt. Lemmon Survey
    000000K05V00P K05V00P2005 VP 0.962 3.682 0.03042 25.6 20240331 82.8 134.393 222.746 5.49 0.586 2.322 ( 1d) MPO 90382 2005 11 03 G96 Mt. Lemmon Survey
    000000K05V00R K05V00R2005 VR 0.921 2.933 0.28294 20.78 20240331 347.7 270.929 49.93 34.947 0.522 1.927 3 E2021-W29 2005 11 03 G96 Mt. Lemmon Survey
    000000K05V00S K05V00S2005 VS 0.98 1.772 0.01798 22.24 20240331 157.9 149.481 227.941 10.144 0.288 1.376 2 E2024-BH3 2005 11 03 703 CSS
    000000K05V01N K05V01N2005 VN1 0.943 1.85 0.012 25.1 20240331 76.1 137.764 220.384 13.277 0.325 1.396 ( 1d) MPO 97959 2005 11 04 703 CSS
    000000K05V01Y K05V01Y2005 VY1 0.986 2.353 0.00901 26.4 20240331 174.1 18.496 44.938 6.621 0.409 1.669 ( 7d) MPO 97959 2005 11 05 703 CSS
    000000K05V02A K05V02A2005 VA2 0.817 1.598 0.09691 21.14 20240331 114.9 356.662 232.102 5.823 0.323 1.208 4 E2021-VR4 2005 11 03 G96 Mt. Lemmon Survey
    000000K05V05O K05V05O2005 VO5 0.882 3.136 0.03957 19.84 20240331 184.1 242.053 100.963 14.242 0.561 2.009 4 MPO732506 2005 11 09 E12 Siding Spring Survey
    000000K05V07E K05V07E2005 VE7 0.659 4.004 0.11877 18.45 20240331 80.7 14.965 287.088 7.521 0.717 2.331 6 E2023-XU4 2005 11 12 703 CSS
    000000K05V07G K05V07G2005 VG7 0.9 3.1 0.00789 24.5 20240331 188.3 327.545 39.493 2.883 0.55 2.0 ( 10d) MPO 97960 2005 11 13 703 CSS
    000000K05V07R K05V07R2005 VR7 0.772 1.394 0.02974 21.18 20240331 168.1 101.077 254.857 25.251 0.287 1.083 7 E2024-DD1 2005 11 07 568 D. J. Tholen
    000000K05V07T K05V07T2005 VT7 0.96 2.523 0.01722 23.0 20240331 8.6 345.64 33.963 6.797 0.449 1.742 ( 20d) MPO 97961 2005 11 14 704 LINEAR
    000000K05W00A K05W00A2005 WA 0.866 1.377 0.00779 23.9 20240331 215.4 113.305 227.812 8.162 0.228 1.122 ( 14d) MPO 97975 2005 11 16 E12 Siding Spring Survey
    000000K05W00C K05W00C2005 WC 0.599 1.557 0.01397 25.2 20240331 90.3 133.71 31.671 1.746 0.444 1.078 ( 1d) MPO 97975 2005 11 20 704 LINEAR
    000000K05W00X K05W00X2005 WX 0.996 2.2 0.00959 26.9 20240331 31.7 180.514 241.915 4.402 0.377 1.598 ( 4d) MPO 97976 2005 11 21 703 CSS
    000000K05W00Y K05W00Y2005 WY 0.938 2.653 0.00186 27.1 20240331 216.6 223.016 235.62 0.57 0.477 1.795 ( 6d) MPO 97976 2005 11 21 691 Spacewatch
    000000K05W01A K05W01A2005 WA1 0.837 3.181 0.02436 21.72 20240331 144.6 242.111 246.856 10.908 0.583 2.009 4 MPO750185 2005 11 21 703 CSS
    000000K05W01Y K05W01Y2005 WY1 0.969 3.642 0.03534 23.0 20240331 82.0 34.064 50.798 13.729 0.58 2.306 ( 3d) MPO 97976 2005 11 22 703 CSS
    000000K05W03N K05W03N2005 WN3 0.709 4.665 0.01615 29.9 20240331 53.3 345.707 151.303 1.092 0.736 2.687 ( 1d) MPO 97976 2005 11 25 G96 Mt. Lemmon Survey
    000000K05W03Q K05W03Q2005 WQ3 0.651 2.837 0.0127 24.3 20240331 10.8 269.776 62.818 11.079 0.627 1.744 ( 6d) MPO 97976 2005 11 25 G96 Mt. Lemmon Survey
    000000K05W03R K05W03R2005 WR3 0.915 1.678 0.12811 21.34 20240331 211.9 265.748 65.904 34.25 0.294 1.297 ( 15d) E2023-Y82 2005 11 25 G96 Mt. Lemmon Survey
    000000K05W04G K05W04G2005 WG4 0.971 3.872 0.0699 24.9 20240331 324.4 309.377 63.494 10.315 0.599 2.422 ( 8d) MPO 97977 2005 11 25 G96 Mt. Lemmon Survey
    000000K05W55Y K05W55Y2005 WY55 0.7 4.283 0.00287 20.7 20240331 221.9 286.438 247.957 7.274 0.719 2.492 3 MPO166233 2005 11 26 G96 Mt. Lemmon Survey
    000000K05W56K K05W56K2005 WK56 0.984 2.258 0.0317 22.6 20240331 328.4 321.72 76.44 5.349 0.393 1.621 ( 26d) MPO 97989 2005 11 30 703 CSS
    000000K05W57G K05W57G2005 WG57 0.912 2.681 0.00166 23.91 20240331 237.6 212.307 161.655 0.427 0.492 1.797 ( 35d) E2024-G04 2005 11 30 704 LINEAR
    000000K05X00A K05X00A2005 XA 0.847 4.216 0.00203 26.3 20240331 171.6 48.295 67.228 5.359 0.665 2.531 ( 6d) MPO 98017 2005 12 01 G96 Mt. Lemmon Survey
    000000K05X00C K05X00C2005 XC 0.998 3.566 0.00936 22.7 20240331 117.0 189.72 215.658 3.66 0.563 2.282 ( 30d) MPO 98017 2005 12 01 703 CSS
    000000K05X00X K05X00X2005 XX 0.94 3.681 0.00516 26.8 20240331 75.1 226.679 236.408 0.987 0.593 2.31 ( 6d) MPO 98017 2005 12 01 G96 Mt. Lemmon Survey
    000000K05X04K K05X04K2005 XK4 0.535 2.172 0.01942 24.5 20240331 270.5 69.904 250.389 8.625 0.605 1.353 ( 2d) MPO 98018 2005 12 04 G96 Mt. Lemmon Survey
    000000K05X04N K05X04N2005 XN4 0.787 2.969 0.15354 19.89 20240331 11.7 93.523 70.673 58.052 0.581 1.878 4 E2024-H69 2005 12 05 703 CSS
    000000K05X04O K05X04O2005 XO4 0.931 3.602 0.02046 22.2 20240331 127.6 180.103 296.528 2.344 0.589 2.267 ( 23d) MPO 98018 2005 12 05 703 CSS
    000000K05X04W K05X04W2005 XW4 0.3 1.782 0.0692 21.62 20240331 26.1 145.518 73.079 18.388 0.712 1.041 3 E2023-Y46 2005 12 06 704 LINEAR
    000000K05X04X K05X04X2005 XX4 0.96 2.541 0.01715 24.3 20240331 337.1 149.306 251.869 22.293 0.452 1.751 ( 1d) MPO 98018 2005 12 06 703 CSS
    000000K05X04Y K05X04Y2005 XY4 0.424 1.689 0.01197 23.5 20240331 8.2 143.456 163.044 1.911 0.598 1.056 ( 25d) MPO 98018 2005 12 06 703 CSS
    000000K05X08A K05X08A2005 XA8 0.798 2.043 0.00139 25.7 20240331 322.0 111.368 254.033 5.364 0.438 1.42 ( 18d) MPO 98019 2005 12 07 704 LINEAR
    000000K05X27N K05X27N2005 XN27 0.886 3.92 0.00277 24.5 20240331 337.3 170.5 214.57 0.304 0.631 2.403 ( 3d) MPO 98022 2005 12 07 704 LINEAR
    000000K05X66O K05X66O2005 XO66 0.927 2.402 0.00946 24.6 20240331 174.9 188.526 296.827 1.211 0.443 1.664 ( 10d) MPO 98027 2005 12 10 703 CSS
    000000K05X77X K05X77X2005 XX77 0.998 2.053 0.03248 23.9 20240331 269.4 329.982 79.181 5.716 0.346 1.525 ( 20d) MPO 98029 2005 12 10 704 LINEAR
    000000K05Y00D K05Y00D2005 YD 0.95 2.362 0.02204 24.5 20240331 232.1 314.58 90.495 4.794 0.426 1.656 ( 13d) MPO167652 2005 12 21 699 LONEOS
    000000K05Y00K K05Y00K2005 YK 0.735 1.389 0.00866 26.9 20240331 317.9 80.505 269.506 5.629 0.308 1.062 ( 3d) MPO 98031 2005 12 21 691 Spacewatch
    000000K05Y01Y K05Y01Y2005 YY1 0.87 1.458 0.03275 23.1 20240331 256.0 279.244 84.036 8.343 0.252 1.164 ( 14d) MPO 98031 2005 12 22 703 CSS
    000000K05Y03U K05Y03U2005 YU3 0.405 4.699 0.04276 19.8 20240331 184.2 341.5 2.501 3.017 0.841 2.552 3 MPO285674 2005 12 22 703 CSS
    000000K05Y08S K05Y08S2005 YS8 0.799 2.593 0.00729 20.0 20240331 125.7 298.392 56.306 17.375 0.529 1.696 ( 29d) MPO 98032 2005 12 24 703 CSS
    000000K05Y08U K05Y08U2005 YU8 0.922 3.099 0.02699 23.7 20240331 126.6 238.998 278.067 3.989 0.542 2.01 ( 17d) MPO 98033 2005 12 24 691 Spacewatch
    000000K05Y37A K05Y37A2005 YA37 0.988 1.571 0.03549 22.32 20240331 152.6 88.807 93.05 2.24 0.228 1.28 4 E2022-N10 2005 12 26 G96 Mt. Lemmon Survey
    000000K05YC8L K05YC8L2005 YL128 0.749 1.961 0.12673 20.8 20240331 127.8 309.29 280.816 18.446 0.447 1.355 4 MPO598934 2005 12 29 691 Spacewatch
    000000K05YC8N K05YC8N2005 YN128 0.926 2.365 0.01885 24.1 20240331 251.8 118.023 284.707 2.553 0.437 1.646 ( 7d) MPO 98055 2005 12 30 G96 Mt. Lemmon Survey
    000000K06A00N K06A00N2006 AN 0.853 1.336 0.00566 24.36 20240331 273.6 273.445 277.531 7.406 0.22 1.094 4 E2022-A10 2006 01 03 704 LINEAR
    000000K06A03C K06A03C2006 AC3 0.999 3.668 0.03148 24.2 20240331 44.2 323.582 108.286 3.074 0.572 2.334 ( 19d) MPO 98073 2006 01 06 691 Spacewatch
    000000K06A03Q K06A03Q2006 AQ3 0.904 4.013 0.22847 21.5 20240331 248.1 270.412 289.313 22.763 0.632 2.458 2 MPO109487 2006 01 06 G96 Mt. Lemmon Survey
    000000K06A03R K06A03R2006 AR3 0.898 4.041 0.00222 20.6 20240331 268.1 40.821 12.305 4.707 0.636 2.469 2 MPO173530 2006 01 06 704 LINEAR
    000000K06A03S K06A03S2006 AS3 0.896 1.779 0.04371 24.75 20240331 248.1 245.551 289.117 13.381 0.33 1.338 ( 4d) MPO750185 2006 01 07 691 Spacewatch
    000000K06A03U K06A03U2006 AU3 0.995 3.546 0.01217 26.3 20240331 121.1 0.235 114.54 1.419 0.562 2.271 ( 3d) MPO 98073 2006 01 07 G96 Mt. Lemmon Survey
    000000K06A04K K06A04K2006 AK4 0.98 4.32 0.09926 23.2 20240331 92.3 115.152 298.254 8.525 0.63 2.65 ( 18d) MPO 98073 2006 01 07 691 Spacewatch
    000000K06A08L K06A08L2006 AL8 0.374 6.293 0.05002 18.41 20240331 4.7 65.926 311.93 35.864 0.888 3.334 3 E2024-GB3 2006 01 08 703 CSS
    000000K06A08M K06A08M2006 AM8 0.383 3.357 0.15089 19.59 20240331 14.4 188.546 57.088 10.173 0.795 1.87 5 E2024-A55 2006 01 09 703 CSS
    000000K06B00A K06B00A2006 BA 0.876 1.365 0.00376 27.6 20240331 74.3 250.845 298.449 3.547 0.218 1.12 ( 3d) MPO 98089 2006 01 18 703 CSS
    000000K06B00C K06B00C2006 BC 0.242 2.57 0.14762 19.25 20240331 300.9 281.584 320.678 18.108 0.828 1.406 4 MPO740057 2006 01 19 704 LINEAR
    000000K06B00F K06B00F2006 BF 0.897 2.046 0.0124 23.6 20240331 94.3 322.355 101.752 5.005 0.391 1.471 ( 11d) MPO 98089 2006 01 20 704 LINEAR
    000000K06B06P K06B06P2006 BP6 0.964 3.822 0.23892 20.7 20240331 307.9 90.138 105.688 18.729 0.597 2.393 (141d) MPO102271 2006 01 22 703 CSS
    000000K06B07O K06B07O2006 BO7 0.857 2.015 0.00114 29.3 20240331 180.9 248.569 294.246 0.338 0.403 1.436 ( 2d) MPO 98090 2006 01 22 G96 Mt. Lemmon Survey
    000000K06B07P K06B07P2006 BP7 0.966 3.69 0.06029 23.3 20240331 49.5 111.793 325.685 4.853 0.585 2.328 ( 33d) MPO 98090 2006 01 22 704 LINEAR
    000000K06B07W K06B07W2006 BW7 0.873 2.096 0.00438 26.5 20240331 53.2 117.597 305.143 1.382 0.412 1.485 ( 5d) MPO 98090 2006 01 22 G96 Mt. Lemmon Survey
    000000K06B07X K06B07X2006 BX7 0.818 1.46 0.00799 24.6 20240331 44.7 77.626 313.238 4.889 0.282 1.139 ( 16d) MPO 98090 2006 01 22 703 CSS
    000000K06B08B K06B08B2006 BB8 0.916 2.36 0.01474 24.5 20240331 261.5 313.231 121.442 7.342 0.441 1.638 ( 14d) MPO 98091 2006 01 23 691 Spacewatch
    000000K06B08C K06B08C2006 BC8 0.697 1.758 0.00148 25.1 20240331 175.0 91.259 303.273 6.901 0.432 1.227 ( 15d) MPO 98091 2006 01 23 704 LINEAR
    000000K06B08L K06B08L2006 BL8 0.787 1.46 0.00319 24.7 20240331 38.6 92.399 121.142 12.256 0.3 1.124 ( 7d) MPO 98091 2006 01 24 703 CSS
    000000K06B08M K06B08M2006 BM8 0.724 2.361 0.00271 25.3 20240331 204.8 282.079 121.622 5.199 0.53 1.543 ( 13d) MPO 98091 2006 01 24 703 CSS
    000000K06B08Y K06B08Y2006 BY8 0.827 4.165 0.00304 26.6 20240331 236.6 123.389 299.84 2.702 0.669 2.496 ( 8d) MPO419359 2006 01 23 704 LINEAR
    000000K06B09B K06B09B2006 BB9 0.9 4.481 0.01637 25.8 20240331 52.8 133.261 301.423 6.742 0.665 2.69 ( 8d) MPO 98091 2006 01 24 704 LINEAR
    000000K06B26N K06B26N2006 BN26 0.976 3.017 0.02591 23.48 20240331 170.4 266.875 178.266 1.582 0.511 1.996 ( 13d) MPO740058 2006 01 25 699 LONEOS
    000000K06B39V K06B39V2006 BV39 0.835 1.455 0.00036 29.1 20240331 254.5 74.731 127.476 0.742 0.271 1.145 ( 2d) MPO 98097 2006 01 26 291 Spacewatch
    000000K06B39W K06B39W2006 BW39 0.91 3.037 0.0147 23.7 20240331 183.7 227.766 307.68 5.766 0.539 1.974 ( 5d) MPO 98097 2006 01 26 703 CSS
    000000K06B39X K06B39X2006 BX39 0.689 3.111 0.01116 21.4 20240331 314.4 79.845 139.845 14.319 0.637 1.9 ( 15d) MPO202422 2006 01 26 699 LONEOS
    000000K06B55D K06B55D2006 BD55 0.899 1.897 0.07316 24.5 20240331 38.0 286.584 122.047 12.878 0.357 1.398 ( 7d) MPO 98100 2006 01 25 G96 Mt. Lemmon Survey
    000000K06B55E K06B55E2006 BE55 0.688 1.703 0.02373 21.98 20240331 254.5 126.423 125.247 2.399 0.425 1.195 6 MPO740058 2006 01 26 691 Spacewatch
    000000K06B55J K06B55J2006 BJ55 0.896 1.161 0.02725 24.2 20240331 62.7 288.805 307.431 5.919 0.129 1.028 ( 14d) MPO 98101 2006 01 26 691 Spacewatch
    000000K06B55M K06B55M2006 BM55 0.692 4.501 0.00556 23.0 20240331 120.1 262.669 309.361 1.913 0.734 2.596 ( 8d) MPO 98101 2006 01 27 G96 Mt. Lemmon Survey
    000000K06B56F K06B56F2006 BF56 0.469 4.211 0.00073 29.6 20240331 7.1 102.592 125.29 0.962 0.8 2.34 ( 1d) MPO 98101 2006 01 28 G96 Mt. Lemmon Survey
    000000K06B99F K06B99F2006 BF99 0.785 1.73 0.02733 23.9 20240331 10.4 85.117 307.107 41.723 0.376 1.257 ( 2d) MPO 98111 2006 01 28 G96 Mt. Lemmon Survey
    000000K06B99H K06B99H2006 BH99 0.658 2.646 0.00129 27.2 20240331 178.1 84.395 130.675 4.029 0.602 1.652 ( 1d) MPO 98112 2006 01 30 703 CSS
    000000K06BE7P K06BE7P2006 BP147 0.978 1.597 0.0473 26.5 20240331 194.0 123.244 310.679 5.596 0.24 1.287 ( 5d) MPO 98121 2006 01 28 G96 Mt. Lemmon Survey
    000000K06BE7Z K06BE7Z2006 BZ147 0.922 1.124 0.00177 25.4 20240331 101.7 94.826 139.83 1.41 0.099 1.023 3 MPO124479 2006 01 31 G96 Mt. Lemmon Survey
    000000K06C00F K06C00F2006 CF 0.735 3.853 0.02468 20.3 20240331 118.1 268.884 111.824 4.663 0.679 2.294 3 MPO264951 2006 02 01 691 Spacewatch
    000000K06C00K K06C00K2006 CK 0.851 1.316 0.01078 25.8 20240331 341.8 264.628 310.824 5.176 0.215 1.083 ( 1d) MPO 98139 2006 02 02 G96 Mt. Lemmon Survey
    000000K06C00L K06C00L2006 CL 0.977 2.352 0.0201 25.4 20240331 178.0 151.925 312.855 8.15 0.413 1.664 ( 5d) MPO 98139 2006 02 02 G96 Mt. Lemmon Survey
    000000K06C00T K06C00T2006 CT 0.844 1.35 0.00165 22.28 20240331 38.9 82.806 285.443 2.742 0.231 1.097 7 E2023-XA2 2006 02 02 691 Spacewatch
    000000K06C00U K06C00U2006 CU 0.825 2.196 0.0088 22.0 20240331 321.8 253.248 148.712 3.799 0.454 1.51 2 MPO466229 2006 02 03 G96 Mt. Lemmon Survey
    000000K06C09T K06C09T2006 CT9 0.388 2.001 0.24737 20.43 20240331 247.7 149.002 134.52 34.801 0.675 1.194 4 MPO781107 2006 02 04 703 CSS
    000000K06C09W K06C09W2006 CW9 0.952 1.655 0.01873 24.4 20240331 93.1 318.56 135.269 20.879 0.27 1.303 ( 19d) MPO 98141 2006 02 05 704 LINEAR
    000000K06C10F K06C10F2006 CF10 0.959 2.089 0.05728 25.4 20240331 253.3 311.911 135.709 18.997 0.371 1.524 ( 3d) MPO 98141 2006 02 05 G96 Mt. Lemmon Survey
    000000K06C10L K06C10L2006 CL10 0.946 2.467 0.1004 21.3 20240331 31.4 90.314 101.364 7.671 0.445 1.707 3 MPO323728 2006 02 06 704 LINEAR
    000000K06C10M K06C10M2006 CM10 0.634 3.63 0.01417 21.7 20240331 275.2 92.505 142.812 18.315 0.703 2.132 ( 19d) MPO 98141 2006 02 07 703 CSS
    000000K06C10T K06C10T2006 CT10 0.975 4.802 0.03641 21.2 20240331 249.6 30.515 111.2 12.891 0.663 2.889 2 MPO199701 2006 02 07 704 LINEAR
    000000K06C10U K06C10U2006 CU10 0.817 2.137 0.09085 19.90 20240331 313.3 130.565 146.273 49.316 0.447 1.477 4 E2024-DC9 2006 02 07 291 Spacewatch
    000000K06D00L K06D00L2006 DL 0.655 4.335 0.01039 22.5 20240331 231.1 94.895 323.129 4.833 0.737 2.495 ( 13d) MPO 98145 2006 02 20 703 CSS
    000000K06D00N K06D00N2006 DN 0.999 1.76 0.0042 24.5 20240331 35.6 101.068 96.798 0.266 0.276 1.379 ( 34d) MPO102286 2006 02 20 703 CSS
    000000K06D00V K06D00V2006 DV 0.754 3.158 0.12765 19.64 20240331 196.2 93.966 164.206 54.747 0.614 1.956 3 MPO740064 2006 02 20 703 CSS
    000000K06D00X K06D00X2006 DX 0.952 1.336 0.04746 23.9 20240331 7.5 83.341 331.121 6.285 0.168 1.144 2 MPO598946 2006 02 20 G96 Mt. Lemmon Survey
    000000K06D00Y K06D00Y2006 DY 0.987 3.649 0.23111 18.39 20240331 80.4 258.301 162.064 21.963 0.574 2.318 3 MPO740064 2006 02 20 G96 Mt. Lemmon Survey
    000000K06D01A K06D01A2006 DA1 0.809 2.328 0.0243 24.8 20240331 51.7 248.699 333.784 26.612 0.484 1.569 ( 1d) MPO 98145 2006 02 21 703 CSS
    000000K06D01D K06D01D2006 DD1 0.76 3.819 0.00125 26.5 20240331 63.8 64.469 152.934 8.362 0.668 2.29 ( 1d) MPO 98145 2006 02 22 703 CSS
    000000K06D11P K06D11P2006 DP11 0.561 3.157 0.12134 19.53 20240331 75.4 31.179 21.369 8.526 0.698 1.859 4 E2024-A26 2006 02 22 704 LINEAR
    000000K06D14Q K06D14Q2006 DQ14 0.973 1.082 0.01443 27.1 20240331 194.7 292.579 155.296 6.298 0.053 1.028 ( 6d) MPO 98149 2006 02 23 699 LONEOS
    000000K06D14R K06D14R2006 DR14 0.846 4.107 0.01353 26.1 20240331 227.6 137.085 333.065 5.918 0.659 2.476 ( 2d) MPO 98149 2006 02 24 G96 Mt. Lemmon Survey
    000000K06D14T K06D14T2006 DT14 0.826 2.996 0.12647 19.75 20240331 276.2 178.458 78.194 8.662 0.568 1.911 6 MPO686221 2006 02 24 703 CSS
    000000K06D62O K06D62O2006 DO62 0.935 2.768 0.00165 28.53 20240331 54.1 217.772 333.316 1.38 0.495 1.851 ( 0d) MPO713750 2006 02 24 G96 Mt. Lemmon Survey
    000000K06D62P K06D62P2006 DP62 0.499 2.526 0.01226 22.25 20240331 302.0 98.235 299.431 5.428 0.67 1.513 3 E2022-MB1 2006 02 24 G96 Mt. Lemmon Survey
    000000K06D62Q K06D62Q2006 DQ62 0.628 3.594 0.09863 19.58 20240331 305.6 6.74 218.101 5.923 0.702 2.111 4 MPO781108 2006 02 25 703 CSS
    000000K06D62S K06D62S2006 DS62 0.98 3.553 0.0122 26.7 20240331 99.1 38.824 153.294 1.889 0.568 2.266 ( 5d) MPO 98159 2006 02 25 G96 Mt. Lemmon Survey
    000000K06D62U K06D62U2006 DU62 0.429 2.851 0.00555 17.99 20240331 267.9 71.89 322.079 16.448 0.738 1.64 7 E2023-R01 2006 02 25 703 CSS
    000000K06D63O K06D63O2006 DO63 0.864 2.059 0.01773 25.8 20240331 56.0 66.63 161.106 6.271 0.409 1.461 ( 5d) MPO 98159 2006 02 27 G96 Mt. Lemmon Survey
    000000K06D63U K06D63U2006 DU63 0.767 4.85 0.02675 22.7 20240331 291.6 69.164 152.927 14.464 0.727 2.809 ( 5d) MPO 98159 2006 02 28 704 LINEAR
    000000K06E00B K06E00B2006 EB 0.503 2.933 0.00375 22.5 20240331 37.6 121.189 284.889 0.674 0.707 1.718 ( 5d) MPO 98176 2006 03 03 G96 Mt. Lemmon Survey
    000000K06E00C K06E00C2006 EC 0.89 1.384 0.00129 26.62 20240331 274.0 245.896 347.414 7.589 0.217 1.137 ( 5d) MPO740067 2006 03 03 703 CSS
    000000K06E00W K06E00W2006 EW 0.988 2.32 0.02957 23.53 20240331 194.1 328.04 158.784 6.756 0.403 1.654 2 MPO740067 2006 03 04 G96 Mt. Lemmon Survey
    000000K06E01C K06E01C2006 EC1 0.582 4.193 0.17949 18.58 20240331 344.2 16.559 46.354 10.865 0.756 2.387 4 MPO750185 2006 03 04 703 CSS
    000000K06E01F K06E01F2006 EF1 0.83 1.7 0.0287 22.92 20240331 187.6 296.533 328.16 13.715 0.344 1.265 2 MPO781110 2006 03 05 G96 Mt. Lemmon Survey
    000000K06E01H K06E01H2006 EH1 0.871 3.214 0.00235 26.5 20240331 54.7 49.794 163.993 5.388 0.574 2.042 ( 1d) MPO 98177 2006 03 05 703 CSS
    000000K06E53K K06E53K2006 EK53 0.495 1.555 0.01347 23.03 20240331 208.0 41.421 5.006 2.213 0.517 1.025 ( 14d) E2024-H52 2006 03 09 703 CSS
    000000K06F00J K06F00J2006 FJ 0.84 1.518 0.08482 20.41 20240331 132.8 229.2 187.649 27.713 0.288 1.179 5 E2024-K11 2006 03 23 691 Spacewatch
    000000K06F00U K06F00U2006 FU 0.893 2.132 0.00958 25.6 20240331 225.8 233.418 5.264 13.767 0.409 1.512 ( 4d) MPO102308 2006 03 24 703 CSS
    000000K06F00W K06F00W2006 FW 0.864 1.894 0.08837 22.8 20240331 96.6 266.763 177.758 13.788 0.374 1.379 ( 5d) MPO102308 2006 03 24 G96 Mt. Lemmon Survey
    000000K06G00A K06G00A2006 GA 0.937 3.971 0.08179 21.5 20240331 254.5 304.908 188.134 18.049 0.618 2.454 ( 22d) MPO102314 2006 04 02 699 LONEOS
    000000K06G00C K06G00C2006 GC 0.922 3.473 0.03748 24.0 20240331 176.0 62.604 186.648 5.624 0.58 2.197 2 MPO466231 2006 04 02 691 Spacewatch
    000000K06G01B K06G01B2006 GB1 0.807 1.461 0.00987 23.6 20240331 254.5 220.62 76.464 0.833 0.288 1.134 ( 24d) MPO102314 2006 04 02 691 Spacewatch
    000000K06G01C K06G01C2006 GC1 0.312 3.101 0.00931 20.50 20240331 53.7 232.903 196.104 5.977 0.817 1.707 2 E2024-DD1 2006 04 02 691 Spacewatch
    000000K06G02U K06G02U2006 GU2 0.803 1.356 0.00134 27.8 20240331 72.6 266.281 197.002 3.378 0.256 1.08 ( 2d) MPO102314 2006 04 07 G96 Mt. Lemmon Survey
    000000K06H02C K06H02C2006 HC2 0.877 2.543 0.01582 21.77 20240331 348.2 66.652 198.181 3.749 0.487 1.71 3 E2024-A48 2006 04 19 703 CSS
    000000K06H02D K06H02D2006 HD2 0.81 3.252 0.02821 20.9 20240331 99.8 95.847 30.202 4.018 0.601 2.031 3 MPO208225 2006 04 19 691 Spacewatch
    000000K06H02E K06H02E2006 HE2 0.898 1.231 0.00455 26.5 20240331 56.4 90.81 200.281 1.181 0.157 1.065 ( 3d) MPO102318 2006 04 19 703 CSS
    000000K06H05Z K06H05Z2006 HZ5 0.954 1.449 0.01053 24.5 20240331 265.7 307.463 202.785 4.283 0.206 1.202 ( 40d) MPO111168 2006 04 20 691 Spacewatch
    000000K06H06F K06H06F2006 HF6 0.633 2.182 0.00193 24.4 20240331 301.7 86.681 29.315 6.59 0.55 1.408 ( 16d) MPO102319 2006 04 21 703 CSS
    000000K06H18J K06H18J2006 HJ18 0.74 1.428 0.14363 21.87 20240331 32.3 28.915 75.166 10.251 0.317 1.084 4 E2024-K27 2006 04 23 703 CSS
    000000K06H30S K06H30S2006 HS30 0.988 3.719 0.00235 28.0 20240331 338.3 20.933 208.331 2.338 0.58 2.353 ( 2d) MPO102323 2006 04 24 G96 Mt. Lemmon Survey
    000000K06H30T K06H30T2006 HT30 0.98 4.149 0.00942 20.2 20240331 105.3 224.03 73.577 1.639 0.618 2.565 2 MPO311280 2006 04 25 691 Spacewatch
    000000K06H30V K06H30V2006 HV30 0.999 2.145 0.14128 22.7 20240331 10.9 61.828 206.015 34.534 0.365 1.572 ( 4d) MPO102323 2006 04 25 G96 Mt. Lemmon Survey
    000000K06H50U K06H50U2006 HU50 0.97 1.606 0.00272 24.7 20240331 69.6 214.396 46.886 5.904 0.247 1.288 ( 7d) MPO102326 2006 04 26 703 CSS
    000000K06H50W K06H50W2006 HW50 1.0 1.468 0.02004 24.4 20240331 48.0 323.645 215.869 5.566 0.19 1.234 2 MPO413597 2006 04 23 704 LINEAR
    000000K06H50Y K06H50Y2006 HY50 0.951 4.202 0.23952 19.54 20240331 135.9 78.698 43.632 25.628 0.631 2.576 (199d) MPO750185 2006 04 26 703 CSS
    000000K06H56H K06H56H2006 HH56 0.922 1.806 0.03067 24.0 20240331 58.1 238.516 40.545 23.836 0.324 1.364 ( 1d) MPO102326 2006 04 29 703 CSS
    000000K06H57X K06H57X2006 HX57 0.913 2.689 0.00169 25.33 20240331 120.0 161.894 109.621 0.201 0.493 1.801 2 MPO750185 2006 04 30 699 LONEOS
    000000K06J00E K06J00E2006 JE 0.434 3.095 0.01074 23.9 20240331 211.2 286.412 43.024 14.934 0.754 1.765 ( 1d) MPO102338 2006 05 01 704 LINEAR
    000000K06J00O K06J00O2006 JO 0.792 3.964 0.01435 25.1 20240331 307.3 248.414 41.0 8.197 0.667 2.378 ( 1d) MPO102338 2006 05 02 G96 Mt. Lemmon Survey
    000000K06J26V K06J26V2006 JV26 0.413 3.619 0.00709 25.2 20240331 74.9 115.847 222.085 3.659 0.795 2.016 ( 1d) MPO102343 2006 05 08 703 CSS
    000000K06J26Y K06J26Y2006 JY26 0.926 1.094 0.00012 28.4 20240331 146.3 273.679 43.475 1.438 0.083 1.01 ( 4d) MPO102343 2006 05 06 703 CSS
    000000K06K00A K06K00A2006 KA 0.716 2.55 0.06861 19.31 20240331 241.0 244.707 235.965 31.005 0.562 1.633 3 MPO750185 2006 05 17 E12 Siding Spring Survey
    000000K06K00C K06K00C2006 KC 0.643 1.799 0.03127 22.2 20240331 138.8 254.559 236.96 14.472 0.473 1.221 ( 34d) MPO102350 2006 05 19 703 CSS
    000000K06K01B K06K01B2006 KB1 0.783 4.15 0.00492 24.4 20240331 236.2 10.371 161.093 0.381 0.682 2.467 ( 6d) MPO102350 2006 05 20 703 CSS
    000000K06K21K K06K21K2006 KK21 0.354 5.1 0.02656 20.56 20240331 4.8 285.819 188.925 12.449 0.87 2.727 3 E2024-K27 2006 05 23 703 CSS
    000000K06K21P K06K21P2006 KP21 0.985 2.969 0.05081 23.6 20240331 167.1 300.355 236.585 4.929 0.502 1.977 ( 3d) MPO102355 2006 05 23 G96 Mt. Lemmon Survey
    000000K06K38S K06K38S2006 KS38 0.779 2.084 0.02154 23.9 20240331 182.2 101.277 63.341 28.752 0.456 1.432 ( 3d) MPO102359 2006 05 23 704 LINEAR
    000000K06K40C K06K40C2006 KC40 0.785 2.55 0.02712 23.2 20240331 68.0 260.475 77.892 8.813 0.529 1.668 ( 21d) MPO111171 2006 05 25 G96 Mt. Lemmon Survey
    000000K06K40D K06K40D2006 KD40 0.984 3.051 0.03693 18.59 20240331 64.8 217.962 86.68 21.102 0.512 2.018 5 E2023-P27 2006 05 26 704 LINEAR
    000000K06K67Y K06K67Y2006 KY67 0.963 3.181 0.02198 23.0 20240331 338.6 174.276 117.105 3.036 0.535 2.072 ( 77d) MPO111171 2006 05 26 704 LINEAR
    000000K06K89K K06K89K2006 KK89 0.848 1.205 0.09918 22.5 20240331 288.8 319.135 62.328 16.233 0.174 1.026 ( 2d) MPO102370 2006 05 28 G96 Mt. Lemmon Survey
    000000K06K89N K06K89N2006 KN89 0.839 2.739 0.02411 21.4 20240331 138.8 108.763 217.304 5.82 0.531 1.789 ( 18d) MPO102370 2006 05 29 704 LINEAR
    000000K06L00A K06L00A2006 LA 0.258 3.135 0.06275 18.60 20240331 46.9 71.091 25.022 10.864 0.848 1.697 3 E2024-DD1 2006 06 01 703 CSS
    000000K06L00C K06L00C2006 LC 0.952 2.016 0.0309 23.1 20240331 286.2 52.388 249.569 11.757 0.358 1.484 ( 15d) MPO102375 2006 06 01 G96 Mt. Lemmon Survey
    000000K06L00F K06L00F2006 LF 0.746 3.544 0.12055 18.73 20240331 264.6 349.981 199.229 7.973 0.652 2.145 3 E2023-Q57 2006 06 01 704 LINEAR
    000000K06L00H K06L00H2006 LH 0.743 1.43 0.00838 24.8 20240331 205.6 265.242 95.085 7.884 0.316 1.087 ( 9d) MPO102375 2006 06 01 G96 Mt. Lemmon Survey
    000000K06L00M K06L00M2006 LM 0.972 2.453 0.00858 25.0 20240331 329.3 215.79 74.229 6.666 0.432 1.712 ( 4d) MPO102375 2006 06 03 703 CSS
    000000K06L01D K06L01D2006 LD1 0.692 3.964 0.01698 20.9 20240331 347.1 276.261 65.424 5.967 0.703 2.328 ( 12d) MPO102375 2006 06 03 428 J. Broughton
    000000K06M01V K06M01V2006 MV1 0.999 1.635 0.00733 26.8 20240331 265.9 31.761 264.523 4.28 0.242 1.317 ( 4d) MPO102376 2006 06 19 704 LINEAR
    000000K06M13Y K06M13Y2006 MY13 0.493 2.033 0.19487 20.30 20240331 232.7 228.718 288.359 45.046 0.61 1.263 ( 24d) E2023-R13 2006 06 27 E12 Siding Spring Survey
    000000K06M14B K06M14B2006 MB14 0.916 1.152 0.00442 25.4 20240331 38.2 269.558 276.542 19.544 0.114 1.034 ( 26d) MPO111173 2006 06 30 704 LINEAR
    000000K06O01N K06O01N2006 ON1 0.998 4.11 0.03346 21.3 20240331 112.6 51.676 287.694 3.501 0.609 2.554 2 MPO185736 2006 07 19 644 NEAT
    000000K06O03K K06O03K2006 OK3 0.807 2.551 0.00163 27.1 20240331 26.0 67.021 300.043 12.182 0.519 1.679 ( 1d) MPO104380 2006 07 22 E12 Siding Spring Survey
    000000K06O04Z K06O04Z2006 OZ4 0.58 1.465 0.12226 21.7 20240331 322.6 141.566 278.485 17.488 0.433 1.022 ( 2d) MPO104380 2006 07 21 G96 Mt. Lemmon Survey
    000000K06O07E K06O07E2006 OE7 0.341 2.73 0.09035 19.99 20240331 77.3 150.884 291.472 10.387 0.778 1.535 2 E2024-DD1 2006 07 24 704 LINEAR
    000000K06O09S K06O09S2006 OS9 0.257 5.225 0.08914 18.44 20240331 331.7 39.518 123.366 19.24 0.906 2.741 5 MPO740075 2006 07 24 704 LINEAR
    000000K06O09T K06O09T2006 OT9 0.92 1.329 0.05978 19.94 20240331 97.3 194.094 310.211 14.559 0.182 1.124 3 MPO740075 2006 07 25 644 NEAT
    000000K06O15G K06O15G2006 OG15 0.938 4.144 0.19326 19.82 20240331 110.0 265.174 118.21 17.132 0.631 2.541 3 MPO740075 2006 07 31 E12 Siding Spring Survey
    000000K06P01A K06P01A2006 PA1 0.914 3.153 0.02985 19.82 20240331 356.4 85.889 322.186 2.431 0.551 2.034 4 MPO750185 2006 08 13 644 NEAT
    000000K06P01F K06P01F2006 PF1 0.273 4.11 0.13 19.57 20240331 140.7 335.2 125.287 14.524 0.875 2.191 3 MPO750185 2006 08 15 E12 Siding Spring Survey
    000000K06Q00E K06Q00E2006 QE 0.566 1.713 0.13933 19.66 20240331 107.2 129.421 331.212 27.234 0.503 1.139 5 E2024-JQ5 2006 08 18 699 LONEOS
    000000K06Q31B K06Q31B2006 QB31 0.457 1.897 0.09925 21.05 20240331 329.2 228.553 340.956 24.7 0.612 1.177 ( 33d) E2023-QF8 2006 08 23 E12 Siding Spring Survey
    000000K06Q40K K06Q40K2006 QK40 0.912 3.331 0.00568 24.0 20240331 263.0 143.69 133.537 2.63 0.57 2.122 ( 25d) MPO111189 2006 08 25 E12 Siding Spring Survey
    000000K06Q57Z K06Q57Z2006 QZ57 0.567 4.415 0.05876 22.7 20240331 175.6 339.529 256.552 3.612 0.772 2.491 ( 6d) MPO111192 2006 08 27 699 LONEOS
    000000K06Q65J K06Q65J2006 QJ65 0.822 4.459 0.04538 22.0 20240331 14.7 267.024 152.581 5.098 0.689 2.641 ( 22d) MPO543088 2006 08 27 291 LPL/Spacewatch II
    000000K06Q89E K06Q89E2006 QE89 0.85 3.062 0.09458 20.9 20240331 139.5 75.972 319.562 20.971 0.566 1.956 ( 25d) MPO111195 2006 08 16 644 NEAT
    000000K06Q89V K06Q89V2006 QV89 0.925 1.461 0.00012 25.5 20240331 139.8 236.521 165.882 1.069 0.225 1.193 2 MPO477567 2006 08 29 703 CSS
    000000K06QB1M K06QB1M2006 QM111 0.692 4.484 0.00088 27.6 20240331 66.7 257.095 155.362 1.45 0.733 2.588 ( 0d) MPO104415 2006 08 31 E12 Siding Spring Survey
    000000K06R00Z K06R00Z2006 RZ 0.883 4.05 0.01017 20.3 20240331 179.3 221.108 197.361 9.013 0.642 2.466 2 MPO332380 2006 09 04 240 Herrenberg Sternwarte
    000000K06R01K K06R01K2006 RK1 0.94 2.951 0.02546 21.8 20240331 184.7 131.892 153.708 9.56 0.517 1.946 ( 18d) MPO111205 2006 09 12 E12 Siding Spring Survey
    000000K06R02H K06R02H2006 RH2 0.998 1.174 0.01289 27.2 20240331 138.5 223.208 172.176 11.787 0.081 1.086 ( 1d) MPO111205 2006 09 14 703 CSS
    000000K06R07H K06R07H2006 RH7 0.535 3.873 0.06288 20.79 20240331 108.4 114.459 357.87 10.756 0.757 2.204 4 MPO750185 2006 09 15 691 Spacewatch
    000000K06R07J K06R07J2006 RJ7 0.769 2.841 0.00161 23.7 20240331 64.8 251.684 176.571 1.862 0.574 1.805 ( 4d) MPO111206 2006 09 15 703 CSS
    000000K06S00B K06S00B2006 SB 0.923 1.38 0.01062 25.8 20240331 24.2 243.474 175.101 16.153 0.198 1.152 ( 3d) MPO111228 2006 09 16 703 CSS
    000000K06S00C K06S00C2006 SC 0.723 1.503 0.00021 25.1 20240331 34.6 265.242 350.773 10.427 0.35 1.113 ( 27d) MPO545676 2006 09 16 703 CSS
    000000K06S05Y K06S05Y2006 SY5 0.884 1.202 0.1047 22.00 20240331 15.3 175.502 335.849 7.565 0.152 1.043 4 E2024-H99 2006 09 16 703 CSS
    000000K06S07F K06S07F2006 SF7 0.823 1.269 0.0419 22.41 20240331 54.4 283.814 180.437 24.518 0.213 1.046 2 E2024-F02 2006 09 17 703 CSS
    000000K06S07G K06S07G2006 SG7 0.457 1.629 0.01868 22.84 20240331 88.3 133.582 2.058 4.759 0.562 1.043 3 MPO781129 2006 09 18 691 Spacewatch
    000000K06S77O K06S77O2006 SO77 0.976 2.658 0.00234 26.5 20240331 62.5 339.91 354.547 2.144 0.463 1.817 ( 1d) MPO111245 2006 09 25 703 CSS
    000000K06S78O K06S78O2006 SO78 0.826 2.933 0.16422 19.07 20240331 294.7 352.642 4.489 17.347 0.56 1.88 3 E2024-B03 2006 09 24 703 CSS
    000000K06S78R K06S78R2006 SR78 0.95 3.373 0.23033 20.2 20240331 214.1 268.3 13.311 20.055 0.56 2.162 ( 32d) MPO111245 2006 09 25 691 Spacewatch
    000000K06SD1P K06SD1P2006 SP131 0.775 1.471 0.02973 25.3 20240331 188.6 100.961 3.209 20.126 0.31 1.123 ( 7d) MPO111257 2006 09 26 G96 Mt. Lemmon Survey
    000000K06SD1R K06SD1R2006 SR131 0.898 1.814 0.00083 28.0 20240331 72.4 121.522 184.727 0.635 0.338 1.356 ( 7d) MPO111257 2006 09 26 G96 Mt. Lemmon Survey
    000000K06SD4Q K06SD4Q2006 SQ134 0.929 1.557 0.03995 24.7 20240331 187.5 247.186 186.718 10.168 0.253 1.243 ( 1d) MPO111257 2006 09 27 G96 Mt. Lemmon Survey
    000000K06SD4S K06SD4S2006 SS134 0.654 1.689 0.02994 21.48 20240331 340.4 256.102 9.011 19.536 0.442 1.171 4 E2024-C82 2006 09 28 703 CSS
    000000K06SJ8N K06SJ8N2006 SN198 0.614 1.902 0.00507 26.1 20240331 188.1 71.424 195.657 1.613 0.512 1.258 ( 3d) MPO111270 2006 09 29 703 CSS
    000000K06SJ8O K06SJ8O2006 SO198 0.265 3.576 0.0031 24.19 20240331 192.7 127.064 8.879 10.062 0.862 1.92 ( 3d) MPO713763 2006 09 29 699 LONEOS
    000000K06SL7V K06SL7V2006 SV217 0.857 1.758 0.00455 24.5 20240331 299.6 97.391 179.02 0.878 0.344 1.308 ( 13d) MPO111274 2006 09 30 291 Spacewatch
    000000K06T00D K06T00D2006 TD 0.965 2.222 0.0178 22.4 20240331 271.5 159.536 166.432 8.184 0.394 1.594 4 E2020-SO6 2006 10 01 E12 Siding Spring Survey
    000000K06T07R K06T07R2006 TR7 0.826 1.828 0.00752 25.1 20240331 189.0 120.31 182.795 2.868 0.378 1.327 ( 19d) MPO202433 2006 10 10 644 NEAT
    000000K06T08A K06T08A2006 TA8 0.927 5.23 0.01809 20.9 20240331 84.5 218.208 207.839 21.705 0.699 3.079 ( 10d) MPO112938 2006 10 12 704 LINEAR
    000000K06T08C K06T08C2006 TC8 0.515 3.791 0.12358 19.9 20240331 210.4 67.491 204.178 31.498 0.761 2.153 ( 30d) MPO111294 2006 10 12 644 NEAT
    000000K06U00A K06U00A2006 UA 0.786 2.273 0.07176 20.10 20240331 118.1 270.858 23.156 14.326 0.486 1.529 5 E2023-XF2 2006 10 16 703 CSS
    000000K06U00O K06U00O2006 UO 0.935 4.705 0.02972 21.2 20240331 230.2 78.146 25.617 2.292 0.668 2.82 2 E2020-TB6 2006 10 17 691 Spacewatch
    000000K06U17A K06U17A2006 UA17 0.979 1.776 0.10189 23.8 20240331 319.5 116.914 207.735 22.053 0.289 1.378 ( 4d) MPO111325 2006 10 19 G96 Mt. Lemmon Survey
    000000K06U17E K06U17E2006 UE17 0.785 1.567 0.05621 21.9 20240331 174.0 115.359 27.665 12.129 0.332 1.176 2 MPO598982 2006 10 19 691 Spacewatch
    000000K06U17F K06U17F2006 UF17 0.467 4.487 0.02581 21.6 20240331 183.0 235.782 47.599 3.724 0.811 2.477 2 MPO456558 2006 10 19 703 CSS
    000000K06U17U K06U17U2006 UU17 0.964 3.678 0.00364 26.6 20240331 340.8 151.631 208.787 2.902 0.585 2.321 ( 7d) MPO111325 2006 10 20 G96 Mt. Lemmon Survey
    000000K06U64C K06U64C2006 UC64 0.6 3.468 0.00341 24.9 20240331 342.7 269.481 210.902 6.111 0.705 2.034 ( 4d) MPO111339 2006 10 23 G96 Mt. Lemmon Survey
    000000K06U64D K06U64D2006 UD64 0.438 3.784 0.14981 20.2 20240331 214.7 304.201 205.53 29.948 0.792 2.111 ( 28d) MPO111339 2006 10 23 G96 Mt. Lemmon Survey
    000000K06U64E K06U64E2006 UE64 0.812 1.832 0.00042 28.0 20240331 202.9 290.115 27.121 7.88 0.386 1.322 ( 4d) MPO111339 2006 10 23 703 CSS
    000000K06UI5C K06UI5C2006 UC185 0.92 2.132 0.01192 23.45 20240331 107.7 307.58 37.388 4.307 0.397 1.526 ( 30d) MPO750185 2006 10 28 703 CSS
    000000K06UI5F K06UI5F2006 UF185 0.487 1.968 0.1336 21.58 20240331 235.4 307.333 221.821 33.779 0.603 1.227 ( 13d) MPO750185 2006 10 27 691 Spacewatch
    000000K06UI5J K06UI5J2006 UJ185 0.713 2.678 0.0002 27.9 20240331 300.9 77.033 36.765 0.863 0.579 1.696 ( 1d) MPO434916 2006 10 28 G96 Mt. Lemmon Survey
    000000K06UL5Y K06UL5Y2006 UY215 0.747 2.01 0.01446 23.1 20240331 239.8 263.095 215.621 9.33 0.458 1.379 ( 3d) MPO111369 2006 10 28 704 LINEAR
    000000K06UL6A K06UL6A2006 UA216 0.996 1.916 0.01504 23.6 20240331 337.6 340.932 42.748 6.734 0.316 1.456 ( 40d) MPO112959 2006 10 29 E12 Siding Spring Survey
    000000K06UL6Q K06UL6Q2006 UQ216 0.924 1.283 0.00131 27.3 20240331 316.4 247.714 217.633 0.474 0.163 1.104 ( 3d) MPO111369 2006 10 29 G96 Mt. Lemmon Survey
    000000K06UL7K K06UL7K2006 UK217 0.495 2.488 0.25525 19.04 20240331 159.5 311.506 217.176 41.138 0.668 1.492 4 MPO781153 2006 10 31 704 LINEAR
    000000K06UL7P K06UL7P2006 UP217 0.615 1.789 0.00114 24.9 20240331 127.8 83.178 206.626 1.521 0.489 1.202 ( 1d) MPO111369 2006 10 31 G96 Mt. Lemmon Survey
    000000K06V00B K06V00B2006 VB 0.995 2.461 0.03854 25.1 20240331 252.9 325.224 36.905 8.691 0.424 1.728 ( 9d) MPO111384 2006 11 01 G96 Mt. Lemmon Survey
    000000K06V02B K06V02B2006 VB2 0.38 3.183 0.23101 19.8 20240331 86.1 171.944 4.142 15.807 0.787 1.781 2 MPO639978 2006 11 09 704 LINEAR
    000000K06V02Z K06V02Z2006 VZ2 0.998 3.965 0.08458 19.72 20240331 152.8 216.292 251.53 36.044 0.598 2.481 ( 20d) MPO750185 2006 11 11 703 CSS
    000000K06V13E K06V13E2006 VE13 0.869 2.877 0.00529 26.6 20240331 294.7 305.962 52.52 3.831 0.536 1.873 ( 4d) MPO111387 2006 11 13 703 CSS
    000000K06V13F K06V13F2006 VF13 0.991 1.654 0.01332 23.2 20240331 163.9 161.337 235.512 24.458 0.251 1.322 ( 5d) MPO111387 2006 11 13 704 LINEAR
    000000K06V13T K06V13T2006 VT13 0.968 4.195 0.01092 20.8 20240331 77.9 44.03 321.572 2.11 0.625 2.581 ( 56d) MPO114807 2006 11 15 703 CSS
    000000K06W00V K06W00V2006 WV 0.715 2.349 0.00196 27.2 20240331 26.4 80.982 56.273 2.152 0.533 1.532 ( 4d) MPO111418 2006 11 17 703 CSS
    000000K06W00X K06W00X2006 WX 0.981 3.978 0.00261 25.1 20240331 164.1 166.198 231.94 8.716 0.604 2.48 ( 9d) MPO111418 2006 11 18 703 CSS
    000000K06W01P K06W01P2006 WP1 0.671 2.742 0.00021 28.2 20240331 306.3 98.586 233.954 5.902 0.607 1.707 ( 1d) MPO111419 2006 11 18 G96 Mt. Lemmon Survey
    000000K06W01T K06W01T2006 WT1 0.987 3.959 0.00539 20.12 20240331 168.0 170.58 244.841 13.688 0.601 2.473 2 MPO740083 2006 11 19 704 LINEAR
    000000K06W03A K06W03A2006 WA3 0.983 1.466 0.02718 22.3 20240331 43.4 47.952 234.63 24.07 0.197 1.225 ( 4d) MPO111419 2006 11 18 G96 Mt. Lemmon Survey
    000000K06W03M K06W03M2006 WM3 0.897 3.068 0.0028 23.38 20240331 59.8 36.538 89.757 2.011 0.548 1.982 ( 53d) E2024-BE9 2006 11 20 691 Spacewatch
    000000K06W03N K06W03N2006 WN3 0.898 2.711 0.07745 19.89 20240331 354.9 294.738 244.913 26.031 0.503 1.804 3 E2024-H66 2006 11 20 G96 Mt. Lemmon Survey
    000000K06W03P K06W03P2006 WP3 0.896 1.818 0.02309 23.4 20240331 23.0 141.232 221.12 7.435 0.34 1.357 ( 31d) MPO112986 2006 11 20 E12 Siding Spring Survey
    000000K06W03X K06W03X2006 WX3 0.992 4.43 0.12196 22.3 20240331 333.0 123.684 244.007 14.716 0.634 2.711 ( 33d) MPO112986 2006 11 21 691 Spacewatch
    000000K06W03Y K06W03Y2006 WY3 0.866 3.904 0.01025 22.8 20240331 278.5 324.226 9.147 2.723 0.637 2.385 2 MPO424562 2006 11 21 G96 Mt. Lemmon Survey
    000000K06W03Z K06W03Z2006 WZ3 0.737 2.754 0.06176 20.28 20240331 142.7 0.472 176.275 3.823 0.578 1.745 5 E2023-O02 2006 11 21 G96 Mt. Lemmon Survey
    000000K06W29S K06W29S2006 WS29 0.901 2.426 0.04318 25.0 20240331 10.7 57.115 63.646 14.515 0.458 1.664 ( 11d) MPO111425 2006 11 22 G96 Mt. Lemmon Survey
    000000K06W29V K06W29V2006 WV29 0.61 2.158 0.00056 26.5 20240331 205.8 81.887 75.264 1.225 0.559 1.384 ( 3d) MPO111425 2006 11 23 G96 Mt. Lemmon Survey
    000000K06W29X K06W29X2006 WX29 0.628 4.046 0.00275 27.8 20240331 319.0 101.567 234.405 2.597 0.731 2.337 ( 2d) MPO111425 2006 11 23 691 Spacewatch
    000000K06W29Z K06W29Z2006 WZ29 0.966 3.589 0.01786 24.8 20240331 29.2 144.004 226.653 4.882 0.576 2.277 ( 4d) MPO111425 2006 11 23 G96 Mt. Lemmon Survey
    000000K06W30A K06W30A2006 WA30 0.942 2.317 0.0337 25.6 20240331 105.3 227.048 241.341 10.061 0.422 1.629 ( 6d) MPO111425 2006 11 24 G96 Mt. Lemmon Survey
    000000K06W30C K06W30C2006 WC30 0.982 4.224 0.00603 24.2 20240331 44.3 13.564 72.223 4.974 0.623 2.603 ( 30d) MPO112989 2006 11 25 703 CSS
    000000K06WC7Q K06WC7Q2006 WQ127 0.643 1.971 0.01302 23.3 20240331 174.9 87.701 73.385 18.125 0.508 1.307 ( 2d) MPO111440 2006 11 25 703 CSS
    000000K06WC9D K06WC9D2006 WD129 0.94 2.819 0.01365 26.3 20240331 277.6 319.604 56.691 6.022 0.5 1.879 ( 2d) MPO111440 2006 11 25 G96 Mt. Lemmon Survey
    000000K06WC9E K06WC9E2006 WE129 0.895 2.558 0.10704 19.70 20240331 174.2 110.012 64.238 39.553 0.481 1.727 3 MPO732563 2006 11 27 691 Spacewatch
    000000K06WD0G K06WD0G2006 WG130 0.962 3.839 0.02868 24.7 20240331 246.4 325.474 63.888 11.282 0.599 2.4 ( 2d) MPO111441 2006 11 27 704 LINEAR
    000000K06WD0J K06WD0J2006 WJ130 0.981 1.286 0.03657 24.1 20240331 174.3 130.113 244.727 22.369 0.135 1.133 ( 3d) MPO111441 2006 11 28 704 LINEAR
    000000K06WD0K K06WD0K2006 WK130 0.671 3.541 0.01946 22.3 20240331 258.6 277.178 71.92 13.8 0.681 2.106 ( 22d) MPO112998 2006 11 28 G96 Mt. Lemmon Survey
    000000K06WD0O K06WD0O2006 WO130 0.905 2.423 0.02255 26.1 20061121 337.9 230.32 246.43 12.344 0.456 1.664 ( 0d) MPO111441 2006 11 27 G96 Mt. Lemmon Survey
    000000K06WI4Z K06WI4Z2006 WZ184 0.918 1.823 0.00201 26.3 20240331 317.0 128.255 249.367 0.848 0.33 1.371 ( 27d) MPO113001 2006 11 28 704 LINEAR
    000000K06X00B K06X00B2006 XB 0.881 2.616 0.05869 21.02 20240331 141.4 13.427 143.578 6.835 0.496 1.748 3 MPO639986 2006 12 06 644 NEAT
    000000K06X00Y K06X00Y2006 XY 0.991 2.018 0.00791 24.2 20240331 147.4 185.176 257.481 3.518 0.341 1.505 2 MPO437955 2006 12 11 703 CSS
    000000K06X01F K06X01F2006 XF1 0.629 2.087 0.27083 19.60 20240331 28.1 46.726 264.83 32.167 0.537 1.358 5 MPO732567 2006 12 10 704 LINEAR
    000000K06X01K K06X01K2006 XK1 0.709 4.255 0.20637 19.3 20240331 122.4 174.343 329.342 13.404 0.714 2.482 ( 11d) MPO114816 2006 12 11 704 LINEAR
    000000K06X02E K06X02E2006 XE2 0.794 1.507 0.05916 22.0 20240331 75.7 70.191 268.071 20.022 0.31 1.15 ( 27d) MPO114816 2006 12 12 704 LINEAR
    000000K06X02H K06X02H2006 XH2 0.594 4.002 0.01443 24.4 20240331 359.2 298.142 50.6 2.042 0.741 2.298 ( 12d) MPO126774 2006 12 12 704 LINEAR
    000000K06X02K K06X02K2006 XK2 0.543 2.537 0.0531 20.63 20240331 57.8 240.5 93.089 8.66 0.648 1.54 2 MPO740084 2006 12 12 G96 Mt. Lemmon Survey
    000000K06X03A K06X03A2006 XA3 0.891 3.842 0.01448 25.2 20240331 280.9 308.62 84.709 4.989 0.623 2.366 ( 8d) MPO113004 2006 12 13 G96 Mt. Lemmon Survey
    000000K06X04R K06X04R2006 XR4 0.76 1.32 0.0037 26.16 20240331 39.2 275.426 263.025 10.951 0.269 1.04 ( 1d) MPO781170 2006 12 15 246 Klet Observatory-KLENOT
    000000K06X04V K06X04V2006 XV4 0.963 4.213 0.00122 24.9 20240331 57.7 159.544 258.878 4.008 0.628 2.588 ( 14d) MPO113004 2006 12 13 704 LINEAR
    000000K06X04W K06X04W2006 XW4 0.951 1.131 0.00605 24.3 20240331 181.1 262.409 79.833 13.322 0.086 1.041 ( 11d) MPO114816 2006 12 15 704 LINEAR
    000000K06Y00E K06Y00E2006 YE 0.977 2.512 0.00184 27.3 20240331 173.7 211.392 252.616 0.321 0.44 1.745 ( 1d) MPO113018 2006 12 16 G96 Mt. Lemmon Survey
    000000K06Y00F K06Y00F2006 YF 0.888 1.328 0.05707 21.05 20240331 73.6 27.33 274.288 4.679 0.199 1.108 5 MPO740084 2006 12 16 691 Spacewatch
    000000K06Y00P K06Y00P2006 YP 0.903 1.387 0.02585 23.9 20240331 343.0 95.217 69.295 5.395 0.211 1.145 3 MPO456562 2006 12 17 703 CSS
    000000K06Y01V K06Y01V2006 YV1 0.699 1.814 0.0569 21.59 20240331 144.2 49.832 302.742 4.971 0.444 1.257 3 E2024-C37 2006 12 20 703 CSS
    000000K06Y02X K06Y02X2006 YX2 0.842 1.176 0.06661 24.1 20240331 112.1 245.411 88.566 28.703 0.166 1.009 ( 1d) MPO113019 2006 12 22 704 LINEAR
    000000K06Y13C K06Y13C2006 YC13 0.911 2.015 0.13538 20.43 20240331 220.7 277.498 289.957 25.245 0.377 1.463 4 E2023-Q13 2006 12 24 G96 Mt. Lemmon Survey
    000000K06Y44P K06Y44P2006 YP44 0.948 4.145 0.00116 23.75 20240331 95.2 332.994 88.196 1.986 0.628 2.547 ( 26d) MPO740085 2006 12 29 G96 Mt. Lemmon Survey
    2007542001 WA25}(200754) K01W25A2001 WA25 0.848 2.664 0.09717 18.51 20240331 236.5 83.788 279.743 15.509 0.517 1.756 8 E2023-W66 2001 11 27 704 LINEAR
    000000K07A02A K07A02A2007 AA2 0.908 1.157 0.01204 24.6 20240331 220.5 96.271 287.816 10.527 0.121 1.032 ( 19d) MPO114827 2007 01 09 703 CSS
    000000K07A02C K07A02C2007 AC2 0.62 4.214 0.0174 21.8 20240331 222.9 91.168 294.385 9.506 0.743 2.417 ( 27d) MPO121361 2007 01 10 703 CSS
    000000K07A02F K07A02F2007 AF2 0.996 2.445 0.05218 21.77 20240331 212.8 211.94 289.558 16.998 0.421 1.72 2 MPO750185 2007 01 09 704 LINEAR
    000000K07A02S K07A02S2007 AS2 0.97 4.207 0.04147 22.1 20240331 55.4 121.631 308.182 3.766 0.625 2.588 (101d) MPO201107 2007 01 09 704 LINEAR
    000000K07A02U K07A02U2007 AU2 0.822 2.389 0.01277 24.1 20240331 144.2 66.88 109.867 6.472 0.488 1.605 ( 5d) MPO114827 2007 01 10 703 CSS
    000000K07A02V K07A02V2007 AV2 0.756 2.119 0.03878 21.17 20240331 302.8 293.443 285.822 12.315 0.474 1.438 2 MPO781173 2007 01 10 G96 Mt. Lemmon Survey
    000000K07A12B K07A12B2007 AB12 0.641 3.95 0.00794 18.9 20240331 349.7 283.045 65.45 7.804 0.721 2.296 ( 40d) MPO116379 2007 01 10 G96 Mt. Lemmon Survey
    000000K07B00J K07B00J2007 BJ 0.962 4.953 0.10288 22.6 20240331 149.1 133.913 298.307 44.148 0.675 2.957 ( 9d) MPO116382 2007 01 19 699 LONEOS
    000000K07B07D K07B07D2007 BD7 0.785 2.341 0.03729 21.1 20240331 257.7 220.009 343.522 4.841 0.498 1.563 ( 15d) MPO121361 2007 01 23 699 LONEOS
    000000K07B07T K07B07T2007 BT7 0.998 3.347 0.15792 20.10 20240331 148.9 117.515 294.479 17.473 0.541 2.172 2 MPO732572 2007 01 24 703 CSS
    000000K07B08D K07B08D2007 BD8 0.83 2.039 0.03143 24.4 20240331 322.3 267.385 300.575 4.418 0.421 1.434 ( 15d) MPO116383 2007 01 24 G96 Mt. Lemmon Survey
    000000K07B29J K07B29J2007 BJ29 0.381 3.988 0.02415 18.84 20240331 131.3 119.607 241.96 11.091 0.826 2.184 3 MPO740086 2007 01 25 704 LINEAR
    000000K07B48Y K07B48Y2007 BY48 0.996 1.798 0.03001 22.6 20240331 157.8 157.138 301.834 25.126 0.287 1.397 ( 2d) MPO114838 2007 01 26 704 LINEAR
    000000K07B48Z K07B48Z2007 BZ48 0.955 2.617 0.00544 26.0 20240331 56.8 53.706 114.366 0.679 0.465 1.786 ( 11d) MPO116387 2007 01 27 G96 Mt. Lemmon Survey
    000000K07B49E K07B49E2007 BE49 0.64 2.511 0.10312 21.47 20240331 298.0 10.907 15.437 6.061 0.594 1.576 ( 27d) MPO740086 2007 01 27 703 CSS
    000000K07C05R K07C05R2007 CR5 0.899 2.337 0.01395 25.4 20240331 137.6 310.817 138.77 13.869 0.444 1.618 ( 7d) MPO116391 2007 02 08 703 CSS
    000000K07C15H K07C15H2007 CH15 0.987 1.774 0.1047 21.75 20240331 125.3 114.793 139.039 25.894 0.285 1.38 3 E2023-Y71 2007 02 08 G96 Mt. Lemmon Survey
    000000K07C18U K07C18U2007 CU18 0.936 3.125 0.01469 24.4 20240331 344.1 321.015 133.063 7.087 0.539 2.03 ( 7d) MPO116393 2007 02 09 703 CSS
    000000K07C19C K07C19C2007 CC19 0.617 2.719 0.00353 27.0 20240331 307.3 274.987 316.796 2.093 0.63 1.668 ( 1d) MPO116393 2007 02 10 G96 Mt. Lemmon Survey
    000000K07C26L K07C26L2007 CL26 0.967 2.235 0.07719 23.6 20240331 191.7 123.609 316.492 11.414 0.396 1.601 ( 15d) MPO116394 2007 02 10 G96 Mt. Lemmon Survey
    000000K07C27C K07C27C2007 CC27 0.856 2.523 0.00092 27.0 20240331 304.6 125.357 323.926 2.127 0.493 1.689 ( 6d) MPO116394 2007 02 13 704 LINEAR
    000000K07C50X K07C50X2007 CX50 0.934 1.478 0.01561 24.7 20240331 6.3 126.28 322.35 7.499 0.226 1.206 ( 22d) MPO126774 2007 02 15 703 CSS
    000000K07D00A K07D00A2007 DA 0.431 1.59 0.02029 22.40 20240331 16.1 262.18 117.201 2.763 0.574 1.01 3 MPO740087 2007 02 16 703 CSS
    000000K07D00C K07D00C2007 DC 0.914 1.785 0.00407 27.5 20240331 0.7 278.483 174.391 0.407 0.323 1.35 ( 9d) MPO116399 2007 02 16 G96 Mt. Lemmon Survey
    000000K07D00J K07D00J2007 DJ 0.98 2.758 0.0194 24.3 20240331 240.0 29.526 157.387 6.931 0.476 1.869 ( 17d) MPO122875 2007 02 17 703 CSS
    000000K07D00W K07D00W2007 DW 0.513 1.645 0.15702 20.54 20240331 12.9 313.27 328.098 38.69 0.524 1.079 3 MPO740087 2007 02 17 644 NEAT
    000000K07D00Y K07D00Y2007 DY 0.995 3.893 0.31147 19.6 20240331 191.3 282.24 159.727 37.607 0.593 2.444 ( 56d) MPO119700 2007 02 18 704 LINEAR
    000000K07D07S K07D07S2007 DS7 0.711 1.675 0.00059 25.8 20240331 124.3 271.996 148.345 8.425 0.404 1.193 ( 4d) MPO116401 2007 02 21 703 CSS
    000000K07D08F K07D08F2007 DF8 0.994 2.646 0.05568 20.38 20240331 311.6 130.367 102.078 9.111 0.454 1.82 2 MPO781178 2007 02 21 703 CSS
    000000K07D08G K07D08G2007 DG8 0.85 1.865 0.02127 25.2 20240331 254.8 90.249 131.746 3.083 0.374 1.358 2 MPO451015 2007 02 21 703 CSS
    000000K07D40Q K07D40Q2007 DQ40 0.738 3.273 0.0125 23.3 20240331 27.0 312.961 122.069 1.887 0.632 2.005 ( 18d) MPO545693 2007 02 22 703 CSS
    000000K07D40X K07D40X2007 DX40 0.709 2.358 0.00049 24.6 20240331 331.0 275.036 328.674 0.446 0.538 1.534 ( 9d) MPO116411 2007 02 21 G96 Mt. Lemmon Survey
    000000K07D40Y K07D40Y2007 DY40 0.7 2.737 0.02518 21.1 20240331 167.8 115.043 160.161 5.89 0.593 1.718 3 MPO392319 2007 02 21 G96 Mt. Lemmon Survey
    000000K07D40Z K07D40Z2007 DZ40 0.858 4.834 0.10194 18.65 20240331 197.7 9.093 172.891 11.271 0.699 2.846 4 MPO659876 2007 02 22 703 CSS
    000000K07D41N K07D41N2007 DN41 0.891 4.861 0.00152 26.4 20240331 182.3 317.166 152.932 2.462 0.69 2.876 ( 5d) MPO116411 2007 02 23 G96 Mt. Lemmon Survey
    000000K07D49D K07D49D2007 DD49 0.853 3.49 0.07249 19.06 20240331 140.7 277.566 149.888 8.202 0.607 2.171 4 MPO750185 2007 02 22 704 LINEAR
    000000K07DA3T K07DA3T2007 DT103 0.938 3.475 0.01308 19.70 20240331 39.2 134.144 137.004 5.455 0.575 2.207 4 MPO740088 2007 02 26 G96 Mt. Lemmon Survey
    000000K07E00H K07E00H2007 EH 0.735 3.593 0.00062 27.6 20240331 116.5 248.245 350.821 1.366 0.66 2.164 ( 2d) MPO118216 2007 03 09 703 CSS
    000000K07E00K K07E00K2007 EK 0.819 1.433 0.00141 29.3 20240331 45.3 83.44 168.503 1.209 0.272 1.126 ( 4d) MPO118216 2007 03 09 691 Spacewatch
    000000K07E00Q K07E00Q2007 EQ 0.9 2.359 0.05877 21.1 20240331 96.0 3.226 106.407 5.668 0.448 1.629 ( 47d) MPO119708 2007 03 10 703 CSS
    000000K07E00S K07E00S2007 ES 0.635 2.504 0.35388 18.78 20240331 341.3 19.35 334.501 35.191 0.595 1.57 9 MPO740089 2007 03 09 291 Spacewatch
    000000K07E00V K07E00V2007 EV 0.754 1.429 0.00382 25.0 20240331 283.2 268.722 357.297 8.196 0.309 1.091 ( 6d) MPO118216 2007 03 10 703 CSS
    000000K07E00Z K07E00Z2007 EZ 0.729 2.685 0.09523 19.8 20240331 255.0 357.928 98.47 5.812 0.573 1.707 3 MPO380342 2007 03 10 704 LINEAR
    000000K07E25Y K07E25Y2007 EY25 0.711 2.983 0.00731 25.1 20240331 263.1 266.219 345.881 2.253 0.615 1.847 ( 7d) MPO118221 2007 03 09 G96 Mt. Lemmon Survey
    000000K07E25Z K07E25Z2007 EZ25 0.601 3.654 0.00094 25.5 20240331 195.2 268.445 167.371 5.451 0.717 2.128 ( 6d) MPO118221 2007 03 09 G96 Mt. Lemmon Survey
    000000K07E26E K07E26E2007 EE26 0.946 1.544 0.00557 26.1 20240331 137.0 123.243 342.575 1.031 0.24 1.245 ( 4d) MPO119711 2007 03 10 G96 Mt. Lemmon Survey
    000000K07E26H K07E26H2007 EH26 0.63 3.213 0.00745 24.2 20240331 125.9 269.503 355.782 5.66 0.672 1.921 ( 6d) MPO118221 2007 03 10 G96 Mt. Lemmon Survey
    000000K07E26K K07E26K2007 EK26 0.643 3.055 0.00241 25.0 20240331 301.5 98.506 346.172 3.426 0.652 1.849 ( 5d) MPO545694 2007 03 12 703 CSS
    000000K07E26N K07E26N2007 EN26 0.869 1.717 0.01524 22.5 20240331 170.5 246.537 9.106 15.428 0.328 1.293 ( 17d) MPO121877 2007 03 12 703 CSS
    000000K07E88J K07E88J2007 EJ88 0.515 4.143 0.02853 23.4 20240331 265.9 204.774 79.741 1.911 0.779 2.329 ( 14d) MPO118230 2007 03 14 G96 Mt. Lemmon Survey
    000000K07E88N K07E88N2007 EN88 0.899 3.455 0.00398 26.68 20240331 123.4 136.197 353.311 8.977 0.587 2.177 ( 1d) MPO740090 2007 03 15 704 LINEAR
    000000K07E88O K07E88O2007 EO88 0.75 1.514 0.00088 26.4 20240331 8.4 270.34 356.169 5.952 0.337 1.132 ( 3d) MPO118230 2007 03 15 703 CSS
    000000K07EC5D K07EC5D2007 ED125 0.798 3.044 0.00864 21.14 20240331 160.4 290.364 173.275 3.78 0.584 1.921 4 MPO750185 2007 03 14 G96 Mt. Lemmon Survey
    000000K07EC6E K07EC6E2007 EE126 0.341 6.525 0.00941 25.6 20240331 246.3 251.044 168.213 8.444 0.901 3.433 ( 1d) MPO118234 2007 03 15 G96 Mt. Lemmon Survey
    000000K07F00B K07F00B2007 FB 0.968 1.664 0.02799 26.2 20240331 141.0 311.609 171.751 5.817 0.264 1.316 ( 1d) MPO118243 2007 03 16 691 Spacewatch
    000000K07F00C K07F00C2007 FC 0.985 2.439 0.03628 26.1 20240331 234.1 314.986 175.368 4.658 0.425 1.712 ( 1d) MPO118243 2007 03 16 G96 Mt. Lemmon Survey
    000000K07F01F K07F01F2007 FF1 0.787 2.254 0.03462 21.86 20240331 359.6 234.567 21.572 8.23 0.483 1.52 3 MPO713802 2007 03 17 703 CSS
    000000K07F03C K07F03C2007 FC3 0.92 1.769 0.0061 25.5 20240331 308.3 228.874 358.778 25.178 0.316 1.344 ( 3d) MPO118244 2007 03 18 703 CSS
    000000K07F03O K07F03O2007 FO3 0.892 1.652 0.04079 24.5 20240331 265.1 262.128 356.629 6.275 0.299 1.272 ( 1d) MPO118244 2007 03 20 G96 Mt. Lemmon Survey
    000000K07F03P K07F03P2007 FP3 0.844 1.984 0.00011 28.4 20240331 77.5 119.78 352.35 0.235 0.403 1.414 ( 1d) MPO118244 2007 03 20 G96 Mt. Lemmon Survey
    000000K07F03R K07F03R2007 FR3 0.918 2.773 0.00158 27.5 20240331 270.8 43.588 182.296 1.61 0.502 1.846 ( 1d) MPO118244 2007 03 20 G96 Mt. Lemmon Survey
    000000K07F03S K07F03S2007 FS3 0.922 2.233 0.00466 26.1 20240331 225.1 314.06 178.599 3.275 0.415 1.578 ( 1d) MPO118244 2007 03 20 G96 Mt. Lemmon Survey
    000000K07F03T K07F03T2007 FT3 0.781 1.468 0.01653 20.0 20240331 35.4 277.571 9.77 26.728 0.306 1.125 ( 1d) MPO118244 2007 03 20 G96 Mt. Lemmon Survey
    000000K07F20Y K07F20Y2007 FY20 0.894 2.024 0.00141 25.0 20240331 210.6 230.495 11.788 5.37 0.387 1.459 2 MPO289430 2007 03 26 703 CSS
    000000K07G00F K07G00F2007 GF 0.808 1.792 0.1271 21.1 20240331 224.9 33.022 58.957 18.878 0.378 1.3 3 MPO349236 2007 04 07 G96 Mt. Lemmon Survey
    000000K07G01U K07G01U2007 GU1 0.786 3.587 0.00015 24.99 20240331 78.3 243.563 25.745 9.109 0.64 2.187 ( 4d) E2023-QF8 2007 04 11 703 CSS
    000000K07G01Y K07G01Y2007 GY1 0.789 3.158 0.00963 22.6 20240331 61.2 323.624 163.503 1.197 0.6 1.973 ( 15d) MPO121363 2007 04 11 703 CSS
    000000K07G03Q K07G03Q2007 GQ3 0.991 2.619 0.02007 22.04 20240331 341.6 209.653 34.49 10.195 0.451 1.805 2 E2024-GJ9 2007 04 11 704 LINEAR
    000000K07G03T K07G03T2007 GT3 0.122 3.889 0.13046 19.79 20240331 332.9 342.03 15.671 25.611 0.939 2.006 3 E2024-J99 2007 04 11 E12 Siding Spring Survey
    000000K07G04S K07G04S2007 GS4 0.957 1.62 0.11685 21.20 20240331 292.8 74.774 28.2 24.829 0.257 1.289 ( 7d) MPO750185 2007 04 11 691 Spacewatch
    000000K07G04U K07G04U2007 GU4 0.654 1.752 0.01794 22.65 20240331 4.8 295.438 160.814 3.158 0.457 1.203 2 MPO750185 2007 04 14 703 CSS
    000000K07G04W K07G04W2007 GW4 0.764 1.39 0.23446 20.6 20240331 277.4 172.238 185.87 29.484 0.291 1.077 5 MPO409327 2007 04 14 703 CSS
    000000K07G05V K07G05V2007 GV5 0.424 4.306 0.13086 21.9 20240331 221.5 308.206 15.127 21.276 0.821 2.365 ( 2d) MPO119728 2007 04 14 G96 Mt. Lemmon Survey
    000000K07G05X K07G05X2007 GX5 0.7 2.458 0.01338 24.3 20240331 225.5 41.4 75.895 1.249 0.557 1.579 ( 9d) MPO121363 2007 04 15 703 CSS
    000000K07G05Y K07G05Y2007 GY5 0.911 2.082 0.0756 24.0 20240331 62.2 247.172 26.368 24.638 0.391 1.496 ( 4d) MPO119728 2007 04 15 G96 Mt. Lemmon Survey
    000000K07H00C K07H00C2007 HC 0.915 1.395 0.00313 25.2 20240331 186.3 58.084 216.788 3.159 0.208 1.155 ( 6d) MPO119739 2007 04 16 E12 Siding Spring Survey
    000000K07H00P K07H00P2007 HP 0.478 3.471 0.00673 22.9 20240331 54.0 69.523 32.351 2.752 0.758 1.974 ( 9d) MPO119739 2007 04 18 703 CSS
    000000K07H03W K07H03W2007 HW3 0.95 4.274 0.19183 20.54 20240331 342.4 87.67 202.842 15.104 0.636 2.612 2 E2024-H76 2007 04 18 G96 Mt. Lemmon Survey
    000000K07H04V K07H04V2007 HV4 0.968 2.699 0.0032 28.7 20240331 281.0 30.527 209.509 4.253 0.472 1.834 ( 3d) MPO126774 2007 04 20 G96 Mt. Lemmon Survey
    000000K07H04W K07H04W2007 HW4 0.339 2.733 0.01528 23.6 20240331 295.7 196.209 139.765 1.286 0.779 1.536 2 MPO466254 2007 04 20 G96 Mt. Lemmon Survey
    000000K07H15B K07H15B2007 HB15 0.934 1.576 0.001 27.7 20240331 351.9 226.452 36.929 1.109 0.256 1.255 ( 11d) MPO294825 2007 04 23 703 CSS
    000000K07H15D K07H15D2007 HD15 0.928 1.636 0.00201 24.16 20240331 275.5 310.093 204.246 15.067 0.276 1.282 ( 27d) MPO740093 2007 04 22 703 CSS
    000000K07H15E K07H15E2007 HE15 0.985 3.305 0.01139 19.79 20240331 119.5 342.398 297.629 9.548 0.541 2.145 3 E2023-O83 2007 04 22 E12 Siding Spring Survey
    000000K07H44G K07H44G2007 HG44 0.715 4.254 0.08279 19.43 20240331 146.5 34.119 63.74 8.219 0.712 2.484 6 MPO740094 2007 04 24 703 CSS
    000000K07H58Z K07H58Z2007 HZ58 0.963 3.232 0.05032 24.9 20240331 193.8 58.684 202.557 6.553 0.541 2.097 ( 3d) MPO119746 2007 04 24 G96 Mt. Lemmon Survey
    000000K07J00D K07J00D2007 JD 0.516 5.112 0.00857 23.1 20240331 192.5 97.311 224.62 12.483 0.817 2.814 ( 4d) MPO120882 2007 05 07 E12 Siding Spring Survey
    000000K07J02Y K07J02Y2007 JY2 0.69 3.717 0.00132 21.7 20240331 35.7 107.698 223.381 1.616 0.687 2.204 ( 32d) MPO121366 2007 05 09 G96 Mt. Lemmon Survey
    000000K07J02Z K07J02Z2007 JZ2 0.855 2.837 0.01323 25.9 20240331 247.4 242.882 48.53 6.709 0.537 1.846 ( 3d) MPO120883 2007 05 09 G96 Mt. Lemmon Survey
    000000K07J16F K07J16F2007 JF16 0.654 3.381 0.24512 18.68 20240331 24.3 221.252 225.343 43.833 0.676 2.018 ( 14d) E2023-OB5 2007 05 10 G96 Mt. Lemmon Survey
    000000K07J22H K07J22H2007 JH22 0.85 3.503 0.04203 21.83 20240331 100.6 22.888 150.89 5.578 0.609 2.177 2 MPO750185 2007 05 12 704 LINEAR
    000000K07K00E K07K00E2007 KE 0.799 2.557 0.04073 22.5 20240331 298.1 78.901 80.893 9.207 0.524 1.678 2 MPO429645 2007 05 16 703 CSS
    000000K07K02V K07K02V2007 KV2 0.767 1.465 0.00623 24.6 20240331 169.5 264.551 235.451 13.722 0.313 1.116 ( 15d) MPO121369 2007 05 21 703 CSS
    000000K07K04O K07K04O2007 KO4 0.925 1.281 0.00811 23.2 20240331 92.7 299.342 61.099 25.148 0.162 1.103 ( 3d) MPO120890 2007 05 22 G96 Mt. Lemmon Survey
    000000K07K07G K07K07G2007 KG7 0.237 3.326 0.01183 20.70 20240331 2.9 318.62 66.006 4.76 0.867 1.782 ( 38d) MPO713806 2007 05 26 G96 Mt. Lemmon Survey
    000000K07L00A K07L00A2007 LA 0.631 2.451 0.10382 21.3 20240331 253.3 107.948 245.422 33.376 0.591 1.541 ( 9d) MPO121369 2007 06 06 703 CSS
    000000K07L00T K07L00T2007 LT 0.929 2.064 0.00582 22.6 20240331 89.5 342.991 221.965 0.686 0.379 1.496 3 MPO451040 2007 06 09 703 CSS
    000000K07L19U K07L19U2007 LU19 0.913 3.851 0.00466 21.45 20240331 228.8 143.379 63.623 2.606 0.617 2.382 2 MPO740098 2007 06 15 E12 Siding Spring Survey
    000000K07L19W K07L19W2007 LW19 0.983 3.715 0.01775 23.5 20240331 230.5 233.083 63.617 2.126 0.582 2.349 ( 7d) MPO121373 2007 06 15 E12 Siding Spring Survey
    000000K07M00G K07M00G2007 MG 0.679 1.871 0.10255 21.22 20240331 297.7 248.238 258.3 24.87 0.468 1.275 5 E2023-P78 2007 06 17 691 Spacewatch
    000000K07M00Q K07M00Q2007 MQ 0.647 4.294 0.01146 23.6 20240331 107.5 239.056 112.204 1.691 0.738 2.471 ( 3d) MPO121375 2007 06 18 703 CSS
    000000K07M04B K07M04B2007 MB4 0.946 3.527 0.01528 22.68 20240331 355.3 99.139 222.267 1.171 0.577 2.237 3 MPO740098 2007 06 19 704 LINEAR
    000000K07M06K K07M06K2007 MK6 0.196 1.966 0.08731 20.26 20240331 14.3 25.507 92.848 25.117 0.819 1.081 5 E2023-P78 2007 06 21 703 CSS
    000000K07M13J K07M13J2007 MJ13 0.894 2.0 0.00729 24.6 20240331 203.1 58.388 267.874 10.784 0.382 1.447 ( 4d) MPO121376 2007 06 20 704 LINEAR
    000000K07N01L K07N01L2007 NL1 0.931 1.549 0.10387 21.22 20240331 341.0 266.963 117.029 18.634 0.249 1.24 2 E2023-WB0 2007 07 11 D35 LUSS
    000000K07O00X K07O00X2007 OX 0.981 2.03 0.12755 21.3 20240331 50.3 110.542 121.904 22.102 0.349 1.505 3 MPO543198 2007 07 18 G96 Mt. Lemmon Survey
    000000K07P02F K07P02F2007 PF2 0.608 2.444 0.00158 24.4 20240331 268.0 94.205 316.657 11.129 0.602 1.526 ( 4d) MPO135994 2007 08 07 E12 Siding Spring Survey
    000000K07P09S K07P09S2007 PS9 0.993 1.158 0.03729 23.5 20240331 272.8 79.948 313.083 8.704 0.077 1.075 2 MPO419374 2007 08 12 704 LINEAR
    000000K07P10R K07P10R2007 PR10 0.132 2.331 0.13367 20.83 20240331 97.6 190.744 335.123 20.903 0.892 1.232 3 MPO781189 2007 08 12 E12 Siding Spring Survey
    000000K07P25R K07P25R2007 PR25 0.304 3.552 0.00979 22.0 20240331 57.8 292.908 153.415 3.505 0.842 1.928 ( 7d) MPO122902 2007 08 13 704 LINEAR
    000000K07P27V K07P27V2007 PV27 0.801 1.745 0.00019 20.34 20240331 136.3 107.651 324.435 24.601 0.371 1.273 4 MPO740099 2007 08 14 E12 Siding Spring Survey
    000000K07P28F K07P28F2007 PF28 0.421 3.852 0.01649 19.23 20240331 94.8 261.975 179.446 5.881 0.803 2.136 3 MPO740099 2007 08 15 704 LINEAR
    000000K07Q03E K07Q03E2007 QE3 0.825 4.047 0.0764 19.99 20240331 115.6 75.3 343.308 15.79 0.661 2.436 4 MPO740099 2007 08 22 704 LINEAR
    000000K07R01J K07R01J2007 RJ1 0.89 2.007 0.00369 25.2 20240331 149.1 235.501 172.69 8.178 0.385 1.449 ( 13d) MPO124524 2007 09 03 G96 Mt. Lemmon Survey
    000000K07R01O K07R01O2007 RO1 0.891 3.631 0.01553 23.5 20240331 326.9 306.978 339.423 8.52 0.606 2.261 ( 28d) MPO126783 2007 09 04 703 CSS
    000000K07R01S K07R01S2007 RS1 0.758 1.731 0.00027 30.9 20240331 296.1 263.415 162.004 8.16 0.391 1.244 ( 1d) MPO124524 2007 09 04 G96 Mt. Lemmon Survey
    000000K07R01T K07R01T2007 RT1 0.443 3.186 0.06964 20.6 20240331 307.3 243.049 341.089 27.998 0.756 1.815 ( 43d) MPO126783 2007 09 04 703 CSS
    000000K07R02F K07R02F2007 RF2 0.581 2.879 0.00671 20.70 20240331 70.6 83.633 11.927 6.06 0.664 1.73 3 E2024-GI3 2007 09 05 703 CSS
    000000K07R08X K07R08X2007 RX8 0.898 1.378 0.02135 24.53 20240331 285.1 282.068 348.394 9.381 0.211 1.138 ( 26d) E2023-Y86 2007 09 08 G96 Mt. Lemmon Survey
    000000K07R08Y K07R08Y2007 RY8 0.682 1.979 0.01458 25.2 20240331 322.5 258.727 352.165 5.85 0.487 1.331 ( 8d) MPO124526 2007 09 09 G96 Mt. Lemmon Survey
    000000K07R09P K07R09P2007 RP9 0.947 2.157 0.08724 23.0 20240331 178.0 61.66 342.246 26.591 0.39 1.552 ( 9d) MPO124526 2007 09 10 703 CSS
    000000K07R09U K07R09U2007 RU9 0.711 3.127 0.00183 20.88 20240331 50.8 286.554 163.884 5.657 0.63 1.919 4 MPO781190 2007 09 10 G96 Mt. Lemmon Survey
    000000K07R09V K07R09V2007 RV9 0.841 3.039 0.01676 20.34 20240331 0.8 116.89 340.357 6.408 0.566 1.94 4 MPO750185 2007 09 10 G96 Mt. Lemmon Survey
    000000K07R10U K07R10U2007 RU10 0.71 3.83 0.10355 19.13 20240331 267.9 133.997 324.155 15.417 0.687 2.27 3 MPO740099 2007 09 11 703 CSS
    000000K07R12Q K07R12Q2007 RQ12 0.944 2.653 0.00147 23.6 20240331 324.1 222.348 84.434 1.243 0.475 1.798 ( 32d) MPO126785 2007 09 11 E12 Siding Spring Survey
    000000K07R12R K07R12R2007 RR12 0.548 3.471 0.07751 19.88 20240331 267.7 132.903 335.481 7.133 0.727 2.01 4 E2023-R01 2007 09 12 703 CSS
    000000K07R12T K07R12T2007 RT12 0.854 1.179 0.04411 23.9 20240331 178.8 43.364 167.579 4.251 0.16 1.017 2 MPO143286 2007 09 12 G96 Mt. Lemmon Survey
    000000K07R17T K07R17T2007 RT17 0.963 3.111 0.03496 25.6 20240331 261.9 311.568 354.503 7.157 0.527 2.037 ( 1d) MPO124529 2007 09 13 G96 Mt. Lemmon Survey
    000000K07R17U K07R17U2007 RU17 0.346 3.723 0.04062 18.25 20240331 204.1 130.822 16.547 9.204 0.83 2.034 3 MPO740100 2007 09 13 G96 Mt. Lemmon Survey
    000000K07R19W K07R19W2007 RW19 0.92 2.495 0.02531 24.7 20240331 129.4 52.959 351.637 9.556 0.461 1.708 ( 9d) MPO124530 2007 09 14 G96 Mt. Lemmon Survey
    000000K07R19Y K07R19Y2007 RY19 0.827 1.388 0.00155 22.75 20240331 359.8 99.167 352.426 12.631 0.253 1.107 3 MPO740100 2007 09 14 704 LINEAR
    000000K07R20A K07R20A2007 RA20 0.791 3.53 0.06107 20.03 20240331 51.1 320.659 123.776 10.792 0.634 2.16 3 E2024-DD1 2007 09 14 E12 Siding Spring Survey
    000000K07RD3N K07RD3N2007 RN133 0.756 3.722 0.03906 25.2 20240331 324.0 75.92 350.975 18.585 0.662 2.239 ( 3d) MPO126798 2007 09 15 G96 Mt. Lemmon Survey
    000000K07RD3Q K07RD3Q2007 RQ133 0.967 4.583 0.2011 18.86 20240331 229.1 274.417 14.095 15.503 0.652 2.775 4 E2021-W71 2007 09 15 G96 Mt. Lemmon Survey
    000000K07RE6S K07RE6S2007 RS146 0.837 3.976 0.02589 23.35 20240331 162.5 158.43 131.979 2.688 0.652 2.407 2 MPO723846 2007 09 15 703 CSS
    000000K07S00H K07S00H2007 SH 0.912 2.537 0.01054 26.2 20240331 125.5 311.344 352.857 11.659 0.471 1.725 ( 2d) MPO126810 2007 09 17 704 LINEAR
    000000K07S01U K07S01U2007 SU1 0.975 3.831 0.00648 25.5 20240331 147.1 31.149 354.414 2.438 0.594 2.403 ( 8d) MPO126810 2007 09 19 704 LINEAR
    000000K07S06N K07S06N2007 SN6 0.721 3.983 0.00181 25.2 20240331 219.3 286.851 356.645 4.774 0.694 2.352 ( 12d) MPO126811 2007 09 19 704 LINEAR
    000000K07S06Q K07S06Q2007 SQ6 0.89 1.194 0.01135 22.20 20240331 79.5 284.131 191.312 9.086 0.146 1.042 3 MPO781199 2007 09 22 704 LINEAR
    000000K07S11R K07S11R2007 SR11 0.94 4.428 0.01887 22.0 20240331 277.5 99.652 218.344 1.474 0.65 2.684 ( 37d) MPO128953 2007 09 26 G96 Mt. Lemmon Survey
    000000K07T01C K07T01C2007 TC1 0.964 1.563 0.0736 23.7 20240331 263.2 115.081 189.31 23.819 0.237 1.263 ( 4d) MPO126813 2007 10 04 703 CSS
    000000K07T01H K07T01H2007 TH1 0.793 1.93 0.02154 21.88 20240331 171.2 282.384 13.681 20.105 0.418 1.362 3 MPO750185 2007 10 05 291 Spacewatch
    000000K07T05K K07T05K2007 TK5 0.552 2.673 0.05412 23.5 20240331 346.7 164.752 317.329 3.366 0.658 1.612 ( 5d) MPO126814 2007 10 07 G96 Mt. Lemmon Survey
    000000K07T08G K07T08G2007 TG8 0.977 4.302 0.18246 18.59 20240331 279.5 104.379 347.703 15.439 0.63 2.64 3 MPO740104 2007 10 08 703 CSS
    000000K07T14B K07T14B2007 TB14 0.902 4.075 0.0236 24.4 20240331 79.4 124.566 200.515 5.988 0.638 2.489 ( 25d) MPO128957 2007 10 08 703 CSS
    000000K07T14C K07T14C2007 TC14 0.411 3.779 0.01826 22.1 20240331 141.5 275.463 218.128 4.67 0.804 2.095 ( 8d) MPO128957 2007 10 08 703 CSS
    000000K07T15E K07T15E2007 TE15 0.928 2.716 0.03266 25.5 20240331 269.4 130.018 192.803 13.367 0.491 1.822 ( 3d) MPO126817 2007 10 08 G96 Mt. Lemmon Survey
    000000K07T15L K07T15L2007 TL15 0.633 2.13 0.0101 24.3 20240331 93.7 240.954 29.631 1.305 0.542 1.382 ( 9d) MPO126817 2007 10 08 G96 Mt. Lemmon Survey
    000000K07T15M K07T15M2007 TM15 0.823 2.525 0.20005 21.40 20240331 183.1 90.325 22.835 61.543 0.509 1.674 ( 21d) MPO750185 2007 10 08 G96 Mt. Lemmon Survey
    000000K07T16L K07T16L2007 TL16 0.876 2.042 0.00191 26.2 20240331 149.1 303.99 12.897 10.489 0.399 1.459 ( 10d) MPO126817 2007 10 09 703 CSS
    000000K07T18T K07T18T2007 TT18 0.862 3.822 0.03988 23.0 20240331 205.5 240.665 195.948 14.073 0.632 2.342 ( 10d) MPO126818 2007 10 09 704 LINEAR
    000000K07T18U K07T18U2007 TU18 0.995 4.06 0.01709 25.0 20240331 24.2 205.855 197.95 3.489 0.606 2.527 ( 32d) MPO128958 2007 10 09 704 LINEAR
    000000K07T19S K07T19S2007 TS19 0.542 1.626 0.02828 20.71 20240331 149.4 118.07 24.143 15.63 0.5 1.084 4 MPO740104 2007 10 10 703 CSS
    000000K07T22X K07T22X2007 TX22 0.894 2.221 0.00049 28.4 20240331 150.1 48.55 19.552 2.733 0.426 1.558 ( 0d) MPO126819 2007 10 11 703 CSS
    000000K07T23L K07T23L2007 TL23 0.299 1.97 0.01695 21.48 20240331 273.7 102.011 136.699 2.126 0.737 1.134 5 E2021-Y05 2007 10 11 703 CSS
    000000K07T24R K07T24R2007 TR24 0.622 3.128 0.04638 20.5 20240331 123.5 37.019 87.078 3.568 0.668 1.875 4 MPO450549 2007 10 11 703 CSS
    000000K07T24S K07T24S2007 TS24 0.995 4.597 0.03244 23.3 20240331 190.0 33.038 21.703 5.3 0.644 2.796 ( 29d) MPO288447 2007 10 11 703 CSS
    000000K07T24U K07T24U2007 TU24 0.954 3.133 0.00219 20.33 20240331 200.3 334.31 126.971 5.625 0.533 2.044 3 MPO750185 2007 10 11 703 CSS
    000000K07T24W K07T24W2007 TW24 0.869 3.414 0.00775 26.1 20240331 76.7 60.451 12.939 2.206 0.594 2.142 ( 4d) MPO126820 2007 10 11 G96 Mt. Lemmon Survey
    000000K07T68X K07T68X2007 TX68 0.948 3.112 0.01123 26.8 20240331 237.2 39.071 21.44 4.373 0.533 2.03 ( 2d)